[[{"header":{"parameterUnit":"m.s-1","parameterCategory":1,"la1":30.6,"la2":29.2853,"lo1":-89.7004,"lo2":-87.6739,"dy":0.0162,"dx":0.0183,"nx":112,"ny":82,"refTime":"2025-08-14T12:00:00:Z","depth":0,"parameterNumber":2,"parameterNumberName":"U-component_of_WINDS"},"data":[0.0,0.0,0.0,0.0,0.0,0.0,0.0,0.0,0.0,0.0,0.0,0.0,0.0,0.0,0.0,0.0,0.0,0.0,0.0,0.0,0.0,0.0,0.0,0.0,0.0,0.0,0.0,0.0,0.0,0.0,0.0,0.0,0.0,0.0,0.0,0.0,0.0,0.0,0.0,0.0,0.0,0.0,0.0,0.0,0.0,0.0,0.0,0.0,0.0,0.0,0.0,0.0,0.0,0.0,0.0,0.0,0.0,0.0,0.0,0.0,0.0,0.0,0.0,0.0,0.0,0.0,0.0,0.0,0.0,0.0,0.0,0.0,0.0,0.0,0.0,0.0,0.0,0.0,0.0,0.0,0.0,0.0,0.0,0.0,0.0,0.0,0.0,0.0,0.0,0.0,1.0884,1.2373,1.4475,1.577,1.5741,1.577,1.4892,1.2741,0.0,0.0,0.0,0.0,0.0,0.0,0.0,0.0,0.0,0.0,0.0,0.0,0.0,0.0,0.0,0.0,0.0,0.0,0.0,0.0,0.0,0.0,0.0,0.0,0.0,0.0,0.0,0.0,0.0,0.0,0.0,0.0,0.0,0.0,0.0,0.0,0.0,0.0,0.0,0.0,0.0,0.0,0.0,0.0,0.0,0.0,0.0,0.0,0.0,0.0,0.0,0.0,0.0,0.0,0.0,0.0,0.0,0.0,0.0,0.0,0.0,0.0,0.0,0.0,0.0,0.0,0.0,0.0,0.0,0.0,0.0,0.0,0.0,0.0,0.0,0.0,0.0,0.0,0.0,0.0,0.0,0.0,0.0,0.0,0.0,0.0,0.0,0.0,0.0,0.0,0.0,0.0,0.0,0.0,0.0,0.0,0.0,0.0,0.0,0.0,0.0,0.0,0.0,0.0,1.1253,1.372,1.5077,1.5668,1.5389,1.5639,1.5171,1.3684,0.0,0.0,0.0,0.0,0.0,0.0,0.0,0.0,0.0,0.0,0.0,0.0,0.0,0.0,0.0,0.0,0.0,0.0,0.0,0.0,0.0,0.0,0.0,0.0,0.0,0.0,0.0,0.0,0.0,0.0,0.0,0.0,0.0,0.0,0.0,0.0,0.0,0.0,0.0,0.0,0.0,0.0,0.0,0.0,0.0,0.0,0.0,0.0,0.0,0.0,0.0,0.0,0.0,0.0,0.0,0.0,0.0,0.0,0.0,0.0,0.0,0.0,0.0,0.0,0.0,0.0,0.0,0.0,0.0,0.0,0.0,0.0,0.0,0.0,0.0,0.0,0.0,0.0,0.0,0.0,0.0,0.0,0.0,0.0,0.0,0.0,0.0,0.0,0.0,0.0,0.0,0.0,0.0,0.0,0.0,0.0,0.0,0.0,0.0,0.0,0.0,0.0,0.0,1.062,1.1894,1.4074,1.4856,1.5193,1.5027,1.5163,1.4645,1.32,1.211,0.0,0.0,0.0,0.0,0.0,0.0,0.0,0.0,0.0,0.0,0.0,0.0,0.0,0.0,0.0,0.0,0.0,0.0,0.0,0.0,0.0,0.0,0.0,0.0,0.0,0.0,0.0,0.0,0.0,0.0,0.0,0.0,0.0,0.0,0.0,0.0,0.0,0.0,0.0,0.0,0.0,0.0,0.0,0.0,0.0,0.0,0.0,0.0,0.0,0.0,0.0,0.0,0.0,0.0,0.0,0.0,0.0,0.0,0.0,0.0,0.0,0.0,0.0,0.0,0.0,0.0,0.0,0.0,0.0,0.0,0.0,0.0,0.0,0.0,0.0,0.0,0.0,0.0,0.0,0.0,0.0,0.0,0.0,0.0,0.0,0.0,0.0,0.0,0.0,0.0,0.0,0.0,0.0,0.0,0.0,0.0,0.0,0.0,0.0,0.0,0.0,0.0,1.1548,1.2498,1.4124,1.462,1.4777,1.4683,1.4637,1.4016,1.2691,1.158,0.0,0.0,0.0,0.0,0.0,0.0,0.0,0.0,0.0,0.0,0.0,0.0,0.0,0.0,0.0,0.0,0.0,0.0,0.0,0.0,0.0,0.0,0.0,0.0,0.0,0.0,0.0,0.0,0.0,0.0,0.0,0.0,0.0,0.0,0.0,0.0,0.0,0.0,0.0,0.0,0.0,0.0,0.0,0.0,0.0,0.0,0.0,0.0,0.0,0.0,0.0,0.0,0.0,0.0,0.0,0.0,0.0,0.0,0.0,0.0,0.0,0.0,0.0,0.0,0.0,0.0,0.0,0.0,0.0,0.0,0.0,0.0,0.0,0.0,0.0,0.0,0.0,0.0,0.0,0.0,0.0,0.0,0.0,0.0,0.0,0.0,0.0,0.0,0.0,0.0,0.0,0.0,0.0,0.0,0.0,0.0,0.0,0.0,0.0,0.0,0.0,0.0,1.1762,1.2932,1.4164,1.462,1.4683,1.4365,1.4095,1.3657,1.2913,1.1107,0.0,0.0,0.0,0.0,0.0,0.0,0.0,0.0,0.0,0.0,0.0,0.0,0.0,0.0,0.0,0.0,0.0,0.0,0.0,0.0,0.0,0.0,0.0,0.0,0.0,0.0,0.0,0.0,0.0,0.0,0.0,0.0,0.0,0.0,0.0,0.0,0.0,0.0,0.0,0.0,0.0,0.0,0.0,0.0,0.0,0.0,0.0,0.0,0.0,0.0,0.0,0.0,0.0,0.0,0.0,0.0,0.0,0.0,0.0,0.0,0.0,0.0,0.0,0.0,0.0,0.0,0.0,0.0,0.0,0.0,0.0,0.0,0.0,0.0,0.0,0.0,0.0,0.0,0.0,0.0,0.0,0.0,0.0,0.0,0.0,0.0,0.0,0.0,0.0,0.0,0.0,0.0,0.0,0.0,0.0,0.0,0.0,0.0,0.0,0.0,0.0,0.0,1.1189,1.2292,1.3815,1.4105,1.4138,1.4007,1.3891,1.3273,1.1926,0.0,0.0,0.0,0.0,0.0,0.0,0.0,0.0,0.0,0.0,0.0,0.0,0.0,0.0,0.0,0.0,0.0,0.0,0.0,0.0,0.0,0.0,0.0,0.0,0.0,0.0,0.0,0.0,0.0,0.0,0.0,0.0,0.0,0.0,0.0,0.0,0.0,0.0,0.0,0.0,0.0,0.0,0.0,0.0,0.0,0.0,0.0,0.0,0.0,0.0,0.0,0.0,0.0,0.0,0.0,0.0,0.0,0.0,0.0,0.0,0.0,0.0,0.0,0.0,0.0,0.0,0.0,0.0,0.0,0.0,0.0,0.0,0.0,0.0,0.0,0.0,0.0,0.0,0.0,0.0,0.0,0.0,0.0,0.0,0.0,0.0,0.0,0.0,0.0,0.0,0.0,0.0,0.0,0.0,0.0,0.0,0.0,0.0,0.0,0.0,0.0,0.0,1.0104,1.0991,1.205,1.3618,1.3788,1.3788,1.3788,1.3703,1.2958,1.1306,0.0,0.0,0.0,0.0,0.0,0.0,0.0,0.0,0.0,0.0,0.0,0.0,0.0,0.0,0.0,0.0,0.0,0.0,0.0,0.0,0.0,0.0,0.0,0.0,0.0,0.0,0.0,0.0,0.0,0.0,0.0,0.0,0.0,0.0,0.0,0.0,0.0,0.0,0.0,0.0,0.0,0.0,0.0,0.0,0.0,0.0,0.0,0.0,0.0,0.0,0.0,0.0,0.0,0.0,0.0,0.0,0.0,0.0,0.0,0.0,0.0,0.0,0.0,0.0,0.0,0.0,0.0,0.0,0.0,0.0,0.0,0.0,0.0,0.0,0.0,0.0,0.0,0.0,0.0,0.0,0.0,0.0,0.0,0.0,0.0,0.0,0.0,0.0,0.0,0.0,0.0,0.0,0.0,0.0,0.0,0.0,0.0,0.0,0.0,0.0,0.0,0.0,1.0156,1.1303,1.2464,1.3657,1.3788,1.3788,1.3821,1.3574,1.2775,0.0,0.0,0.0,0.0,0.0,0.0,0.0,0.0,0.0,0.0,0.0,0.0,0.0,0.0,0.0,0.0,0.0,0.0,0.0,0.0,0.0,0.0,0.0,0.0,0.0,0.0,0.0,0.0,0.0,0.0,0.0,0.0,0.0,0.0,0.0,0.0,0.0,0.0,0.0,0.0,0.0,0.0,0.0,0.0,0.0,0.0,0.0,0.0,0.0,0.0,0.0,0.0,0.0,0.0,0.0,0.0,0.0,0.0,0.0,0.0,0.0,0.0,0.0,0.0,0.0,0.0,0.0,0.0,0.0,0.0,0.0,0.0,0.0,0.0,0.0,0.0,0.0,0.0,0.0,0.0,0.0,0.0,0.0,0.0,0.0,0.0,0.0,0.0,0.0,0.0,0.0,0.0,0.0,0.0,0.0,0.0,0.0,0.0,0.0,0.0,0.0,0.0,0.0,1.0208,1.1684,1.2925,1.3709,1.3788,1.3921,1.4138,1.406,1.3323,1.1669,0.0,0.0,0.0,0.0,0.0,0.0,0.0,0.0,0.0,0.0,0.0,0.0,0.0,0.0,0.0,0.0,0.0,0.0,0.0,0.0,0.0,0.0,0.0,0.0,0.0,0.0,0.0,0.0,0.0,0.0,0.0,0.0,0.0,0.0,0.0,0.0,0.0,0.0,0.0,0.0,0.0,0.0,0.0,0.0,0.0,0.0,0.0,0.0,0.0,0.0,0.0,0.0,0.0,0.0,0.0,0.0,0.0,0.0,0.0,0.0,0.0,0.0,0.0,0.0,0.0,0.0,0.0,0.0,0.0,0.0,0.0,0.0,0.0,0.0,0.0,0.0,0.0,0.0,0.0,0.0,0.0,0.0,0.0,0.0,0.0,0.0,0.0,0.0,0.0,0.0,0.0,0.0,0.0,0.0,0.0,0.0,0.0,0.0,0.0,0.0,0.0,0.0,1.056,1.1971,1.3121,1.3722,1.3788,1.3888,1.4072,1.4365,1.3709,1.1788,0.0,0.0,0.0,0.0,0.0,0.0,0.0,0.0,0.0,0.0,0.0,0.0,0.0,0.0,0.0,0.0,0.0,0.0,0.0,0.0,0.0,0.0,0.0,0.0,0.0,0.0,0.0,0.0,0.0,0.0,0.0,0.0,0.0,0.0,0.0,0.0,0.0,0.0,0.0,0.0,0.0,0.0,0.0,0.0,0.0,0.0,0.0,0.0,0.0,0.0,0.0,0.0,0.0,0.0,0.0,0.0,0.0,0.0,0.0,0.0,0.0,0.0,0.0,0.0,0.0,0.0,0.0,0.0,0.0,0.0,0.0,0.0,0.0,0.0,0.0,0.0,0.0,0.0,0.0,0.0,0.0,0.0,0.0,0.0,0.0,0.0,0.0,0.0,0.0,0.0,0.0,0.0,0.0,0.0,0.0,0.0,0.0,0.0,0.0,0.0,0.0,0.0,1.107,1.2233,1.3187,1.3735,1.3827,1.3873,1.3854,1.4438,1.3956,1.1898,0.0,0.0,0.0,0.0,0.0,0.0,0.0,0.0,0.0,0.0,0.0,0.0,0.0,0.0,0.0,0.0,0.0,0.0,0.0,0.0,0.0,0.0,0.0,0.0,0.0,0.0,0.0,0.0,0.0,0.0,0.0,0.0,0.0,0.0,0.0,0.0,0.0,0.0,0.0,0.0,0.0,0.0,0.0,0.0,0.0,0.0,0.0,0.0,0.0,0.0,0.0,0.0,0.0,0.0,0.0,0.0,0.0,0.0,0.0,0.0,1.0479,0.988,0.0,0.0,0.0,0.0,0.0,0.0,0.0,0.0,0.0,0.0,0.0,0.0,0.0,0.0,0.0,0.0,0.0,0.0,0.0,0.0,0.0,0.0,0.0,0.0,0.0,0.0,0.0,0.0,0.0,0.0,0.0,0.0,0.0,0.0,0.0,0.0,0.0,0.0,0.0,0.0,1.1122,1.2629,1.3644,1.3808,1.4167,1.4383,1.4211,1.4694,1.4446,1.3095,1.2367,0.0,0.0,0.0,0.0,0.0,0.0,0.0,0.0,0.0,0.0,0.0,0.0,0.0,0.0,0.0,0.0,0.0,0.0,0.0,0.0,0.0,0.0,0.0,0.0,0.0,0.0,0.0,0.0,0.0,0.0,0.0,0.0,0.0,0.0,0.0,0.0,0.0,0.0,0.0,0.0,0.0,0.0,0.0,0.0,0.0,0.0,0.0,0.0,0.0,0.0,0.0,0.0,0.0,0.0,0.0,0.0,0.0,0.0,0.0,1.2119,1.1676,0.0,0.0,0.0,0.0,0.0,0.0,0.0,0.0,0.0,0.0,0.0,0.0,0.0,0.0,0.0,0.0,0.0,0.0,0.0,0.0,0.0,0.0,0.0,0.0,0.0,0.0,0.0,0.0,0.0,0.0,0.0,0.0,0.0,0.0,0.0,0.0,0.0,0.0,0.0,0.0,1.1922,1.3278,1.4284,1.4514,1.4751,1.4875,1.48,1.5086,1.4927,1.4025,1.315,0.0,0.0,0.0,0.0,0.0,0.0,0.0,0.0,0.0,0.0,0.0,0.0,0.0,0.0,0.0,0.0,0.0,0.0,0.0,0.0,0.0,0.0,0.0,0.0,0.0,0.0,0.0,0.0,0.0,0.0,0.0,0.0,0.0,0.0,0.0,0.0,0.0,0.0,0.0,0.0,0.0,0.0,0.0,0.0,0.0,0.0,0.0,0.0,0.0,0.0,0.0,0.0,0.0,1.2647,1.3376,1.3736,1.4194,1.4608,1.4877,1.3653,1.3459,1.4026,1.3171,0.0,0.0,0.0,0.0,0.0,0.0,0.0,0.0,0.0,0.0,0.0,0.0,0.0,0.0,0.0,0.0,0.0,0.0,0.0,0.0,0.0,0.0,1.4117,1.4809,1.5271,1.4999,1.3058,0.0,0.0,0.0,0.0,0.0,0.0,0.0,0.0,0.0,0.0,0.0,1.2868,1.4015,1.4865,1.5259,1.5401,1.5465,1.5324,1.5546,1.5353,1.463,1.3867,1.3157,0.0,0.0,0.0,0.0,0.0,0.0,0.0,0.0,0.0,0.0,0.0,0.0,0.0,0.0,0.0,0.0,0.0,0.0,0.0,0.0,0.0,0.0,0.0,0.0,0.0,0.0,0.0,0.0,0.0,0.0,0.0,0.0,0.8036,0.8425,0.0,0.0,0.0,0.0,0.0,0.0,0.0,0.0,0.0,0.0,0.0,0.0,0.0,1.1166,1.1767,1.3432,1.4305,1.4468,1.5415,1.5729,1.5382,1.5852,1.593,1.5596,1.5785,0.0,1.4121,1.437,0.0,0.0,0.0,0.0,0.0,0.0,0.0,0.0,0.0,0.0,0.0,0.0,0.0,0.0,0.0,0.0,0.0,0.0,0.0,0.0,0.0,0.0,1.6784,1.6139,1.6834,1.7244,1.5915,1.4318,1.3024,1.2668,1.1811,1.1044,0.0,0.0,0.0,0.0,0.0,0.0,1.3262,1.4462,1.5221,1.5311,1.5854,1.6023,1.5501,1.5982,1.5796,1.4686,1.4218,1.3757,1.3177,1.2141,0.0,0.0,0.0,0.0,0.0,0.0,0.0,0.0,0.0,0.0,0.0,0.0,0.0,0.0,0.0,0.0,0.0,0.0,0.0,0.0,0.0,0.0,0.0,0.0,0.0,0.0,0.0,0.0,0.0,0.8119,0.9167,0.9043,0.9351,0.9259,0.0,0.0,0.0,0.0,0.0,0.0,0.0,0.0,0.0,1.1366,1.2258,1.2966,1.3448,1.4326,1.483,1.4891,1.5656,1.5892,1.5711,1.617,1.6288,1.6092,1.6288,1.589,1.5027,1.5556,1.5061,1.3987,0.0,0.0,0.0,0.0,1.4688,1.5139,1.5806,1.5819,1.5417,1.4538,0.0,0.0,0.0,0.0,0.0,0.0,0.0,1.4467,1.5245,1.597,1.6512,1.6712,1.6948,1.7066,1.6818,1.5854,1.4857,1.4212,1.3696,1.3013,1.1908,1.1702,0.0,0.0,0.0,1.3552,1.4364,1.5247,1.5905,1.6147,1.654,1.6619,1.636,1.6468,1.636,1.5878,1.5412,1.4992,1.4607,1.3632,1.2787,0.0,0.0,0.0,0.0,0.0,0.0,0.0,0.0,0.0,0.0,0.0,0.0,0.0,0.0,0.0,0.0,0.0,0.0,0.0,0.0,0.0,0.0,0.0,0.0,0.0,0.0,0.0,0.0,0.9169,1.0172,0.9983,1.062,1.0608,0.0,0.0,0.0,0.0,0.0,0.0,1.0855,1.176,1.2497,1.2934,1.37,1.436,1.4844,1.5127,1.5348,1.5536,1.5986,1.6208,1.6218,1.657,1.6726,1.6726,1.6726,1.6529,1.6238,1.639,1.6303,1.5948,1.5578,1.612,1.7011,1.6471,1.6559,1.7074,1.7915,1.794,1.7451,1.6609,1.6245,1.5894,1.4664,0.0,0.0,0.0,0.0,1.5344,1.6204,1.6376,1.6532,1.7282,1.7211,1.7036,1.7385,1.7053,1.6448,1.5563,1.5298,1.4776,1.3422,1.3426,0.0,1.2807,1.3702,1.4674,1.5261,1.5942,1.6496,1.6879,1.7002,1.7044,1.7044,1.6928,1.6797,1.6715,1.6313,1.5951,1.5607,1.4688,1.3893,1.316,0.0,0.0,0.0,0.0,0.0,0.0,0.0,0.0,0.0,0.0,0.0,0.0,0.0,0.0,0.0,0.0,0.0,0.0,0.0,0.0,0.0,0.0,0.0,0.0,0.0,0.0,0.0,0.0,0.0,1.1936,1.2036,0.0,0.0,0.0,0.0,1.1604,1.1661,1.2283,1.3611,1.3631,1.3767,1.4192,1.4537,1.5091,1.5803,1.6285,1.6849,1.7533,1.7554,1.7626,1.7575,1.7595,1.7606,1.7606,1.7606,1.7595,1.7522,1.6716,1.6915,1.7747,1.8264,1.853,1.8593,1.8555,1.8367,1.8129,1.8191,1.8191,1.8154,1.8091,1.7727,1.7287,1.72,1.7174,0.0,0.0,1.7589,1.8003,1.8066,1.8078,1.8091,1.8163,1.8116,1.8116,1.8163,1.7748,1.7149,1.6552,1.6065,1.5727,1.5653,0.0,1.4381,1.4777,1.4917,1.5145,1.5621,1.6354,1.6892,1.6876,1.7086,1.7199,1.7199,1.7173,1.6978,1.6454,1.6402,1.6114,1.5548,1.4908,1.4396,1.4036,1.2157,0.0,0.0,0.0,0.0,0.0,0.0,0.0,0.0,0.0,0.0,0.0,0.0,0.0,0.0,0.0,0.0,0.0,0.0,0.0,0.0,0.0,0.0,0.0,0.0,0.0,0.0,0.0,0.0,1.2356,1.2923,0.0,1.2388,1.2528,1.2782,1.2996,1.3263,1.358,1.3992,1.4287,1.4576,1.5008,1.5497,1.6059,1.6617,1.6961,1.7308,1.7595,1.7668,1.7668,1.7668,1.7668,1.7668,1.7668,1.7668,1.7668,1.7698,1.7381,1.7355,1.761,1.8818,1.9187,1.9182,1.9769,1.9854,1.9678,1.9756,1.9786,1.9673,1.8957,1.8355,1.7903,1.7903,1.7903,1.7903,1.7903,1.8053,1.8204,1.8204,1.8204,1.8204,1.8204,1.8204,1.8204,1.8204,1.8053,1.7852,1.7639,1.6861,1.6149,1.5866,1.5737,1.5661,1.5537,1.5774,1.6048,1.6304,1.6676,1.6918,1.696,1.7115,1.7199,1.7199,1.7199,1.712,1.6924,1.6584,1.6231,1.5835,1.5056,1.4462,1.4222,1.2935,1.1879,0.0,0.0,0.0,0.0,0.0,0.0,0.0,0.0,0.0,0.0,0.0,0.0,0.0,0.0,0.0,0.0,0.0,0.0,0.0,0.0,0.0,0.0,0.0,0.0,0.0,1.156,1.2692,1.2709,1.3501,1.3857,1.3391,1.373,1.3997,1.4093,1.4306,1.4537,1.4766,1.5059,1.5468,1.59,1.6325,1.6815,1.7379,1.7643,1.784,1.8047,1.8121,1.8185,1.8185,1.8185,1.8185,1.8185,1.8185,1.8185,1.8185,1.8185,1.8061,1.8019,1.8932,1.9301,1.941,2.0286,2.0604,2.0526,2.0846,2.0941,2.0828,2.01,1.9484,1.9032,1.9032,1.8894,1.8744,1.8744,1.8744,1.8744,1.8744,1.8744,1.8744,1.8744,1.8744,1.8744,1.8744,1.8606,1.848,1.848,1.7576,1.6685,1.6405,1.6451,1.6384,1.6061,1.6283,1.6522,1.662,1.6761,1.6846,1.6876,1.7002,1.7115,1.7115,1.7115,1.7157,1.7199,1.6859,1.6599,1.6422,1.5451,1.4822,1.4707,1.3512,1.2598,1.199,0.0,0.0,0.0,0.0,0.0,0.0,0.0,0.0,0.0,0.0,0.0,0.0,0.0,0.0,0.0,0.0,0.0,0.0,0.0,0.0,0.0,0.0,0.0,1.146,1.2091,1.2722,1.3172,1.3868,1.4162,1.3767,1.3988,1.4355,1.4795,1.4824,1.5195,1.6096,1.6145,1.6412,1.6981,1.6991,1.74,1.824,1.824,1.852,1.9085,1.9085,1.9106,1.9116,1.9116,1.9116,1.9116,1.9162,1.9085,1.9085,1.9075,1.9075,1.9048,1.876,1.8884,1.941,2.0205,2.0495,2.0598,2.1281,2.1506,2.1493,2.1493,2.1129,2.069,2.0743,2.03,1.9849,1.9849,1.9849,1.9823,1.9823,1.9811,1.9798,1.9798,1.9798,1.9798,1.9798,1.9409,1.8995,1.8995,1.8179,1.7426,1.7413,1.6936,1.6572,1.6547,1.6559,0.0,1.6522,1.6633,1.6701,1.6731,1.6803,1.6918,1.7002,1.7002,1.7044,1.7199,1.7186,1.7173,1.7173,1.6101,1.5487,1.5487,1.3814,1.2988,1.3024,0.0,0.0,0.0,0.0,0.0,0.0,0.0,0.0,0.0,0.0,0.0,0.0,0.0,0.0,0.0,0.0,0.0,0.0,0.0,0.0,0.0,1.164,1.2273,1.2064,1.3065,1.3925,1.4316,1.4517,1.4733,1.4929,1.5,1.5244,1.5743,1.5713,1.5957,1.6523,1.6553,1.6801,1.7427,1.7556,1.7971,1.8624,1.8757,1.9116,1.964,1.964,1.9737,2.0058,2.0058,2.0058,2.0038,1.9706,1.964,1.9551,1.921,1.9075,1.911,1.8982,1.9308,1.994,2.0569,2.1054,2.1375,2.1127,2.1049,2.1144,2.1338,2.1213,2.1076,2.1255,2.1154,2.1029,2.1029,2.074,2.0426,2.0426,2.0112,1.9798,1.9798,1.9798,1.9798,1.9798,1.9685,1.9585,1.9585,1.9045,1.8455,1.8053,1.784,1.7601,1.72,1.7488,1.7451,1.6734,1.7004,1.7193,1.6884,1.6876,1.6918,1.6918,1.6918,1.696,1.7044,1.6697,1.6517,1.6611,1.5892,1.5487,1.5487,1.4598,1.4032,0.0,0.0,0.0,0.0,0.0,0.0,0.0,0.0,0.0,0.0,0.0,0.0,0.0,0.0,0.0,0.0,0.0,0.0,0.0,0.0,0.0,0.0,1.2782,1.3491,1.3391,1.4041,1.4557,1.4756,1.4941,1.5146,1.5391,1.5576,1.5791,1.6105,1.624,1.6533,1.6982,1.7002,1.7327,1.7939,1.8081,1.8502,1.9219,1.9354,1.9582,2.0038,2.0038,2.0172,2.042,2.0288,2.0349,2.041,2.0081,1.9968,2.0017,1.9748,1.9634,1.9603,0.0,0.0,0.0,0.0,2.0802,2.1353,2.1169,2.1163,2.1342,2.1731,2.1745,2.1604,2.1731,2.1625,2.1493,2.1493,2.1255,2.0953,2.0781,2.0413,2.01,1.9861,1.9798,1.9798,1.9798,1.9798,1.9798,1.9798,1.956,0.0,1.8932,1.8505,1.8091,1.7777,1.8003,1.7965,1.7415,1.739,1.7371,1.7142,1.6888,1.6748,1.6803,1.6803,0.0,0.0,0.0,1.649,1.6402,1.6062,0.0,0.0,0.0,0.0,0.0,0.0,0.0,0.0,1.4067,1.399,0.0,0.0,0.0,0.0,0.0,0.0,0.0,0.0,0.0,0.0,0.0,0.0,0.0,0.0,0.0,0.0,1.3915,1.4972,1.49,1.4853,1.4853,1.4853,1.5186,1.543,1.5478,1.584,1.6164,1.6262,1.6582,1.7002,1.7432,1.7451,0.0,0.0,0.0,1.8968,1.9831,1.99,2.0058,2.0503,2.0503,2.0463,2.0504,2.037,2.037,2.0504,2.0319,2.0288,2.0421,2.0441,2.042,2.0267,1.9547,1.9091,1.8879,1.9462,2.0193,2.0887,2.1365,0.0,0.0,2.2482,2.2406,2.2188,2.2188,2.1956,2.1681,2.1681,2.1631,2.1468,2.0978,2.0857,2.0668,2.0037,1.9899,1.9874,1.9811,1.9798,1.9798,1.9798,1.9798,1.9798,1.9798,1.9007,1.8367,1.8304,1.8342,1.8342,1.8229,1.784,1.7551,1.7488,1.7011,0.0,1.6777,1.6777,1.6794,1.6888,1.696,1.6824,1.6466,1.648,1.648,1.648,1.648,1.6715,1.7199,1.7393,1.7169,1.6625,1.4735,1.466,0.0,0.0,0.0,0.0,0.0,0.0,0.0,0.0,0.0,0.0,0.0,0.0,0.0,0.0,0.0,1.3738,1.4508,1.5081,1.5244,1.5293,1.5293,1.5293,1.5361,1.5547,1.5908,1.6076,1.6357,1.707,1.7207,1.7441,1.7871,1.7891,1.8222,1.9003,1.9093,1.9434,2.0296,2.0296,2.0524,2.0979,2.0979,0.0,2.1322,2.1247,2.1247,2.1292,2.0849,2.0696,2.0739,2.0504,2.0278,2.0165,2.0234,2.0012,1.9766,2.0096,2.0526,2.106,2.1187,2.1588,2.2123,2.2359,2.2543,2.2578,2.2699,2.2792,0.0,2.2811,2.2498,2.2133,2.202,2.1656,2.1192,2.0639,2.0555,2.0376,1.9911,1.9798,1.9798,1.9798,1.9798,1.9798,1.9798,1.9635,1.9346,1.8932,1.9221,1.9183,1.8317,1.8505,1.8543,1.8091,1.794,1.7702,1.7307,1.7269,1.7112,1.6744,1.6876,1.6964,1.6889,1.7001,1.7042,1.7042,1.7042,1.7094,1.7199,1.724,1.7175,1.7057,1.6798,1.6636,0.0,0.0,0.0,0.0,0.0,0.0,0.0,0.0,0.0,0.0,0.0,1.1644,1.2523,0.0,1.3866,1.4464,1.4936,1.5233,1.5381,1.541,1.541,1.541,1.541,1.5586,1.6016,1.626,1.667,1.7334,1.7578,1.7881,1.8301,1.8399,1.8815,1.9545,1.9626,2.0043,2.0762,2.0772,2.1,2.1455,2.1455,2.1504,2.1502,2.1436,2.1425,2.1492,2.104,2.0939,2.1145,2.092,2.068,2.0491,2.038,2.0271,2.0049,1.9594,1.9764,2.015,2.0085,2.0291,2.0677,2.1135,2.1577,2.2099,2.2199,2.258,2.3017,2.3078,2.2937,2.2661,2.2385,2.2108,2.1757,2.1204,2.1079,2.0928,2.0363,2.0238,2.015,1.9861,1.9798,1.9798,1.9798,1.9798,1.971,1.9459,1.9635,1.961,1.907,1.902,1.892,1.8643,1.8367,1.8091,1.7815,1.779,1.7723,1.7568,1.7632,1.7766,1.7841,1.793,1.7974,1.8048,1.8048,1.8048,1.8048,1.8048,1.8048,1.8048,1.8135,1.7876,0.0,0.0,0.0,0.0,0.0,0.0,0.0,1.1588,1.1737,1.2083,1.2722,1.3342,1.3672,1.4316,1.4814,1.4893,1.5186,1.541,1.541,1.541,1.541,1.541,1.541,1.5615,1.6143,1.6523,1.6953,1.7471,1.79,1.8281,1.8553,1.8932,1.9403,2.0008,2.0236,2.0658,2.1248,2.1248,2.1435,2.1807,2.1807,2.1655,2.1436,2.1282,2.1282,2.1359,2.1061,2.1138,2.1436,2.1205,2.0974,2.0876,2.0404,2.0285,2.0264,1.9274,1.9142,1.9504,1.9638,1.9572,1.9572,2.0314,2.1031,2.1591,2.1706,2.2283,2.2969,2.3078,2.3078,2.2977,2.2585,2.2472,2.2334,2.1782,2.1644,2.1493,2.0941,2.0882,2.0652,2.0075,1.9962,1.9936,1.9823,1.9798,1.9798,1.9798,1.9798,1.9798,1.9798,1.9434,1.9183,1.9183,1.8781,1.848,1.8367,1.8267,1.8251,1.8333,1.838,1.8474,1.8647,1.8647,1.8727,1.8865,1.8865,1.8865,1.8911,1.8911,1.8911,1.8911,1.8911,1.8675,1.0354,1.0474,1.1155,1.2701,1.2517,1.243,0.0,1.3902,1.334,1.376,1.3926,1.4121,1.4561,1.4717,1.4902,1.5283,1.5381,1.541,1.541,1.541,1.541,1.541,1.541,1.5742,1.6572,1.6636,1.707,1.7881,1.833,1.8584,1.8562,1.9209,1.9853,2.0471,2.0703,2.1131,2.1725,2.1725,2.1756,2.1807,2.1807,2.1578,2.1205,2.1205,2.1138,2.0984,2.0906,2.1061,2.1205,2.0809,2.0731,2.0906,2.0672,2.0717,2.0813,2.0329,2.0144,2.0386,2.1707,2.1707,2.1224,2.206,2.2301,2.218,2.2245,2.2623,2.3078,2.3078,2.3078,2.3065,2.3002,2.2977,2.2912,2.2347,2.2221,2.2071,2.1518,2.1393,2.123,2.0677,2.0618,2.0401,1.9886,1.9798,1.9798,1.9798,1.9798,1.9798,1.9798,1.9748,1.971,1.971,1.966,1.9434,1.897,1.848,1.8204,1.8204,1.8333,1.8427,1.8427,1.8508,1.8601,1.8727,1.8727,1.8773,1.8911,1.8911,1.8911,1.8911,1.8911,1.8872,1.1408,1.2359,1.339,1.391,1.4326,1.4728,1.5269,1.5167,1.5049,1.5225,1.5254,1.5312,1.5498,1.5322,1.5205,1.5381,1.5625,1.5791,1.5791,1.6016,1.6084,1.582,1.5791,1.6035,1.667,1.6665,1.7187,1.8291,1.8465,1.8848,1.9492,1.9762,2.0302,2.1075,2.1237,2.1394,2.1807,2.1807,2.1807,2.1807,2.1655,2.1512,2.1205,2.1061,2.0896,2.0731,2.0829,2.0896,2.0809,2.0644,2.0644,2.0731,2.1175,2.1054,2.0691,2.0242,2.0194,2.0389,2.1107,2.0825,2.041,2.1666,2.1935,2.1902,2.2278,2.2838,2.3319,2.3165,2.3078,2.3078,2.3078,2.3078,2.3015,2.2849,2.2786,2.2636,2.2083,2.197,2.1807,2.1255,2.1142,2.0966,2.0401,2.03,2.0188,1.9849,1.9798,1.9798,1.9798,1.9798,1.9798,1.9798,1.9798,1.971,1.9497,1.9271,1.9133,1.9133,1.9183,1.9232,1.9344,1.9344,1.9492,1.9736,1.9749,1.9833,1.993,1.993,1.993,1.993,1.993,2.01,1.2437,1.3738,1.4868,1.4787,1.5614,1.6376,1.5989,1.6086,1.625,1.625,1.6213,1.6125,1.6125,1.5703,1.541,1.541,1.5781,1.6125,1.6125,1.6338,1.6426,1.6103,1.6017,1.6103,1.668,1.6665,1.72,1.8465,1.875,1.9213,2.0088,2.0331,2.0701,2.1425,2.1512,2.1578,2.1731,2.1731,2.1655,2.1655,2.1512,2.1282,2.1138,2.0896,2.0731,2.0644,2.0741,2.0731,2.0566,2.0566,2.0566,2.0644,2.1461,2.1461,2.0904,2.0576,2.0406,2.0419,2.0783,2.0502,2.0209,2.1635,2.2033,2.2134,2.2587,2.3095,2.3516,2.3293,2.319,2.3078,2.2884,2.2944,2.3065,2.2884,2.2944,2.2965,2.2623,2.2535,2.2372,2.182,2.1719,2.1543,2.0991,2.0891,2.0752,2.0326,2.0263,2.0162,1.9849,1.9798,1.9798,1.9798,1.9798,1.9798,1.9798,1.9798,1.9798,1.9798,1.9798,1.9862,1.9926,1.9926,2.0093,2.036,2.041,2.0511,2.0662,2.0662,2.0791,2.0948,2.0948,2.1211,1.3132,1.3831,1.4703,1.5405,1.595,1.6345,1.6592,1.6636,1.6709,1.6709,1.6367,1.6125,1.6125,1.5703,1.541,1.541,1.5781,1.6125,1.6125,1.6135,1.6135,1.6125,1.5693,1.5771,1.665,1.6665,1.72,1.8465,1.9023,1.9453,1.9893,2.0562,2.0964,2.1205,2.1436,2.1502,2.1502,2.1502,2.1436,2.1205,2.1205,2.1128,2.0906,2.0731,2.0644,2.0566,2.0644,2.0644,2.0566,2.0566,2.0566,2.0644,2.1461,2.1766,2.1756,2.1745,2.1288,2.0672,2.1497,2.1714,2.1866,2.2691,2.3239,2.356,2.3537,2.3604,2.3716,2.3704,2.3368,2.2944,2.2298,2.2616,2.2944,2.2298,2.2616,2.3125,2.3053,2.3053,2.2949,2.2397,2.2284,2.2121,2.1556,2.1468,2.1455,2.1443,2.1443,2.1041,1.9949,1.9798,1.9798,1.9798,1.9798,1.9798,1.9798,1.9798,1.9798,1.9798,1.9798,1.9798,1.9811,1.9811,1.9862,1.999,2.0131,2.0296,2.0511,2.0662,2.0987,2.1485,2.1485,2.1812,1.3736,1.4715,1.5801,1.6204,1.6684,1.7115,1.748,1.7578,1.75,1.7227,1.6582,1.5977,1.5684,1.5283,1.5,1.5,1.585,1.6514,1.6514,1.7002,1.7148,1.6572,1.6631,1.6728,1.6665,1.6792,1.757,1.916,1.9221,1.967,2.0695,2.0539,2.0751,2.1349,2.1359,2.1359,2.1502,2.1502,2.1436,2.1205,2.1061,2.0896,2.0731,2.0644,2.0566,2.0566,2.0566,2.0566,2.0566,2.0566,2.0566,2.0712,2.2059,2.1907,2.1165,2.2209,2.1756,2.0712,2.1538,2.1832,2.1983,2.3316,2.3849,2.4012,2.4477,2.4293,2.3983,2.3891,2.3183,2.2494,2.2689,2.2616,2.2494,2.2689,2.2944,2.3078,2.3078,2.3078,2.3075,2.2899,2.2862,2.2686,2.2133,2.2033,2.1907,2.1543,2.1493,2.1217,2.0476,2.0376,2.0225,1.9849,1.9798,1.9798,1.9798,1.9798,1.9798,1.9798,1.9798,1.9974,2.0363,2.0376,2.0658,2.1132,2.1186,2.1307,2.1534,2.1587,2.1797,2.2113,2.2086,2.2387,1.4473,1.5488,1.653,1.6855,1.7285,1.7676,1.7949,1.79,1.7666,1.7236,1.6445,1.5693,1.5264,1.4834,1.46,1.4756,1.5742,1.6553,1.6709,1.7344,1.7588,1.7031,1.708,1.71,1.7027,1.7347,1.8165,1.9531,1.9242,1.9511,2.0817,2.0391,2.0361,2.1019,2.1115,2.1282,2.1359,2.1359,2.1282,2.0964,2.0809,2.0731,2.0566,2.0566,2.0566,2.0566,2.0566,2.0566,2.0566,2.0566,2.0566,2.0712,2.2059,2.1907,2.1165,2.2209,2.1907,2.1088,2.1318,2.1538,2.1983,2.2947,2.3537,2.3929,2.4624,2.457,2.4207,2.4075,2.3298,2.2464,2.2601,2.2394,2.2237,2.2616,2.2944,2.3078,2.3078,2.3078,2.3078,2.3078,2.3078,2.2965,2.2673,2.2611,2.2485,2.2133,2.2071,2.1807,2.1054,2.0966,2.0815,2.0439,2.0401,2.0401,2.0401,2.0401,2.0401,2.0401,2.0401,2.0577,2.0941,2.0966,2.1239,2.169,2.169,2.1814,2.2034,2.2102,2.2273,2.2591,2.2675,2.2988,1.5371,1.6123,1.6894,1.7314,1.7715,1.8008,1.7978,1.7656,1.7217,1.6728,1.5928,1.5176,1.4736,1.4346,1.4238,1.4648,1.5478,1.6221,1.667,1.7109,1.7393,1.7412,1.707,1.7037,1.7605,1.8231,1.8843,1.9541,1.901,1.9157,2.0163,2.0043,1.9977,2.0242,2.0897,2.1205,2.1205,2.1205,2.0974,2.0566,2.0566,2.0566,2.0566,2.0566,2.0566,2.0566,2.0566,2.0566,2.0566,2.0566,2.0566,2.0644,2.1461,2.1766,2.1766,2.1756,2.1766,2.1614,2.0867,2.1165,2.1832,2.1832,2.2446,2.3434,2.4131,2.4272,2.4163,2.4163,2.3537,2.2738,2.1958,2.1876,2.1978,2.2051,2.2555,2.3065,2.3017,2.3005,2.3078,2.3078,2.3078,2.3078,2.3078,2.3078,2.3078,2.3078,2.3078,2.2749,2.1669,2.1531,2.1518,2.1493,2.1493,2.1493,2.1493,2.1493,2.1493,2.1493,2.1493,2.1506,2.1531,2.1531,2.1599,2.1779,2.1779,2.1835,2.1988,2.2124,2.2463,2.3049,2.315,2.3576,1.6279,1.7021,1.7705,1.7822,1.793,1.793,1.7617,1.7207,1.6592,1.5508,1.459,1.3769,1.3018,1.3311,1.3701,1.3818,1.5088,1.6221,1.667,1.7109,1.75,1.7812,1.8027,1.8135,1.8121,1.8429,1.8784,1.9294,1.9413,1.9798,2.0406,2.0209,2.0266,2.0708,2.1145,2.1359,2.1205,2.1061,2.0819,2.0566,2.0566,2.0566,2.0566,2.0566,2.0566,2.0566,2.0566,2.0566,2.0566,2.0566,2.0566,2.0644,2.1461,2.1461,2.1021,2.1614,2.1385,2.0867,2.0634,2.1165,2.1832,2.1832,2.2371,2.318,2.3599,2.3394,2.314,2.3432,2.2446,2.1419,2.1695,2.1178,2.073,2.125,2.1865,2.2237,2.169,2.199,2.2359,2.2359,2.275,2.3078,2.3078,2.3078,2.3078,2.3078,2.3078,2.2887,2.2184,2.2108,2.1945,2.1531,2.1493,2.1493,2.1493,2.1493,2.1493,2.1493,2.1493,2.1669,2.2083,2.2108,2.2297,2.2698,2.29,2.3018,2.3193,2.3193,2.3444,2.3832,2.3774,2.3852,1.6894,1.75,1.7969,1.7783,1.7734,1.7568,1.6943,1.6328,1.5566,1.4453,1.3545,1.2734,1.2061,1.249,1.3066,1.3447,1.4785,1.6006,1.6641,1.7266,1.7812,1.8242,1.833,1.8409,1.8635,1.8785,1.8914,1.9137,1.9231,1.9576,2.0199,2.0106,2.0232,2.0761,2.1181,2.1359,2.1359,2.1138,2.0896,2.0731,2.0644,2.0566,2.0566,2.0566,2.0566,2.0566,2.0566,2.0566,2.0566,2.0566,2.0566,2.0644,2.1088,2.1021,2.0634,2.1088,2.1011,2.0566,2.0566,2.0867,2.1242,2.1242,2.1624,2.2231,2.2798,2.2897,2.2761,2.3061,2.2158,2.1213,2.1553,2.0897,2.0355,2.1302,2.1616,2.1616,2.1553,2.1616,2.1678,2.1678,2.1939,2.2199,2.2199,2.2199,2.2237,2.2309,2.2332,2.2293,2.2289,2.2523,2.246,2.1907,2.2071,2.202,2.1531,2.1933,2.2108,2.187,2.2083,2.2347,2.2661,2.2673,2.2711,2.2905,2.3217,2.3335,2.3257,2.3572,2.3819,2.4008,2.4008,2.4008,1.7334,1.7734,1.791,1.749,1.7344,1.707,1.6182,1.5225,1.4287,1.3428,1.2568,1.1836,1.143,1.1816,1.249,1.3291,1.4492,1.5635,1.6523,1.7334,1.8037,1.8574,1.832,1.84,1.9194,1.9184,1.916,1.9039,1.8804,1.9031,1.9899,1.9925,2.0192,2.0717,2.109,2.1359,2.1502,2.1282,2.1138,2.0906,2.0731,2.0566,2.0566,2.0566,2.0566,2.0566,2.0566,2.0566,2.0566,2.0566,2.0566,2.0566,2.0566,2.0566,2.0566,2.0566,2.0566,2.0566,2.0566,2.0566,2.0566,2.0566,2.0731,2.1051,2.1918,2.2285,2.2521,2.2767,2.2147,2.1398,2.1339,2.0625,2.0279,2.1416,2.1302,2.1123,2.1604,2.1302,2.0996,2.0996,2.106,2.1112,2.1043,2.1089,2.1116,2.1129,2.1153,2.1426,2.2023,2.2564,2.2761,2.2347,2.2673,2.2523,2.1568,2.2372,2.2711,2.2234,2.2648,2.2912,2.2912,2.2912,2.2795,2.2578,2.3048,2.3145,2.2898,2.3528,2.3891,2.3949,2.4008,2.4054,1.7686,1.7959,1.791,1.749,1.7109,1.6611,1.5723,1.4326,1.2959,1.2126,1.1221,1.0488,1.0049,1.1159,1.2393,1.291,1.4062,1.5195,1.6055,1.6621,1.7307,1.8506,1.8574,1.8842,1.9645,1.9273,1.8943,1.8849,1.9031,1.9404,2.0053,2.0216,2.0677,2.1587,2.1471,2.1425,2.1502,2.1282,2.1138,2.0906,2.0731,2.0566,2.0566,2.0566,2.0566,2.0566,2.0566,2.0566,2.0566,2.0566,2.0566,2.0566,2.0566,2.0566,2.0566,2.0566,2.0566,2.0566,2.0566,2.0566,2.0566,2.0566,2.0644,2.0731,2.1041,2.1195,2.1282,2.1655,2.1061,2.042,2.0563,1.9954,1.932,1.9584,1.9966,2.0161,1.9704,1.9966,2.0291,2.0291,2.0741,2.0997,2.0572,2.0848,2.0876,2.0193,2.0342,2.0627,2.0892,2.1411,2.1907,2.2272,2.1995,2.1694,2.1506,2.1656,2.1732,2.1631,2.1719,2.1782,2.1782,2.1782,2.1945,2.2367,2.2597,2.3,2.3475,2.3577,2.3806,2.4067,2.4008,2.4008,1.751,1.7519,1.7295,1.71,1.6543,1.5762,1.4668,1.3262,1.1998,1.1116,1.0215,0.9619,0.9592,1.0458,1.1504,1.2402,1.3428,1.4492,1.5576,1.6309,1.7142,1.8416,1.8562,1.9039,2.0076,1.9463,1.9113,1.9312,1.9213,1.943,2.0124,2.074,2.1277,2.1645,2.1655,2.1655,2.1655,2.1359,2.1128,2.1061,2.0731,2.0566,2.0566,2.0566,2.0566,2.0566,2.0566,2.0566,2.0566,2.0566,2.0566,2.0566,2.0566,2.0566,2.0566,2.0566,2.0566,2.0566,2.0566,2.0566,2.0566,2.0566,2.0566,2.0644,2.0829,2.0906,2.0984,2.1282,2.071,2.0011,2.0216,1.962,1.9065,1.9518,1.9846,1.9911,1.9264,1.933,1.9584,1.9584,1.9846,1.9878,1.9462,1.9572,1.9511,1.8899,1.9249,1.9727,2.0109,2.0452,2.0828,2.1393,2.1481,2.1255,2.0665,2.1154,2.1368,2.1079,2.133,2.1493,2.1493,2.1493,2.1606,2.1882,2.2401,2.2866,2.3193,2.3664,2.3936,2.4112,2.4008,2.4067,1.71,1.6992,1.6709,1.6611,1.5928,1.4971,1.3779,1.2353,1.1116,1.0303,0.9463,0.9004,0.9388,0.9932,1.0713,1.1976,1.2871,1.3818,1.5098,1.6035,1.7031,1.8223,1.8525,1.9088,2.0246,1.9686,1.9353,1.9758,1.951,1.9565,2.0063,2.0999,2.1484,2.1435,2.1587,2.1704,2.1807,2.1436,2.1282,2.1282,2.0886,2.0654,2.0654,2.0644,2.0566,2.0566,2.0566,2.0566,2.0566,2.0566,2.0566,2.0566,2.0566,2.0566,2.0566,2.0566,2.0566,2.0566,2.0566,2.0566,2.0566,2.0566,2.0566,2.0644,2.0819,2.0829,2.0906,2.1061,2.0567,2.0008,2.0042,1.9483,1.9132,1.9736,1.9911,1.9715,1.9198,1.9075,1.9075,1.9075,1.9075,1.8889,1.834,1.8319,1.8218,1.7664,1.8156,1.8816,1.9337,1.9548,1.987,2.0426,2.0865,2.0765,1.9874,2.0614,2.0941,2.0501,2.0891,2.1129,2.1129,2.1129,2.1242,2.1481,2.2147,2.2661,2.2962,2.3658,2.4054,2.4112,2.4112,2.4112,1.6562,1.6758,1.6631,1.623,1.5478,1.4609,1.3711,1.1895,1.0264,0.9758,0.9023,0.8564,0.8984,0.9727,1.0713,1.1976,0.0,1.3379,1.4668,1.5586,1.6465,1.7393,1.8174,1.897,1.9897,1.9505,1.9353,1.9758,2.01,2.0162,1.9841,2.0286,2.0741,2.1092,2.1176,2.1383,2.1797,2.1578,2.1512,2.1512,2.1051,2.0906,2.0906,2.0654,2.0566,2.0566,2.0566,2.0566,2.0566,2.0566,2.0566,2.0566,2.0566,2.0566,2.0566,2.0566,2.0566,2.0566,2.0566,2.0566,2.0566,2.0566,2.0566,2.0566,2.0644,2.0644,2.0654,2.0896,2.0559,2.0093,1.9988,1.9657,1.9387,1.9235,1.9198,1.9208,1.9131,1.9075,1.9075,1.9075,1.9075,1.8796,1.7936,1.8123,1.7999,1.6748,1.7384,1.8056,1.8219,1.8732,1.9263,1.9822,1.9924,1.9911,1.9811,1.9899,1.9936,1.9886,1.9924,1.9962,1.9962,1.9962,2.0439,2.1468,2.1599,2.223,2.3551,2.3603,2.3806,2.4112,2.4112,2.4112,1.5771,1.5937,1.5957,1.6045,1.5225,1.417,1.332,1.166,1.0088,0.9395,0.8574,0.8193,0.8877,0.9082,0.9639,0.0,0.0,0.0,1.3066,1.3984,1.5039,1.6426,1.7578,1.8783,2.0199,2.0129,2.0042,2.0182,2.0327,2.0348,2.0172,2.0855,2.1217,2.1114,2.1383,2.1487,2.1393,2.1445,2.1502,2.1502,2.1051,2.0906,2.0906,2.0654,2.0566,2.0566,2.0566,2.0566,2.0566,2.0566,2.0566,2.0566,2.0566,2.0566,2.0566,2.0566,2.0566,2.0566,2.0566,2.0566,2.0566,2.0566,2.0566,2.0566,2.0566,2.0566,2.0644,2.0731,2.0417,1.9984,1.979,1.9424,1.9032,1.8916,1.9008,1.9075,1.9075,1.9075,1.9075,1.9075,1.8847,1.8454,1.7843,1.7933,1.7803,1.7016,1.7835,1.8444,1.8127,1.8655,1.9093,1.9291,1.9604,1.9936,2.0288,2.0326,2.0326,2.0326,2.0326,2.0326,2.0326,2.0326,2.084,2.197,2.211,2.2616,2.345,2.37,2.3819,2.4008,2.4067,2.4112,1.4883,1.5039,1.5107,1.541,1.4717,1.373,1.2881,1.1445,1.0039,0.918,0.8289,0.7919,0.8682,0.8682,0.9043,0.0,0.0,1.101,1.2292,1.3214,1.4292,1.5891,1.715,1.8488,2.0121,2.0538,2.0696,2.0586,2.0627,2.069,2.0824,2.1455,2.159,2.1124,2.1424,2.1507,2.1321,2.149,2.1578,2.1578,2.1205,2.0984,2.0984,2.0731,2.0566,2.0566,2.0566,2.0566,2.0566,2.0566,2.0488,2.0391,2.0518,2.0488,2.0391,2.0518,2.0566,2.0566,2.0566,2.0478,2.0391,2.0518,2.0478,2.04,2.0527,2.0566,2.0566,2.0566,2.0166,1.9668,1.9614,1.9154,1.8674,1.8808,1.8942,1.9008,1.9075,1.9075,1.9075,1.9075,1.8806,1.8402,1.7833,1.7804,1.7653,1.703,1.782,1.8321,1.7875,1.8375,1.8709,1.8709,1.9373,2.0055,2.0627,2.0869,2.097,2.097,2.097,2.097,2.097,2.097,2.1355,2.2297,2.2438,2.2774,2.3403,2.3641,2.3909,2.4123,2.4242,2.4484,1.3916,1.4087,1.4087,1.4097,1.3828,1.3291,1.2385,1.1221,1.0039,0.918,0.8289,0.7832,0.8332,0.8721,0.9287,1.0146,0.0,0.0,1.2887,1.3757,1.4681,1.5756,1.6894,1.8105,1.942,2.0452,2.1114,2.1104,2.1104,2.1311,2.1766,2.1797,2.159,2.1124,2.1124,2.1342,2.1797,2.1807,2.1807,2.1807,2.1359,2.1205,2.1205,2.0809,2.0566,2.0566,2.0566,2.0566,2.0566,2.0566,2.0312,1.9961,2.0391,2.0303,1.9971,2.041,2.0566,2.0566,2.0566,2.0283,1.999,2.042,2.0273,2.0,2.0439,2.0566,2.0566,2.0566,1.9951,1.937,1.9535,1.8943,1.8405,1.8741,1.8808,1.8875,1.9075,1.9075,1.9075,1.9075,1.9131,1.8775,1.7885,1.7729,1.7419,1.6508,1.6899,1.7202,1.7202,1.7754,1.8093,1.8093,1.9116,2.0043,2.0665,2.1167,2.1481,2.1481,2.1481,2.1481,2.1481,2.1481,2.1744,2.2297,2.2309,2.2657,2.3403,2.3403,2.385,2.468,2.468,2.5413,1.2305,1.2598,1.2783,1.2783,1.25,1.2077,1.1518,1.0646,0.9708,0.8895,0.8248,0.798,0.8458,0.8378,0.8813,1.0479,0.0,0.0,1.2467,1.3451,1.4445,1.5396,1.7759,1.9738,2.0777,2.1275,2.159,2.159,2.159,2.1576,2.1568,2.1578,2.1449,2.1135,2.1424,2.1507,2.1331,2.1652,2.1807,2.1807,2.1359,2.1205,2.1205,2.0809,2.0566,2.0547,2.0254,2.0117,2.0098,1.9805,1.9609,1.9502,1.9639,1.9609,1.9502,1.9639,1.9697,1.9697,1.9697,1.96,1.9561,1.998,2.0029,2.0,2.0439,2.0566,2.0566,2.0566,2.0156,1.9648,1.9438,1.9071,1.8705,1.8474,1.8539,1.8684,1.8875,1.8875,1.8942,1.9075,1.8816,1.8413,1.7833,1.7754,1.7605,1.7041,1.7435,1.7644,1.7257,1.7368,1.7479,1.7479,1.8395,1.9472,2.0568,2.1492,2.2046,2.2046,2.2046,2.2221,2.2598,2.2611,2.3062,2.4004,2.3653,2.374,2.4356,2.409,2.4364,2.5275,2.5413,2.5879,1.103,1.1332,1.1547,1.1547,1.1332,1.1091,1.0666,1.0052,0.9372,0.8742,0.8239,0.7978,0.8289,0.8389,0.885,1.0131,1.0644,1.1277,1.2403,1.3587,1.4775,1.5948,1.8465,2.0278,2.0833,2.1432,2.1807,2.1807,2.1807,2.1731,2.1502,2.1502,2.1369,2.1169,2.1435,2.1445,2.1234,2.1511,2.1731,2.1807,2.1359,2.1125,2.0964,2.0562,2.0234,2.0078,1.9961,1.9824,0.0,1.957,1.9336,1.9053,1.9219,1.9189,1.9062,1.9228,1.9287,1.9287,1.9287,1.9287,1.9355,1.9775,2.0029,2.0215,2.0478,2.0566,2.0566,2.0566,2.0254,1.9814,1.9394,1.9027,1.8735,1.8378,1.8337,1.8482,1.8684,1.8684,1.8741,1.8875,1.8572,1.8173,1.7677,1.7567,1.7434,1.6963,1.7234,1.7335,1.6955,1.6888,1.6888,1.6888,1.7865,1.898,2.0169,2.1506,2.2315,2.2564,2.2623,2.2774,2.3065,2.3339,2.3791,2.4494,2.4381,2.4481,2.482,2.4874,2.5231,2.5756,2.6232,2.6661,0.0,1.029,1.0348,1.0281,1.0309,1.0276,0.9913,0.9467,0.0,0.8641,0.8218,0.7947,0.8007,0.8713,0.9318,0.951,1.0647,1.1817,1.2822,1.4123,1.5628,1.738,1.8885,1.9858,1.992,2.101,2.1766,2.1807,2.1807,2.1655,2.1512,2.1436,2.1359,2.1128,2.1098,2.1252,2.1502,2.1471,2.1603,2.1756,2.1278,2.0903,2.0511,2.0033,1.9658,1.9307,1.9668,1.96,1.9268,1.9629,1.9307,1.8633,1.9043,1.8945,1.8643,1.9043,1.9199,1.9199,1.9199,1.9219,1.9316,1.9766,2.0215,2.0566,2.0566,2.0566,2.0566,2.0566,2.0273,1.9863,1.9443,1.9014,1.8574,1.835,1.8289,1.8337,1.8482,1.8482,1.8472,1.8442,1.8289,1.7981,1.7512,1.7205,1.6832,1.6446,1.6384,1.6384,1.6384,1.6384,1.6384,1.6384,1.7384,1.848,1.9586,2.1151,2.2323,2.3078,2.3078,2.309,2.3128,2.3715,2.4017,2.4054,2.4594,2.487,2.487,2.5764,2.6242,2.6255,2.7089,2.7456,0.8572,0.0,0.9031,0.9041,0.9031,0.9043,0.0,0.8884,0.8714,0.8376,0.8202,0.8335,0.8992,0.9055,0.9617,1.1561,1.2269,1.296,1.4174,1.5581,1.6915,1.8029,1.9137,2.0027,2.0731,2.0946,2.121,2.1558,2.1436,2.1282,2.1061,2.1061,2.0974,2.0731,2.0397,2.0615,2.1502,2.1305,2.1205,2.1269,2.0571,2.0149,2.0048,1.9663,1.9375,1.9277,1.9043,1.8877,1.8769,1.8545,1.834,1.8164,1.8271,1.8252,1.8164,1.8271,1.8311,1.8311,1.8311,1.8525,1.8916,1.9668,2.0215,2.0566,2.0566,2.0566,2.0566,2.0566,2.0498,2.0312,1.9883,1.9453,1.9023,1.8664,1.8311,1.8144,1.8337,1.8347,1.8305,1.8087,1.8066,1.7879,1.7093,1.6989,1.6832,1.6446,1.6384,1.6384,1.6384,1.6384,1.6384,1.6384,1.6953,1.76,1.8458,2.0358,2.1982,2.304,2.3078,2.3339,2.3778,2.3929,2.4192,2.4619,2.5146,2.541,2.541,2.619,2.6671,2.6819,2.7149,2.7403,0.7821,0.8418,0.8999,0.8957,0.8999,0.9009,0.9052,0.0,0.0,0.0,0.0,0.8653,0.9149,0.9553,1.0334,1.1921,1.2754,1.382,1.5571,1.6698,1.7698,1.8589,1.9323,2.0024,2.0441,2.0545,2.0624,2.0869,2.0943,2.0827,2.0579,2.0787,2.0819,2.0644,2.0419,2.0549,2.1045,2.0673,2.0595,2.0793,2.0267,1.9848,1.9585,1.928,1.8948,1.8701,1.8652,1.8525,1.835,1.8311,1.8184,1.8008,1.8008,1.8008,1.8008,1.8008,1.8008,1.8037,1.8232,1.8701,1.9336,2.0,2.0371,2.0566,2.0566,2.0566,2.0566,2.0566,2.0566,2.042,1.9785,1.9453,1.9131,1.8496,1.8174,1.7959,1.7898,1.7915,1.7787,1.7407,1.7286,1.7111,1.6638,1.6565,1.6526,1.629,1.6316,1.6384,1.6384,1.6384,1.6384,1.6384,1.6591,1.7101,1.8049,1.9374,2.0819,2.2295,2.2554,2.296,2.359,2.3853,2.4368,2.5159,2.5448,2.5724,2.5988,2.6506,2.6794,2.7024,2.7214,2.7403,0.7771,0.8763,0.9638,0.9383,0.9466,0.9602,0.953,0.0,0.0,0.0,0.0,0.0,0.9296,1.0298,1.1323,1.1892,1.3082,1.4656,1.6688,1.7379,1.804,1.8868,1.9443,1.9686,1.9758,1.9909,2.0094,2.0093,2.0313,2.0292,2.0039,2.0414,2.0544,2.0448,2.0476,2.0496,2.0266,2.0038,2.0053,2.0327,2.0113,1.9817,1.932,1.9152,1.8813,1.8221,1.8518,1.8399,1.8037,1.8389,1.833,1.8008,1.8008,1.8008,1.8008,1.8008,1.8008,1.8076,1.8564,1.9248,1.999,2.042,2.0566,2.0566,2.0566,2.0566,2.0566,2.0566,2.0566,2.04,1.9668,1.9385,1.9102,1.8379,1.8057,1.7832,1.7539,1.7373,1.7178,1.6807,1.6501,1.6287,1.6227,1.6135,1.6056,1.6114,1.6249,1.6374,1.6384,1.6384,1.6384,1.6384,1.6384,1.6806,1.7756,1.8213,1.9164,2.0938,2.1716,2.2433,2.3078,2.3602,2.433,2.5335,2.5347,2.5674,2.6327,2.6451,2.6705,2.7024,2.7146,2.7335,0.9052,1.0105,1.0407,0.9255,0.953,0.9994,0.9602,0.0,0.0,0.0,0.0,0.0,0.0,1.1695,1.2505,1.3683,1.4718,1.5763,1.6822,1.7379,1.7916,1.8423,1.8889,1.9334,1.952,1.9413,1.9475,1.9693,1.9565,1.9458,1.9458,1.9527,1.9566,1.9482,1.9131,1.913,1.9425,1.9859,2.0032,1.9862,1.9853,1.9831,1.969,1.9998,1.9692,1.911,1.8983,1.859,1.8018,1.8076,1.8066,1.8008,1.8008,1.8008,1.8008,1.8008,1.8008,1.8115,1.8916,1.9502,1.999,2.042,2.0566,2.0566,2.0566,2.0566,2.0566,2.0566,2.0566,2.0537,2.04,1.9834,1.9258,1.9121,1.8262,1.7559,1.7852,1.7344,1.6816,1.6685,1.6501,1.6198,1.5841,1.5896,1.5961,1.6056,1.6114,1.6181,1.6374,1.6384,1.6384,1.6384,1.6384,1.6462,1.6639,1.7057,1.7796,1.9021,2.1014,2.2433,2.3078,2.3165,2.3577,2.423,2.4243,2.4732,2.5724,2.5791,2.619,2.7024,2.7024,2.7214,0.8262,0.9374,1.0198,1.0254,1.0995,1.1651,1.1426,0.0,0.0,0.0,0.0,0.0,0.0,1.2562,1.3445,1.4831,1.5618,1.6374,1.7234,1.7533,1.7925,1.8541,1.8808,1.8957,1.8968,1.8783,1.8794,1.8924,1.8941,1.8936,1.8936,1.916,1.936,1.9452,1.9256,1.9181,1.9363,1.9626,1.9633,1.9453,1.9822,1.9911,1.977,1.989,1.9694,1.9299,1.8721,1.8269,1.8008,1.8008,1.8008,1.8008,1.8008,1.8008,1.8037,1.8262,1.8496,1.8789,1.9414,1.9912,2.0303,2.0498,2.0566,2.0566,2.0566,2.0566,2.0566,2.0566,2.0566,2.0508,2.0273,1.9756,1.9228,1.8994,1.8311,1.7646,1.7383,1.7012,1.6592,1.6113,1.5909,1.5772,1.5576,1.5672,1.5856,1.5961,1.6066,1.6181,1.6374,1.6384,1.6384,1.6384,1.6384,1.6545,1.6786,1.7211,1.7965,1.8993,2.0637,2.1865,2.2555,2.2555,2.301,2.3991,2.4004,2.4393,2.5172,2.546,2.587,2.6429,2.6803,2.7146,0.7935,0.8919,0.9972,1.1449,0.0,1.2833,1.3259,1.2319,0.0,0.0,0.0,0.0,1.2657,1.3468,1.448,1.5659,1.6146,1.6595,1.7389,1.7441,1.7718,1.8476,1.8578,1.8562,1.8462,1.8337,1.8269,1.8202,1.838,1.8486,1.8486,1.8809,1.9066,1.929,1.93,1.9344,1.9339,1.9328,1.9291,1.9131,1.9781,2.0096,2.0096,1.9966,1.9824,1.9617,1.8721,1.8202,1.8076,1.8008,1.8008,1.8008,1.8008,1.8076,1.8213,1.8633,1.9062,1.9482,1.9805,2.0195,2.0566,2.0566,2.0566,2.0566,2.0566,2.0566,2.0566,2.0566,2.0566,2.0488,2.0156,1.9678,1.9209,1.8867,1.8242,1.7559,1.7002,1.6641,1.625,1.5674,1.5488,1.541,1.541,1.5546,1.5672,1.5856,1.6019,1.6124,1.6374,1.6384,1.6431,1.6591,1.6591,1.6797,1.7368,1.7796,1.8456,1.9393,2.0768,2.1862,2.2492,2.2676,2.3145,2.3991,2.4004,2.4268,2.482,2.5222,2.5618,2.5981,2.6688,2.7146,0.9676,1.003,1.0156,1.2498,1.2532,0.0,1.4032,1.351,0.0,1.3913,0.0,0.0,1.3949,1.4842,1.5711,1.6239,1.6228,1.6287,1.6777,1.6778,1.6981,1.787,1.7971,1.8077,1.8297,1.8337,1.8202,1.8008,1.8037,1.8057,1.8057,1.8086,1.8174,1.8368,1.8368,1.8552,1.8859,1.8859,1.8906,1.9131,1.9781,2.042,2.0996,2.0892,2.0741,2.0632,1.9617,1.8854,1.8269,1.8076,1.8008,1.8008,1.8008,1.8252,1.8643,1.9082,1.9512,1.9873,1.9902,2.0195,2.0566,2.0566,2.0566,2.0566,2.0566,2.0566,2.0566,2.0566,2.0566,2.0557,2.0527,1.9912,1.9277,1.9248,1.8008,1.6924,1.7266,1.6377,1.5605,1.5947,1.5693,1.541,1.541,1.541,1.5536,1.5856,1.5914,1.6029,1.6374,1.6384,1.6581,1.7101,1.7146,1.7368,1.7984,1.8249,1.8728,1.9524,2.168,2.3255,2.3841,2.4367,2.4405,2.4004,2.4004,2.4268,2.482,2.4858,2.5342,2.6191,2.6755,2.7146,0.8692,0.9504,1.0351,1.2634,1.3224,0.0,0.0,1.4428,1.4799,1.5007,1.5038,0.0,1.4922,1.526,1.5649,1.6167,1.6066,1.6113,1.6607,1.6608,1.6769,1.7266,1.7336,1.7342,1.7327,1.7282,1.7282,1.7217,1.7217,1.7334,1.7607,1.7627,1.7878,1.8405,1.8414,1.8808,1.9584,1.9584,1.9846,2.0355,2.0613,2.0613,2.0484,2.073,2.059,2.0161,1.9401,1.8932,1.8686,1.8762,1.8809,1.8809,1.8809,1.8906,1.9092,1.9521,1.9775,1.9951,2.0225,2.043,2.0566,2.0566,2.0566,2.0518,2.0244,2.0156,2.0156,2.0156,2.0156,2.0225,2.0498,1.9932,1.9287,1.9287,1.8184,1.7109,1.7002,1.6367,1.5781,1.5684,1.5527,1.541,1.541,1.541,1.5536,1.5856,1.5914,1.6029,1.6384,1.6384,1.6591,1.7146,1.7765,1.8147,1.8093,1.8814,1.9396,1.9703,2.2189,2.3563,2.3413,2.3597,2.3961,2.4506,2.3816,2.374,2.4305,2.4772,2.5179,2.5524,2.6642,2.7268,0.8499,0.9466,1.0608,0.0,0.0,0.0,1.4281,1.5062,1.5714,1.5663,1.5659,1.5656,1.5593,1.5599,1.57,1.6016,1.5904,1.5956,1.6247,1.6277,1.6317,1.6651,1.67,1.6697,1.6719,1.6665,1.6665,1.6665,1.6665,1.6865,1.7168,1.7178,1.7435,1.8061,1.8071,1.851,1.934,1.9673,2.0059,2.0516,2.1055,2.0996,2.042,2.0694,2.0565,2.0094,1.9481,1.9203,1.9222,1.9315,1.9287,1.9297,1.9434,1.9482,1.9541,1.9961,2.0269,2.0536,2.0834,2.1021,2.0914,2.0775,2.0582,2.0283,1.9853,1.9814,1.9883,1.9756,1.9814,1.9951,2.0117,1.9824,1.9482,1.9482,1.8408,1.7305,1.7002,1.6367,1.5762,1.5469,1.541,1.541,1.541,1.541,1.5478,1.5798,1.5856,1.5972,1.6249,1.6316,1.6581,1.7379,1.8417,1.8963,1.8685,1.9371,1.9798,1.9798,2.1577,2.3001,2.3729,2.3643,2.3799,2.4217,2.3715,2.3514,2.3728,2.4646,2.5116,2.5205,2.6606,2.7335,0.9604,1.0295,1.0969,0.0,0.0,0.0,1.5025,1.5324,1.5532,1.586,1.591,1.5914,1.5914,1.6009,1.6066,1.5914,1.5798,1.573,1.5672,1.5536,1.5576,1.6066,1.6115,1.623,1.668,1.6719,1.6719,1.6719,1.6719,1.6719,1.6665,1.6665,1.6855,1.7169,1.7169,1.7357,1.7668,1.8835,1.9312,1.9208,2.0996,2.1628,2.1083,2.0864,2.0817,2.0714,2.0174,1.9887,1.9887,1.9442,1.9297,1.9336,1.9756,1.9922,1.9971,2.041,2.1088,2.1832,2.1756,2.1832,2.1759,2.1217,2.0555,1.9834,1.9404,1.957,1.9814,1.9404,1.958,1.9805,1.9394,1.96,1.9902,1.9902,1.8613,1.7373,1.7373,1.6338,1.541,1.541,1.541,1.541,1.541,1.541,1.5478,1.5672,1.5672,1.5788,1.6056,1.6066,1.657,1.7929,1.9109,1.9798,1.9798,1.9798,1.9798,1.9798,1.9798,2.1455,2.5184,2.4983,2.428,2.3103,2.369,2.3703,2.3078,2.4444,2.518,2.532,2.6672,2.7403,0.8688,1.0031,0.0,1.2685,0.0,0.0,0.0,1.6527,0.0,0.0,1.7125,1.6729,1.6899,1.6684,1.6457,1.641,1.6616,1.6482,1.5594,1.5806,1.5904,1.5645,1.5605,1.5654,1.5791,1.5801,1.5801,1.5801,1.5801,1.5937,1.625,1.626,1.653,1.7034,1.7169,1.7533,1.8262,1.8574,1.9177,2.0016,2.0035,2.0065,2.0053,2.0586,2.026,1.9168,1.9353,1.9334,1.9232,1.9556,1.9727,1.9775,2.0205,2.0371,2.0391,2.0518,2.1088,2.1714,2.1393,2.1576,2.1932,2.0886,2.038,2.002,1.9098,1.8916,1.8994,1.8867,1.8916,1.9053,1.9238,1.9375,1.9394,1.9092,1.7949,1.6924,1.6924,1.6123,1.541,1.541,1.541,1.541,1.541,1.541,1.5468,1.5642,1.57,1.5826,1.6249,1.6316,1.642,1.6864,1.8632,1.9798,1.9798,1.9798,1.9798,1.9798,1.9798,2.0765,2.2937,2.305,2.3075,2.3078,2.2535,2.2535,2.3078,2.4162,2.491,2.532,2.6791,2.7469,0.9428,1.0897,0.0,1.3885,1.5231,1.6389,1.686,0.0,1.7436,1.789,1.7501,1.7224,1.7379,1.7112,1.6899,1.6842,1.7045,1.6922,1.6197,1.6197,1.6197,1.5806,1.5526,1.541,1.541,1.541,1.541,1.541,1.541,1.5527,1.5791,1.5801,1.6058,1.6445,1.6587,1.694,1.7518,1.7997,1.8559,1.931,1.9211,1.9083,1.8923,1.9746,1.9544,1.858,1.9133,1.9252,1.9069,1.9527,1.9668,1.9697,1.9951,2.0166,2.0379,2.0675,2.1159,2.1618,2.1632,2.1642,2.1515,2.0343,1.9729,1.9346,1.8419,1.8252,1.8389,1.8389,1.8506,1.8623,1.8555,1.8535,1.8545,1.8623,1.7793,1.6943,1.6768,1.6035,1.541,1.541,1.541,1.541,1.541,1.541,1.5468,1.5575,1.5575,1.57,1.5951,1.6259,1.6384,1.6384,1.7611,1.8845,1.9695,1.9798,1.9798,1.9798,1.9798,2.0213,2.1117,2.1694,2.2071,2.2201,2.1606,2.1669,2.2485,2.3768,2.4681,2.532,2.6738,2.7469,1.1026,1.2278,1.3523,1.5203,1.5947,1.6651,1.7918,1.7497,1.6957,1.7456,1.749,1.7501,1.7556,1.749,1.7435,1.7313,1.7313,1.7313,1.7202,1.6754,1.6415,1.6358,1.5921,1.5526,1.5468,1.5517,1.5526,1.5468,1.5517,1.5575,1.5575,1.5575,1.5642,1.573,1.5914,1.6019,1.6056,1.7096,1.7599,1.7562,1.8327,1.8343,1.7667,1.8532,1.8731,1.8459,1.9053,1.9268,1.9062,1.9141,1.915,1.9121,1.9199,1.9443,1.9811,2.0604,2.1058,2.1396,2.2117,2.177,2.0796,1.9714,1.8881,1.8212,1.751,1.7654,1.7958,1.7891,1.8164,1.8291,1.7529,1.7324,1.751,1.8232,1.7822,1.7158,1.6758,1.6006,1.541,1.541,1.541,1.541,1.541,1.541,1.541,1.541,1.541,1.541,1.5468,1.6019,1.6384,1.6384,1.6384,1.7245,1.9319,1.9695,1.9695,1.9488,1.9695,1.9798,1.9798,2.079,2.1179,2.0799,2.0861,2.1087,2.1543,2.333,2.4631,2.5409,2.6698,2.7403,1.0044,1.1399,0.0,1.4536,1.6126,1.7436,1.8087,1.8362,1.8525,1.8632,1.8387,1.8224,1.8602,1.8267,1.7929,1.7929,1.8309,1.8267,1.7313,1.7479,1.7534,1.709,1.6866,1.6641,1.614,1.6528,1.6641,1.614,1.6528,1.681,1.681,1.681,1.6652,1.6208,1.6343,1.6296,1.5961,1.6052,1.644,1.6967,1.6454,1.6321,1.6632,1.7704,1.7895,1.7322,1.7327,1.7285,1.7334,1.8008,1.8086,1.7852,1.8516,1.8633,1.8487,1.9158,1.9832,2.0424,2.0628,2.0671,2.0408,1.9238,1.8718,1.8411,1.7183,1.7243,1.7567,1.713,1.7006,1.71,1.6924,1.6875,1.6826,1.666,1.6484,1.6318,1.623,1.5781,1.541,1.541,1.541,1.541,1.541,1.541,1.541,1.541,1.541,1.5594,1.6134,1.6316,1.6384,1.6384,1.6384,1.6602,1.7078,1.8792,1.9056,1.7234,1.8792,1.9798,1.9798,2.0037,2.0125,2.0049,2.0586,2.1212,2.192,2.3457,2.4848,2.6012,2.6891,2.7403,1.0345,0.0,0.0,1.5286,0.0,1.7387,1.8075,1.8422,1.8686,1.8939,1.8827,1.8721,1.8934,1.8762,1.8536,1.8536,1.8762,1.8762,1.8147,1.8093,1.7984,1.7644,1.7368,1.709,1.6754,1.7034,1.709,1.6754,1.7034,1.709,1.6754,1.6754,1.6472,1.5911,1.6056,1.6077,1.5798,1.573,1.5904,1.6249,1.571,1.5575,1.5884,1.6748,1.7063,1.7022,1.7059,1.7159,1.7189,1.765,1.7516,1.7119,1.7869,1.8105,1.8294,1.9243,1.9668,1.9761,1.9943,1.9889,1.9609,1.8344,1.7977,1.7846,1.7063,1.6828,1.6878,1.6733,1.6665,1.668,1.6465,1.6465,1.6387,1.5869,1.5908,1.6066,1.5791,1.5566,1.541,1.541,1.541,1.541,1.541,1.541,1.541,1.541,1.5652,1.6019,1.6374,1.6384,1.6384,1.6384,1.6384,1.6384,1.6384,1.7512,1.7667,1.6488,1.8525,1.9798,1.9798,1.9798,1.9965,2.0233,2.0461,2.1154,2.2401,2.3412,2.4707,2.6297,2.7009,2.7403,1.0608,0.0,1.3864,1.6114,1.6761,1.6987,1.7724,1.8001,1.8217,1.8746,1.8927,1.8987,1.8987,1.8987,1.8987,1.8987,1.8987,1.8987,1.8987,1.8548,1.8267,1.8267,1.7809,1.7479,1.7368,1.7479,1.7479,1.7368,1.7368,1.7146,1.6641,1.6585,1.6312,1.5575,1.5826,1.5894,1.5672,1.5672,1.5672,1.5672,1.5478,1.541,1.542,1.5781,1.6297,1.6901,1.7234,1.746,1.7521,1.7492,1.7236,1.6805,1.7308,1.7771,1.8281,1.9493,1.9604,1.9192,1.9495,1.9277,1.8655,1.7534,1.7202,1.7166,1.6825,1.6476,1.6207,1.6396,1.6504,1.6416,1.6045,1.6035,1.6016,1.5527,1.5693,1.585,1.5488,1.541,1.541,1.541,1.541,1.541,1.541,1.541,1.541,1.5536,1.6019,1.6384,1.6384,1.6384,1.6384,1.6384,1.6384,1.6384,1.6384,1.6751,1.6976,1.6976,1.8738,1.9798,1.9798,1.9798,2.0067,2.0599,2.0463,2.1192,2.2936,2.3398,2.4497,2.6246,2.6841,2.7193,0.9077,0.0,1.4088,0.0,1.6154,1.6781,1.6798,1.7195,1.7664,1.8205,1.8674,1.8987,1.8987,1.8987,1.8987,1.8987,1.8987,1.8987,1.8987,1.8934,1.8881,1.8881,1.8827,1.8536,1.8038,1.8429,1.8536,1.8038,1.7984,1.7918,1.7875,1.7875,1.7368,1.6197,1.6698,1.6606,1.573,1.5546,1.5546,1.5672,1.5478,1.541,1.541,1.5469,1.5838,1.6405,1.6467,1.6774,1.7262,1.7158,1.7084,1.7159,1.711,1.7174,1.744,1.8114,1.8357,1.8354,1.8922,1.872,1.8093,1.7424,1.7202,1.6989,1.5934,1.5944,1.6185,1.5684,1.5586,1.5576,1.5508,1.5508,1.5508,1.543,1.5459,1.5488,1.542,1.541,1.541,1.541,1.541,1.541,1.541,1.541,1.5594,1.6192,1.6316,1.6384,1.6384,1.6384,1.6384,1.6384,1.6384,1.6384,1.6384,1.8201,1.9319,1.9319,1.9643,1.9798,1.9798,1.9798,1.9965,2.0283,2.0768,2.1907,2.3572,2.359,2.4304,2.56,2.6259,2.6596,0.9853,1.1604,1.3227,0.0,1.5508,1.5929,1.6498,1.6763,1.7123,1.7652,1.7941,1.8289,1.8879,1.8987,1.8987,1.8987,1.8987,1.8987,1.8987,1.8987,1.8987,1.8987,1.8987,1.8881,1.8655,1.8815,1.8881,1.8602,1.859,1.8483,1.8093,1.7754,1.7202,1.6301,1.6255,1.5979,1.5546,1.542,1.542,1.5536,1.5748,1.5911,1.5921,1.6244,1.6358,1.6312,1.6312,1.6641,1.7224,1.7148,1.7173,1.7224,1.7487,1.7668,1.7765,1.8375,1.859,1.859,1.8536,1.8536,1.8429,1.7479,1.7424,1.7534,1.6698,1.6358,1.6255,1.5968,1.5633,1.541,1.541,1.541,1.541,1.541,1.541,1.541,1.541,1.541,1.541,1.541,1.541,1.541,1.541,1.571,1.6077,1.6374,1.6384,1.6384,1.6384,1.6384,1.6384,1.6384,1.7556,1.8309,1.8309,1.9214,1.9798,1.9798,1.9798,1.9798,1.9798,1.9798,1.9914,2.0182,2.0566,2.148,2.295,2.292,2.3729,2.5218,2.5478,2.6009,0.0,0.0,1.1879,1.3885,1.4619,1.5079,1.5972,1.6284,1.6536,1.7111,1.7219,1.7496,1.8422,1.8698,1.8831,1.8963,1.8987,1.8987,1.8987,1.8987,1.8987,1.8987,1.8987,1.8987,1.8987,1.8987,1.8987,1.8987,1.8881,1.859,1.8147,1.7534,1.6922,1.6312,1.5853,1.5584,1.541,1.541,1.5468,1.5633,1.6083,1.6312,1.6312,1.6922,1.6978,1.6528,1.6698,1.709,1.7644,1.7479,1.7534,1.771,1.7984,1.8201,1.8375,1.8815,1.8987,1.8934,1.8483,1.8602,1.8827,1.7754,1.7754,1.7984,1.7368,1.681,1.6368,1.6368,1.5911,1.541,1.541,1.541,1.541,1.541,1.541,1.541,1.541,1.541,1.541,1.541,1.5536,1.5652,1.5652,1.6077,1.6384,1.6384,1.6384,1.6384,1.6384,1.6384,1.6384,1.6384,1.8417,1.9798,1.9798,1.9798,1.9798,1.9798,1.9798,1.9798,1.9798,1.9798,1.9965,2.0233,2.0309,2.094,2.2139,2.2165,2.291,2.4367,2.4609,2.521,0.0,0.8985,0.0,1.1705,1.324,1.455,1.4995,1.548,1.5984,1.6512,1.662,1.6787,1.7388,1.7905,1.841,1.8915,1.8987,1.8987,1.8987,1.8987,1.8987,1.8987,1.8987,1.8987,1.8987,1.8987,1.8987,1.8987,1.8483,1.8147,1.8093,1.7534,1.6922,1.6312,1.6255,1.5968,1.541,1.541,1.569,1.6244,1.6301,1.6312,1.6312,1.6922,1.7202,1.7202,1.7765,1.8375,1.8881,1.8309,1.8375,1.8881,1.8321,1.8429,1.8934,1.8987,1.8987,1.8987,1.8987,1.8987,1.8881,1.8255,1.8093,1.7984,1.7368,1.6922,1.6585,1.6585,1.6026,1.541,1.541,1.541,1.541,1.541,1.541,1.541,1.541,1.541,1.541,1.541,1.5894,1.6327,1.6327,1.6374,1.6384,1.6384,1.6384,1.6384,1.6384,1.6384,1.6384,1.6384,1.8417,1.9798,1.9798,1.9798,1.9798,1.9798,1.9798,1.9798,1.9798,1.9798,1.9978,2.036,2.0296,2.063,2.1564,2.1564,2.189,2.2572,2.3642,2.4191,0.8026,0.0,0.0,1.1064,1.2183,1.3023,1.3828,1.4706,1.5348,1.5528,1.584,1.6236,1.681,1.7339,1.7869,1.8398,1.8482,1.8602,1.8939,1.8987,1.8987,1.8987,1.8987,1.8987,1.8987,1.8987,1.8987,1.8987,1.8815,1.8655,1.8655,1.8093,1.7479,1.6922,1.6472,1.6026,1.541,1.5796,1.6083,1.6301,1.709,1.7479,1.7479,1.8093,1.8375,1.8375,1.8602,1.8602,1.8429,1.8201,1.8483,1.8987,1.8762,1.8827,1.8987,1.8987,1.8987,1.8987,1.8987,1.8987,1.8881,1.8321,1.8375,1.8548,1.782,1.7479,1.7313,1.709,1.6197,1.5526,1.6026,1.5806,1.541,1.541,1.541,1.541,1.541,1.5594,1.572,1.5584,1.6009,1.6384,1.6384,1.6384,1.6384,1.6384,1.6384,1.6384,1.6384,1.6384,1.6384,1.6384,1.8417,1.9798,1.9798,1.9798,1.9798,1.9798,1.9798,1.9798,1.9798,1.9798,1.9965,2.0373,2.0246,2.0437,2.1013,2.1013,2.125,2.1838,2.2622,2.3393,0.7675,0.0,0.0,1.0248,1.1076,1.1724,1.318,1.4009,1.4581,1.4929,1.5277,1.5696,1.6212,1.6596,1.7111,1.782,1.7941,1.8061,1.841,1.8458,1.8458,1.8458,1.8614,1.8722,1.8722,1.8891,1.8987,1.8987,1.8987,1.8934,1.8709,1.8147,1.7424,1.6641,1.6415,1.6187,1.6026,1.6415,1.6698,1.6922,1.771,1.8093,1.8093,1.8709,1.8987,1.8987,1.8987,1.8762,1.8375,1.8375,1.8655,1.8987,1.8987,1.8987,1.8987,1.8987,1.8987,1.8987,1.8987,1.8987,1.8934,1.8536,1.8655,1.8881,1.8375,1.8201,1.8038,1.7368,1.6922,1.6754,1.7257,1.6415,1.541,1.541,1.541,1.541,1.5478,1.5604,1.573,1.5768,1.5941,1.6134,1.6374,1.6384,1.6384,1.6384,1.6384,1.6384,1.6384,1.6384,1.6384,1.6384,1.8417,1.9798,1.9798,1.9798,1.9798,1.9798,1.9798,1.9798,1.9798,1.9798,1.9965,2.0309,2.0246,2.0334,2.0699,2.0699,2.0895,2.1237,2.2021,2.3132,0.0,0.0,0.0,0.9105,0.9848,1.0774,1.2902,1.3409,1.3734,1.4713,1.4941,1.5121,1.5648,1.5768,1.6104,1.7183,1.7376,1.74,1.7412,1.7412,1.7412,1.7412,1.7869,1.8181,1.8181,1.865,1.8939,1.8939,1.8939,1.8727,1.8124,1.7523,1.6641,1.5468,1.6026,1.6585,1.7146,1.7202,1.7534,1.8093,1.8093,1.8147,1.8147,1.8709,1.8987,1.8987,1.8987,1.8987,1.8987,1.8987,1.8987,1.8987,1.8987,1.8987,1.8987,1.8987,1.8987,1.8987,1.8987,1.8987,1.8987,1.8987,1.8987,1.8987,1.8987,1.8987,1.8762,1.7534,1.8038,1.8881,1.8881,1.7146,1.541,1.541,1.541,1.5478,1.573,1.5594,1.5536,1.5894,1.571,1.5652,1.6316,1.6384,1.6384,1.6384,1.6384,1.6384,1.6384,1.6384,1.6384,1.6384,1.8417,1.9798,1.9798,1.9798,1.9798,1.9798,1.9798,1.9798,1.9798,1.9798,1.9914,2.0182,2.0182,2.0385,2.0699,2.0699,2.0699,2.0738,2.1851,2.3367,0.7294,0.0,0.0,0.0,0.0,0.0,1.0509,1.132,1.2049,1.3119,1.3636,1.4069,1.4639,1.5007,1.5325,1.5612,1.6296,1.6979,1.7364,1.7412,1.7412,1.7412,1.7544,1.7628,1.7628,1.776,1.7845,1.7845,1.7845,1.7963,1.818,1.7562,1.7034,1.6698,1.6415,1.6368,1.6528,1.7424,1.7929,1.8093,1.8548,1.8762,1.8762,1.8934,1.8987,1.8987,1.8987,1.8987,1.8987,1.8987,1.8987,1.8987,1.8987,1.8987,1.8987,1.8987,1.8987,1.8987,1.8987,1.8987,1.8987,1.8987,1.8987,1.8987,1.8987,1.8987,1.8762,1.7534,1.681,1.6425,1.6425,1.6197,1.5911,1.5526,1.541,1.569,1.681,1.6197,1.5526,1.5999,1.6124,1.6192,1.6384,1.6384,1.6384,1.6384,1.6384,1.6384,1.6384,1.6384,1.6384,1.6384,1.8417,1.9798,1.9798,1.9798,1.9798,1.9798,1.9798,1.9798,1.9798,1.9862,1.9978,2.0131,2.0296,2.0498,2.0699,2.0699,2.0699,2.0725,2.1551,2.2387,0.8156,0.0,0.0,0.879,0.0,0.0,1.0152,1.0465,1.0798,1.2118,1.2625,1.3071,1.3819,1.4177,1.4497,1.4929,1.5528,1.6104,1.6678,1.6715,1.6715,1.6715,1.6955,1.7087,1.7087,1.7291,1.7412,1.7412,1.7216,1.7038,1.6962,1.6763,1.6643,1.6643,1.6937,1.7034,1.7034,1.7984,1.8483,1.8483,1.8815,1.8987,1.8987,1.8987,1.8987,1.8987,1.8987,1.8987,1.8987,1.8987,1.8987,1.8987,1.8987,1.8987,1.8987,1.8987,1.8987,1.8987,1.8987,1.8987,1.8987,1.8987,1.8987,1.8987,1.8987,1.8987,1.8881,1.8147,1.709,1.6083,1.5911,1.6312,1.6528,1.6026,1.5633,1.569,1.6652,1.6332,1.5836,1.6009,1.6192,1.6384,1.6384,1.719,1.7512,1.6545,1.6384,1.6384,1.6384,1.6384,1.6751,1.7722,1.9004,1.9798,1.9798,1.9798,1.9798,1.9798,1.9798,1.9798,1.9798,1.9926,2.0093,2.0195,2.041,2.0562,2.0699,2.0699,2.0699,2.0712,2.1157,2.1956,0.0,0.0,0.0,1.0023,0.939,0.0,1.0815,1.034,0.9948,1.1359,1.1696,1.2046,1.3047,1.3288,1.36,1.4497,1.4761,1.5061,1.5696,1.5792,1.5792,1.5792,1.6212,1.6488,1.6488,1.6967,1.7243,1.7243,1.6891,1.6321,1.5399,1.5754,1.5956,1.5956,1.7319,1.8012,1.8012,1.8673,1.8987,1.8987,1.8987,1.8987,1.8987,1.8987,1.8987,1.8987,1.8987,1.8987,1.8987,1.8987,1.8987,1.8987,1.8987,1.8987,1.8987,1.8987,1.8987,1.8987,1.8987,1.8987,1.8987,1.8987,1.8987,1.8987,1.8987,1.8987,1.8987,1.8987,1.8201,1.7202,1.681,1.6922,1.709,1.6754,1.6026,1.5584,1.6171,1.6581,1.6591,1.6087,1.6202,1.6384,1.6384,1.8309,1.9109,1.7078,1.6751,1.6751,1.6751,1.6751,1.7556,1.9592,1.9798,1.9798,1.9798,1.9798,1.9798,1.9798,1.9798,1.9798,1.9798,1.9926,2.0144,2.0423,2.0461,2.0562,2.0699,2.0699,2.0699,2.0699,2.0699,2.176,0.9506,0.9954,1.0507,0.9689,0.9911,0.0,0.9542,0.9658,0.9967,1.017,1.042,1.081,1.1447,1.1904,1.2299,1.247,1.3215,1.4249,1.56,1.5792,1.5792,1.5792,1.5888,1.5948,1.5948,1.6032,1.6104,1.6104,1.6441,1.6539,1.6338,1.6364,1.6384,1.6384,1.7065,1.7443,1.7443,1.8495,1.8987,1.8987,1.8987,1.8987,1.8987,1.8987,1.8987,1.8987,1.8987,1.8987,1.8987,1.8987,1.8987,1.8987,1.8987,1.8987,1.8987,1.8987,1.8987,1.8987,1.8987,1.8987,1.8987,1.8987,1.8987,1.8987,1.8987,1.8987,1.8987,1.8987,1.8483,1.7863,1.7644,1.7146,1.681,1.7302,1.6358,1.6073,1.8489,1.9097,1.8566,1.6637,1.6384,1.6384,1.6384,1.8309,1.9643,1.9214,1.9162,1.9162,1.9162,1.9162,1.9319,1.9747,1.9798,1.9798,1.9798,1.9798,1.9798,1.9798,1.9798,1.9798,1.9798,2.0016,2.0283,2.0662,2.0662,2.0662,2.0699,2.0699,2.0699,2.0699,2.0699,2.0948,1.0447,1.0644,1.1015,1.0728,1.05,0.0,0.0,0.9795,0.9692,1.0194,1.0089,1.0205,1.1173,1.121,1.1267,1.1796,1.2589,1.3385,1.4153,1.4706,1.5043,1.5043,1.5241,1.5396,1.5396,1.5636,1.5703,1.548,1.5761,1.581,1.5568,1.6005,1.6282,1.6282,1.6965,1.7463,1.7772,1.8303,1.8734,1.8987,1.8987,1.8987,1.8987,1.8987,1.8987,1.8987,1.8987,1.8987,1.8987,1.8987,1.8987,1.8987,1.8987,1.8987,1.8987,1.8987,1.8987,1.8987,1.8987,1.8987,1.8987,1.8987,1.8987,1.8987,1.8987,1.8987,1.8934,1.8655,1.8536,1.8429,1.7929,1.7809,1.7863,1.8201,1.7961,1.7993,1.9463,1.9798,1.9475,1.8309,1.8093,1.8093,1.8093,1.9056,1.9798,1.9798,1.9798,1.9798,1.9798,1.9798,1.9798,1.9798,1.9798,1.9798,1.9798,1.9798,1.9798,1.9798,1.9798,1.9798,1.9798,2.0131,2.0448,2.0699,2.0699,2.0699,2.0699,2.0699,2.0699,2.0699,2.0699,2.0699,1.1619,1.1535,1.1689,1.1942,1.1315,1.0733,0.0,0.0,0.0,1.0469,1.0065,0.9927,1.106,1.0657,1.0437,1.1291,1.1901,1.2251,1.2251,1.3083,1.3758,1.3963,1.4514,1.4809,1.4713,1.5085,1.5243,1.4987,1.5054,1.4956,1.4631,1.5545,1.6068,1.6068,1.6848,1.7472,1.7893,1.8097,1.8422,1.8843,1.8939,1.8987,1.8987,1.8987,1.8987,1.8987,1.8987,1.8987,1.8987,1.8987,1.8987,1.8987,1.8987,1.8987,1.8987,1.8987,1.8987,1.8987,1.8987,1.8987,1.8987,1.8987,1.8987,1.8987,1.8987,1.8987,1.8881,1.8429,1.8655,1.8881,1.8267,1.8548,1.9093,1.9093,1.9448,1.9798,1.9798,1.9798,1.9798,1.9798,1.9798,1.9798,1.9798,1.9798,1.9798,1.9798,1.9798,1.9798,1.9798,1.9798,1.9798,1.9798,1.9798,1.9798,1.9798,1.9798,1.9798,1.9798,1.9798,1.9798,1.9798,2.0246,2.0511,2.0699,2.0699,2.0699,2.0699,2.0699,2.0699,2.0699,2.0699,2.0699,1.2953,1.3178,1.3319,1.2265,1.2743,1.2898,1.08,0.0,1.105,1.0124,0.0,0.9917,1.0056,0.0,0.0,0.9749,1.0233,1.057,1.057,1.1087,1.1808,1.2782,1.377,1.4192,1.3734,1.3734,1.3924,1.4353,1.4389,1.4552,1.4934,1.5513,1.5832,1.5832,1.6392,1.6691,1.6763,1.7736,1.8229,1.8301,1.877,1.8987,1.8987,1.8987,1.8987,1.8987,1.8987,1.8987,1.8987,1.8987,1.8987,1.8987,1.8987,1.8987,1.8987,1.8987,1.8987,1.8987,1.8987,1.8987,1.8987,1.8987,1.8987,1.8987,1.8987,1.8987,1.8987,1.8934,1.9052,1.9182,1.9064,1.921,1.9368,1.9368,1.9552,1.9798,1.9798,1.9798,1.9798,1.9798,1.9798,1.9798,1.9798,1.9798,1.9798,1.9798,1.9798,1.9798,1.9798,1.9798,1.9798,1.9798,1.9798,1.9798,1.9798,1.9798,1.9798,1.9798,1.9798,1.9798,1.9798,2.0334,2.0662,2.0699,2.0699,2.0699,2.0699,2.0699,2.0699,2.0699,2.0699,2.0699,1.3164,1.3178,1.3263,1.2701,1.2687,1.2492,1.1283,1.1037,1.103,1.0881,0.0,0.0,0.0,0.0,0.0,0.0,1.0192,1.0272,0.9478,1.0101,1.0918,1.1676,1.2456,1.3059,1.3457,1.3505,1.359,1.3819,1.3831,1.406,1.4562,1.5091,1.548,1.578,1.6008,1.6272,1.6584,1.7063,1.7592,1.8205,1.8434,1.8698,1.8987,1.8987,1.8987,1.8987,1.8987,1.8987,1.8987,1.8987,1.8987,1.8987,1.8987,1.8987,1.8987,1.8987,1.8987,1.8987,1.8987,1.8987,1.8987,1.8987,1.8987,1.8987,1.8987,1.9052,1.9117,1.9117,1.9223,1.9328,1.9393,1.9497,1.9537,1.9617,1.9708,1.9798,1.9798,1.9798,1.9798,1.9798,1.9798,1.9798,1.9798,1.9798,1.9798,1.9798,1.9798,1.9798,1.9798,1.9798,1.9798,1.9798,1.9798,1.9798,1.9798,1.9798,1.9798,1.9798,1.9798,1.9965,2.0334,2.0549,2.0699,2.0699,2.0699,2.0699,2.0699,2.0699,2.0699,2.0699,2.0699,2.0699,1.3629,1.3502,1.3417,1.308,1.2643,1.213,1.1578,1.1401,1.1401,1.1662,1.1427,0.0,0.0,0.0,1.0703,1.0327,0.0,1.0436,0.9293,0.9609,1.0088,1.0389,1.1039,1.182,1.2758,1.2721,1.2685,1.283,1.2854,1.3143,1.3819,1.4466,1.5025,1.5552,1.572,1.5972,1.6356,1.6512,1.7015,1.7772,1.7917,1.8181,1.8566,1.871,1.877,1.8782,1.8927,1.8987,1.8987,1.8987,1.8987,1.8987,1.8987,1.8987,1.8987,1.8987,1.8987,1.8987,1.8987,1.8987,1.8987,1.8987,1.8987,1.8999,1.9052,1.9105,1.917,1.9223,1.9328,1.942,1.9589,1.9654,1.9681,1.9759,1.9798,1.9798,1.9798,1.9798,1.9798,1.9798,1.9798,1.9798,1.9798,1.9798,1.9798,1.9798,1.9798,1.9798,1.9798,1.9798,1.9798,1.9798,1.9965,2.0067,2.0067,2.0067,2.0067,2.0067,2.0067,2.0233,2.0699,2.0699,2.0699,2.0699,2.0699,2.0699,2.0699,2.0699,2.0699,2.0699,2.0699,2.0699,1.4752,1.4738,1.4457,1.3291,1.2981,1.2643,1.1394,1.204,1.2743,1.2113,1.2733,1.3249,1.2661,1.2342,1.1917,0.0,1.1175,0.0,0.0,0.9599,0.9044,0.8803,0.9704,1.057,1.1123,1.0714,1.0618,1.1135,1.1171,1.1628,1.2697,1.3746,1.4526,1.5013,1.5528,1.5804,1.5816,1.6332,1.6642,1.6678,1.7195,1.7448,1.7484,1.8001,1.8229,1.8253,1.877,1.8987,1.8987,1.8987,1.8987,1.8987,1.8987,1.8987,1.8987,1.8987,1.8987,1.8987,1.8987,1.8987,1.8987,1.8987,1.8987,1.8999,1.917,1.9117,1.9052,1.9316,1.942,1.942,1.9565,1.9708,1.9798,1.9798,1.9798,1.9798,1.9798,1.9798,1.9798,1.9798,1.9798,1.9798,1.9798,1.9798,1.9798,1.9798,1.9798,1.9798,1.9798,1.9798,1.9798,1.9798,2.0334,2.0649,2.0649,2.0649,2.0649,2.0649,2.0649,2.0662,2.0699,2.0699,2.0699,2.0699,2.0699,2.0699,2.0699,2.0699,2.0699,2.0699,2.0699,2.0699,1.4808,1.4808,1.4612,1.3783,1.3305,1.277,1.1886,1.2364,1.2699,1.1619,1.2675,1.3457,1.2386,1.2484,0.0,0.0,0.0,1.0947,0.0,0.8784,0.8426,0.821,0.9127,0.9833,1.0029,1.0209,1.0233,1.0065,1.0702,1.1399,1.2143,1.3192,1.4129,1.4977,1.5181,1.5444,1.5792,1.5972,1.6236,1.6584,1.6763,1.7075,1.7424,1.7592,1.7676,1.7712,1.8241,1.847,1.8494,1.8843,1.8987,1.8987,1.8987,1.8987,1.8987,1.8987,1.8987,1.8987,1.8987,1.8987,1.8987,1.8987,1.9052,1.9117,1.9182,1.9263,1.9408,1.9512,1.9617,1.9656,1.9708,1.9747,1.9798,1.9798,1.9798,1.9798,1.9798,1.9798,1.9798,1.9798,1.9798,1.9798,1.9798,1.9798,1.9798,1.9798,1.9798,1.9798,1.9798,1.9798,1.9798,1.9798,2.0334,2.0699,2.0699,2.0699,2.0699,2.0699,2.0699,2.0699,2.0699,2.0699,2.0699,2.0699,2.0699,2.0699,2.0699,2.0699,2.0699,2.0699,2.0699,2.0699,1.4686,1.4686,1.4578,1.4036,1.3557,1.3011,1.2183,1.2673,1.3037,1.1995,1.2898,1.3698,1.3108,1.2982,1.2814,0.0,0.0,1.1119,0.0,0.8921,0.8682,0.8358,0.902,0.9497,0.9497,0.9475,0.9475,0.9485,0.9788,1.0353,1.1279,1.236,1.3383,1.4454,1.4809,1.5265,1.578,1.5792,1.596,1.6296,1.6296,1.6476,1.6859,1.7051,1.7135,1.7159,1.7688,1.8025,1.8229,1.8566,1.8819,1.8987,1.8987,1.8987,1.8987,1.8987,1.8987,1.8987,1.8987,1.904,1.9052,1.9052,1.9158,1.9275,1.9328,1.942,1.9565,1.9656,1.9708,1.9759,1.9798,1.9798,1.9798,1.9798,1.9798,1.9798,1.9798,1.9798,1.9798,1.9798,1.9798,1.9798,1.9798,1.9798,1.9798,1.9798,1.9862,1.9965,1.9965,2.0067,2.0118,2.0118,2.0498,2.0699,2.0699,2.0699,2.0699,2.0699,2.0699,2.0699,2.0699,2.0699,2.0699,2.0699,2.0699,2.0699,2.0699,2.0699,2.0699,2.0699,2.0699,2.0699]},{"header":{"parameterUnit":"m.s-1","parameterCategory":1,"la1":30.6,"la2":29.2853,"lo1":-89.7004,"lo2":-87.6739,"dy":0.0162,"dx":0.0183,"nx":112,"ny":82,"refTime":"2025-08-14T12:00:00:Z","depth":0,"parameterNumber":3,"parameterNumberName":"V-component_of_WINDS"},"data":[0.0,0.0,0.0,0.0,0.0,0.0,0.0,0.0,0.0,0.0,0.0,0.0,0.0,0.0,0.0,0.0,0.0,0.0,0.0,0.0,0.0,0.0,0.0,0.0,0.0,0.0,0.0,0.0,0.0,0.0,0.0,0.0,0.0,0.0,0.0,0.0,0.0,0.0,0.0,0.0,0.0,0.0,0.0,0.0,0.0,0.0,0.0,0.0,0.0,0.0,0.0,0.0,0.0,0.0,0.0,0.0,0.0,0.0,0.0,0.0,0.0,0.0,0.0,0.0,0.0,0.0,0.0,0.0,0.0,0.0,0.0,0.0,0.0,0.0,0.0,0.0,0.0,0.0,0.0,0.0,0.0,0.0,0.0,0.0,0.0,0.0,0.0,0.0,0.0,0.0,-1.132,-1.1589,-1.2583,-1.3232,-1.3267,-1.3232,-1.2607,-1.1272,0.0,0.0,0.0,0.0,0.0,0.0,0.0,0.0,0.0,0.0,0.0,0.0,0.0,0.0,0.0,0.0,0.0,0.0,0.0,0.0,0.0,0.0,0.0,0.0,0.0,0.0,0.0,0.0,0.0,0.0,0.0,0.0,0.0,0.0,0.0,0.0,0.0,0.0,0.0,0.0,0.0,0.0,0.0,0.0,0.0,0.0,0.0,0.0,0.0,0.0,0.0,0.0,0.0,0.0,0.0,0.0,0.0,0.0,0.0,0.0,0.0,0.0,0.0,0.0,0.0,0.0,0.0,0.0,0.0,0.0,0.0,0.0,0.0,0.0,0.0,0.0,0.0,0.0,0.0,0.0,0.0,0.0,0.0,0.0,0.0,0.0,0.0,0.0,0.0,0.0,0.0,0.0,0.0,0.0,0.0,0.0,0.0,0.0,0.0,0.0,0.0,0.0,0.0,0.0,-1.0586,-1.2462,-1.2991,-1.3323,-1.3615,-1.3357,-1.273,-1.1585,0.0,0.0,0.0,0.0,0.0,0.0,0.0,0.0,0.0,0.0,0.0,0.0,0.0,0.0,0.0,0.0,0.0,0.0,0.0,0.0,0.0,0.0,0.0,0.0,0.0,0.0,0.0,0.0,0.0,0.0,0.0,0.0,0.0,0.0,0.0,0.0,0.0,0.0,0.0,0.0,0.0,0.0,0.0,0.0,0.0,0.0,0.0,0.0,0.0,0.0,0.0,0.0,0.0,0.0,0.0,0.0,0.0,0.0,0.0,0.0,0.0,0.0,0.0,0.0,0.0,0.0,0.0,0.0,0.0,0.0,0.0,0.0,0.0,0.0,0.0,0.0,0.0,0.0,0.0,0.0,0.0,0.0,0.0,0.0,0.0,0.0,0.0,0.0,0.0,0.0,0.0,0.0,0.0,0.0,0.0,0.0,0.0,0.0,0.0,0.0,0.0,0.0,0.0,-1.095,-1.1638,-1.371,-1.3853,-1.3861,-1.4013,-1.3894,-1.3361,-1.2363,-1.0952,0.0,0.0,0.0,0.0,0.0,0.0,0.0,0.0,0.0,0.0,0.0,0.0,0.0,0.0,0.0,0.0,0.0,0.0,0.0,0.0,0.0,0.0,0.0,0.0,0.0,0.0,0.0,0.0,0.0,0.0,0.0,0.0,0.0,0.0,0.0,0.0,0.0,0.0,0.0,0.0,0.0,0.0,0.0,0.0,0.0,0.0,0.0,0.0,0.0,0.0,0.0,0.0,0.0,0.0,0.0,0.0,0.0,0.0,0.0,0.0,0.0,0.0,0.0,0.0,0.0,0.0,0.0,0.0,0.0,0.0,0.0,0.0,0.0,0.0,0.0,0.0,0.0,0.0,0.0,0.0,0.0,0.0,0.0,0.0,0.0,0.0,0.0,0.0,0.0,0.0,0.0,0.0,0.0,0.0,0.0,0.0,0.0,0.0,0.0,0.0,0.0,0.0,-1.2116,-1.2829,-1.4626,-1.4493,-1.4332,-1.4429,-1.4196,-1.3714,-1.2858,-1.1232,0.0,0.0,0.0,0.0,0.0,0.0,0.0,0.0,0.0,0.0,0.0,0.0,0.0,0.0,0.0,0.0,0.0,0.0,0.0,0.0,0.0,0.0,0.0,0.0,0.0,0.0,0.0,0.0,0.0,0.0,0.0,0.0,0.0,0.0,0.0,0.0,0.0,0.0,0.0,0.0,0.0,0.0,0.0,0.0,0.0,0.0,0.0,0.0,0.0,0.0,0.0,0.0,0.0,0.0,0.0,0.0,0.0,0.0,0.0,0.0,0.0,0.0,0.0,0.0,0.0,0.0,0.0,0.0,0.0,0.0,0.0,0.0,0.0,0.0,0.0,0.0,0.0,0.0,0.0,0.0,0.0,0.0,0.0,0.0,0.0,0.0,0.0,0.0,0.0,0.0,0.0,0.0,0.0,0.0,0.0,0.0,0.0,0.0,0.0,0.0,0.0,0.0,-1.2127,-1.3333,-1.4668,-1.4493,-1.4429,-1.4746,-1.3912,-1.3131,-1.2579,-1.0962,0.0,0.0,0.0,0.0,0.0,0.0,0.0,0.0,0.0,0.0,0.0,0.0,0.0,0.0,0.0,0.0,0.0,0.0,0.0,0.0,0.0,0.0,0.0,0.0,0.0,0.0,0.0,0.0,0.0,0.0,0.0,0.0,0.0,0.0,0.0,0.0,0.0,0.0,0.0,0.0,0.0,0.0,0.0,0.0,0.0,0.0,0.0,0.0,0.0,0.0,0.0,0.0,0.0,0.0,0.0,0.0,0.0,0.0,0.0,0.0,0.0,0.0,0.0,0.0,0.0,0.0,0.0,0.0,0.0,0.0,0.0,0.0,0.0,0.0,0.0,0.0,0.0,0.0,0.0,0.0,0.0,0.0,0.0,0.0,0.0,0.0,0.0,0.0,0.0,0.0,0.0,0.0,0.0,0.0,0.0,0.0,0.0,0.0,0.0,0.0,0.0,0.0,-1.2052,-1.324,-1.4945,-1.4994,-1.4963,-1.5086,-1.4767,-1.3926,-1.2512,0.0,0.0,0.0,0.0,0.0,0.0,0.0,0.0,0.0,0.0,0.0,0.0,0.0,0.0,0.0,0.0,0.0,0.0,0.0,0.0,0.0,0.0,0.0,0.0,0.0,0.0,0.0,0.0,0.0,0.0,0.0,0.0,0.0,0.0,0.0,0.0,0.0,0.0,0.0,0.0,0.0,0.0,0.0,0.0,0.0,0.0,0.0,0.0,0.0,0.0,0.0,0.0,0.0,0.0,0.0,0.0,0.0,0.0,0.0,0.0,0.0,0.0,0.0,0.0,0.0,0.0,0.0,0.0,0.0,0.0,0.0,0.0,0.0,0.0,0.0,0.0,0.0,0.0,0.0,0.0,0.0,0.0,0.0,0.0,0.0,0.0,0.0,0.0,0.0,0.0,0.0,0.0,0.0,0.0,0.0,0.0,0.0,0.0,0.0,0.0,0.0,0.0,-1.1271,-1.2207,-1.3382,-1.5124,-1.5313,-1.5313,-1.5313,-1.502,-1.4141,-1.2501,0.0,0.0,0.0,0.0,0.0,0.0,0.0,0.0,0.0,0.0,0.0,0.0,0.0,0.0,0.0,0.0,0.0,0.0,0.0,0.0,0.0,0.0,0.0,0.0,0.0,0.0,0.0,0.0,0.0,0.0,0.0,0.0,0.0,0.0,0.0,0.0,0.0,0.0,0.0,0.0,0.0,0.0,0.0,0.0,0.0,0.0,0.0,0.0,0.0,0.0,0.0,0.0,0.0,0.0,0.0,0.0,0.0,0.0,0.0,0.0,0.0,0.0,0.0,0.0,0.0,0.0,0.0,0.0,0.0,0.0,0.0,0.0,0.0,0.0,0.0,0.0,0.0,0.0,0.0,0.0,0.0,0.0,0.0,0.0,0.0,0.0,0.0,0.0,0.0,0.0,0.0,0.0,0.0,0.0,0.0,0.0,0.0,0.0,0.0,0.0,0.0,0.0,-1.1329,-1.2609,-1.3903,-1.5168,-1.5313,-1.5313,-1.5283,-1.4367,-1.3403,0.0,0.0,0.0,0.0,0.0,0.0,0.0,0.0,0.0,0.0,0.0,0.0,0.0,0.0,0.0,0.0,0.0,0.0,0.0,0.0,0.0,0.0,0.0,0.0,0.0,0.0,0.0,0.0,0.0,0.0,0.0,0.0,0.0,0.0,0.0,0.0,0.0,0.0,0.0,0.0,0.0,0.0,0.0,0.0,0.0,0.0,0.0,0.0,0.0,0.0,0.0,0.0,0.0,0.0,0.0,0.0,0.0,0.0,0.0,0.0,0.0,0.0,0.0,0.0,0.0,0.0,0.0,0.0,0.0,0.0,0.0,0.0,0.0,0.0,0.0,0.0,0.0,0.0,0.0,0.0,0.0,0.0,0.0,0.0,0.0,0.0,0.0,0.0,0.0,0.0,0.0,0.0,0.0,0.0,0.0,0.0,0.0,0.0,0.0,0.0,0.0,0.0,0.0,-1.1387,-1.2976,-1.4355,-1.5226,-1.5313,-1.5192,-1.4963,-1.4687,-1.3797,-1.2136,0.0,0.0,0.0,0.0,0.0,0.0,0.0,0.0,0.0,0.0,0.0,0.0,0.0,0.0,0.0,0.0,0.0,0.0,0.0,0.0,0.0,0.0,0.0,0.0,0.0,0.0,0.0,0.0,0.0,0.0,0.0,0.0,0.0,0.0,0.0,0.0,0.0,0.0,0.0,0.0,0.0,0.0,0.0,0.0,0.0,0.0,0.0,0.0,0.0,0.0,0.0,0.0,0.0,0.0,0.0,0.0,0.0,0.0,0.0,0.0,0.0,0.0,0.0,0.0,0.0,0.0,0.0,0.0,0.0,0.0,0.0,0.0,0.0,0.0,0.0,0.0,0.0,0.0,0.0,0.0,0.0,0.0,0.0,0.0,0.0,0.0,0.0,0.0,0.0,0.0,0.0,0.0,0.0,0.0,0.0,0.0,0.0,0.0,0.0,0.0,0.0,0.0,-1.1728,-1.3295,-1.4573,-1.524,-1.5313,-1.5222,-1.5025,-1.4746,-1.3829,-1.2048,0.0,0.0,0.0,0.0,0.0,0.0,0.0,0.0,0.0,0.0,0.0,0.0,0.0,0.0,0.0,0.0,0.0,0.0,0.0,0.0,0.0,0.0,0.0,0.0,0.0,0.0,0.0,0.0,0.0,0.0,0.0,0.0,0.0,0.0,0.0,0.0,0.0,0.0,0.0,0.0,0.0,0.0,0.0,0.0,0.0,0.0,0.0,0.0,0.0,0.0,0.0,0.0,0.0,0.0,0.0,0.0,0.0,0.0,0.0,0.0,0.0,0.0,0.0,0.0,0.0,0.0,0.0,0.0,0.0,0.0,0.0,0.0,0.0,0.0,0.0,0.0,0.0,0.0,0.0,0.0,0.0,0.0,0.0,0.0,0.0,0.0,0.0,0.0,0.0,0.0,0.0,0.0,0.0,0.0,0.0,0.0,0.0,0.0,0.0,0.0,0.0,0.0,-1.2241,-1.3586,-1.4645,-1.5255,-1.5356,-1.5341,-1.5253,-1.4756,-1.3775,-1.2267,0.0,0.0,0.0,0.0,0.0,0.0,0.0,0.0,0.0,0.0,0.0,0.0,0.0,0.0,0.0,0.0,0.0,0.0,0.0,0.0,0.0,0.0,0.0,0.0,0.0,0.0,0.0,0.0,0.0,0.0,0.0,0.0,0.0,0.0,0.0,0.0,0.0,0.0,0.0,0.0,0.0,0.0,0.0,0.0,0.0,0.0,0.0,0.0,0.0,0.0,0.0,0.0,0.0,0.0,0.0,0.0,0.0,0.0,0.0,0.0,-1.2826,-1.1826,0.0,0.0,0.0,0.0,0.0,0.0,0.0,0.0,0.0,0.0,0.0,0.0,0.0,0.0,0.0,0.0,0.0,0.0,0.0,0.0,0.0,0.0,0.0,0.0,0.0,0.0,0.0,0.0,0.0,0.0,0.0,0.0,0.0,0.0,0.0,0.0,0.0,0.0,0.0,0.0,-1.2299,-1.3964,-1.5153,-1.5268,-1.5734,-1.5696,-1.4975,-1.5216,-1.483,-1.3501,-1.2048,0.0,0.0,0.0,0.0,0.0,0.0,0.0,0.0,0.0,0.0,0.0,0.0,0.0,0.0,0.0,0.0,0.0,0.0,0.0,0.0,0.0,0.0,0.0,0.0,0.0,0.0,0.0,0.0,0.0,0.0,0.0,0.0,0.0,0.0,0.0,0.0,0.0,0.0,0.0,0.0,0.0,0.0,0.0,0.0,0.0,0.0,0.0,0.0,0.0,0.0,0.0,0.0,0.0,0.0,0.0,0.0,0.0,0.0,0.0,-1.5167,-1.3914,0.0,0.0,0.0,0.0,0.0,0.0,0.0,0.0,0.0,0.0,0.0,0.0,0.0,0.0,0.0,0.0,0.0,0.0,0.0,0.0,0.0,0.0,0.0,0.0,0.0,0.0,0.0,0.0,0.0,0.0,0.0,0.0,0.0,0.0,0.0,0.0,0.0,0.0,0.0,0.0,-1.3182,-1.4747,-1.5864,-1.6262,-1.66,-1.6594,-1.6081,-1.5759,-1.5124,-1.4148,-1.2643,0.0,0.0,0.0,0.0,0.0,0.0,0.0,0.0,0.0,0.0,0.0,0.0,0.0,0.0,0.0,0.0,0.0,0.0,0.0,0.0,0.0,0.0,0.0,0.0,0.0,0.0,0.0,0.0,0.0,0.0,0.0,0.0,0.0,0.0,0.0,0.0,0.0,0.0,0.0,0.0,0.0,0.0,0.0,0.0,0.0,0.0,0.0,0.0,0.0,0.0,0.0,0.0,0.0,-1.823,-1.9103,-1.9709,-2.0271,-2.0863,-2.1247,-1.7712,-1.6621,-1.7167,-1.6049,0.0,0.0,0.0,0.0,0.0,0.0,0.0,0.0,0.0,0.0,0.0,0.0,0.0,0.0,0.0,0.0,0.0,0.0,0.0,0.0,0.0,0.0,-1.4876,-1.4939,-1.5608,-1.56,-1.3346,0.0,0.0,0.0,0.0,0.0,0.0,0.0,0.0,0.0,0.0,0.0,-1.4354,-1.5634,-1.6655,-1.7324,-1.7485,-1.748,-1.7397,-1.6454,-1.5555,-1.4759,-1.3391,-1.2323,0.0,0.0,0.0,0.0,0.0,0.0,0.0,0.0,0.0,0.0,0.0,0.0,0.0,0.0,0.0,0.0,0.0,0.0,0.0,0.0,0.0,0.0,0.0,0.0,0.0,0.0,0.0,0.0,0.0,0.0,0.0,0.0,-1.2434,-1.2316,0.0,0.0,0.0,0.0,0.0,0.0,0.0,0.0,0.0,0.0,0.0,0.0,0.0,-1.8492,-1.9109,-2.0783,-2.1613,-2.1551,-2.2015,-2.2463,-2.2913,-2.2639,-2.2751,-2.3122,-2.2232,0.0,-1.9435,-1.8983,0.0,0.0,0.0,0.0,0.0,0.0,0.0,0.0,0.0,0.0,0.0,0.0,0.0,0.0,0.0,0.0,0.0,0.0,0.0,0.0,0.0,0.0,-1.8078,-1.7768,-1.7817,-1.7857,-1.7444,-1.549,-1.3785,-1.3584,-1.2833,-1.2159,0.0,0.0,0.0,0.0,0.0,0.0,-1.5256,-1.6491,-1.728,-1.7382,-1.7841,-1.7873,-1.7292,-1.7595,-1.7314,-1.6027,-1.5049,-1.4246,-1.3585,-1.2248,0.0,0.0,0.0,0.0,0.0,0.0,0.0,0.0,0.0,0.0,0.0,0.0,0.0,0.0,0.0,0.0,0.0,0.0,0.0,0.0,0.0,0.0,0.0,0.0,0.0,0.0,0.0,0.0,0.0,-1.1981,-1.3275,-1.3407,-1.367,-1.3662,0.0,0.0,0.0,0.0,0.0,0.0,0.0,0.0,0.0,-1.901,-2.0502,-2.158,-2.227,-2.3038,-2.339,-2.3374,-2.388,-2.4239,-2.4426,-2.4664,-2.4844,-2.5018,-2.4844,-2.4007,-2.2704,-2.1119,-1.9807,-1.8562,0.0,0.0,0.0,0.0,-1.7582,-1.8122,-1.8837,-1.8852,-1.8373,-1.7326,0.0,0.0,0.0,0.0,0.0,0.0,0.0,-1.6642,-1.7232,-1.8051,-1.8745,-1.8724,-1.8906,-1.9037,-1.876,-1.7919,-1.6793,-1.5375,-1.5211,-1.4773,-1.3168,-1.3169,0.0,0.0,0.0,-1.5522,-1.6524,-1.7386,-1.8056,-1.8493,-1.8695,-1.8702,-1.841,-1.813,-1.7698,-1.7027,-1.6312,-1.5525,-1.4671,-1.3933,-1.2955,0.0,0.0,0.0,0.0,0.0,0.0,0.0,0.0,0.0,0.0,0.0,0.0,0.0,0.0,0.0,0.0,0.0,0.0,0.0,0.0,0.0,0.0,0.0,0.0,0.0,0.0,0.0,0.0,-1.3155,-1.4527,-1.5011,-1.5452,-1.5579,0.0,0.0,0.0,0.0,0.0,0.0,-1.8246,-1.9866,-2.111,-2.1849,-2.3143,-2.4137,-2.4827,-2.4929,-2.5046,-2.5229,-2.5708,-2.5938,-2.5955,-2.6518,-2.6766,-2.6766,-2.6766,-2.6452,-2.5735,-2.3191,-2.1733,-2.0973,-1.9152,-1.9211,-2.0273,-1.963,-1.9735,-2.0348,-2.135,-2.138,-2.0797,-1.9794,-1.9361,-1.8942,-1.7475,0.0,0.0,0.0,0.0,-1.8205,-1.914,-1.943,-1.9528,-1.9706,-1.9975,-2.0124,-1.9824,-1.9879,-1.9343,-1.7209,-1.7368,-1.7149,-1.4906,-1.5242,0.0,-1.4668,-1.5832,-1.703,-1.7711,-1.8258,-1.8811,-1.9332,-1.9302,-1.9265,-1.9265,-1.8555,-1.8012,-1.7768,-1.7341,-1.6662,-1.5743,-1.541,-1.4576,-1.3218,0.0,0.0,0.0,0.0,0.0,0.0,0.0,0.0,0.0,0.0,0.0,0.0,0.0,0.0,0.0,0.0,0.0,0.0,0.0,0.0,0.0,0.0,0.0,0.0,0.0,0.0,0.0,0.0,0.0,-1.7864,-1.8802,0.0,0.0,0.0,0.0,-1.9504,-1.9698,-2.0646,-2.2765,-2.3026,-2.3489,-2.4214,-2.5053,-2.5747,-2.6301,-2.6969,-2.7631,-2.8196,-2.8229,-2.8207,-2.8262,-2.8296,-2.8312,-2.8312,-2.8312,-2.8296,-2.8042,-2.5497,-2.3824,-2.2817,-2.2254,-2.2084,-2.2158,-2.2113,-2.1889,-2.1605,-2.168,-2.168,-2.1635,-2.156,-2.1126,-2.0602,-2.0498,-2.0468,0.0,0.0,-2.0961,-2.1455,-2.153,-2.1545,-2.156,-2.155,-2.159,-2.159,-2.155,-2.1057,-2.0438,-1.9639,-1.8976,-1.8495,-1.8327,0.0,-1.669,-1.7302,-1.7466,-1.7811,-1.8534,-1.9064,-1.9347,-1.9413,-1.9228,-1.9101,-1.9101,-1.9072,-1.8774,-1.8194,-1.8136,-1.7818,-1.7118,-1.6485,-1.571,-1.4791,-1.3152,0.0,0.0,0.0,0.0,0.0,0.0,0.0,0.0,0.0,0.0,0.0,0.0,0.0,0.0,0.0,0.0,0.0,0.0,0.0,0.0,0.0,0.0,0.0,0.0,0.0,0.0,0.0,0.0,-1.987,-2.0482,0.0,-2.0515,-2.0954,-2.1485,-2.2062,-2.2517,-2.3169,-2.3992,-2.4498,-2.512,-2.5863,-2.6573,-2.7262,-2.7931,-2.8089,-2.8244,-2.8434,-2.8412,-2.8412,-2.8412,-2.8412,-2.8412,-2.8412,-2.8412,-2.8412,-2.8323,-2.7415,-2.6596,-2.5863,-2.4973,-2.5233,-2.6042,-2.5648,-2.5185,-2.4628,-2.3859,-2.358,-2.3445,-2.2592,-2.1874,-2.1335,-2.1335,-2.1335,-2.1335,-2.1335,-2.1515,-2.1695,-2.1695,-2.1695,-2.1695,-2.1695,-2.1695,-2.1695,-2.1695,-2.1515,-2.1276,-2.1021,-2.0094,-1.9161,-1.8659,-1.8589,-1.8499,-1.8272,-1.8634,-1.9041,-1.926,-1.9353,-1.9376,-1.9339,-1.9176,-1.9101,-1.9101,-1.9101,-1.9014,-1.8796,-1.8419,-1.7791,-1.6907,-1.643,-1.5782,-1.4856,-1.4055,-1.2851,0.0,0.0,0.0,0.0,0.0,0.0,0.0,0.0,0.0,0.0,0.0,0.0,0.0,0.0,0.0,0.0,0.0,0.0,0.0,0.0,0.0,0.0,0.0,0.0,0.0,-1.841,-2.0213,-2.1256,-2.2032,-2.2501,-2.2509,-2.3194,-2.3762,-2.4045,-2.4532,-2.5053,-2.5575,-2.6082,-2.6657,-2.7401,-2.7853,-2.8404,-2.9068,-2.8932,-2.8971,-2.9164,-2.9141,-2.9102,-2.9102,-2.9102,-2.9102,-2.9102,-2.9102,-2.9102,-2.9102,-2.9102,-2.8903,-2.8421,-2.7038,-2.7185,-2.811,-2.729,-2.6731,-2.6272,-2.5289,-2.4956,-2.4822,-2.3954,-2.3221,-2.2682,-2.2682,-2.2517,-2.2338,-2.2338,-2.2338,-2.2338,-2.2338,-2.2338,-2.2338,-2.2338,-2.2338,-2.2338,-2.2338,-2.2173,-2.2024,-2.2024,-2.0946,-1.9884,-1.9379,-1.9519,-1.9525,-1.9056,-1.9405,-1.969,-1.9632,-1.9538,-1.9465,-1.9413,-1.9302,-1.9176,-1.9176,-1.9176,-1.9139,-1.9101,-1.8724,-1.8195,-1.7534,-1.6862,-1.6247,-1.5634,-1.4746,-1.3808,-1.2801,0.0,0.0,0.0,0.0,0.0,0.0,0.0,0.0,0.0,0.0,0.0,0.0,0.0,0.0,0.0,0.0,0.0,0.0,0.0,0.0,0.0,0.0,0.0,-1.8885,-2.0123,-2.1384,-2.214,-2.3543,-2.4163,-2.3489,-2.4107,-2.4864,-2.5625,-2.5676,-2.6319,-2.7739,-2.7823,-2.8142,-2.8827,-2.8844,-2.9101,-2.9619,-2.9619,-2.9928,-3.0543,-3.0543,-3.0576,-3.0593,-3.0593,-3.0593,-3.0593,-3.0518,-3.0543,-3.0543,-3.0526,-3.0526,-3.0336,-2.8478,-2.7996,-2.811,-2.6936,-2.647,-2.6364,-2.5816,-2.563,-2.5615,-2.5615,-2.5181,-2.4657,-2.4612,-2.4193,-2.3655,-2.3655,-2.3655,-2.3625,-2.3625,-2.361,-2.3595,-2.3595,-2.3595,-2.3595,-2.3595,-2.3131,-2.2739,-2.2739,-2.1665,-2.0767,-2.0752,-2.0183,-1.975,-1.972,-1.9735,0.0,-1.969,-1.9647,-1.9641,-1.9589,-1.9501,-1.9376,-1.9302,-1.9302,-1.9265,-1.9101,-1.9087,-1.9072,-1.9072,-1.7882,-1.72,-1.72,-1.5342,-1.4298,-1.4213,0.0,0.0,0.0,0.0,0.0,0.0,0.0,0.0,0.0,0.0,0.0,0.0,0.0,0.0,0.0,0.0,0.0,0.0,0.0,0.0,0.0,-1.9278,-2.0629,-2.048,-2.218,-2.3759,-2.4548,-2.5019,-2.539,-2.5728,-2.5981,-2.6404,-2.713,-2.7215,-2.7638,-2.8619,-2.867,-2.8955,-2.9585,-2.9508,-2.9761,-3.0392,-3.031,-3.0593,-3.1279,-3.1279,-3.1586,-3.21,-3.21,-3.21,-3.2067,-3.1537,-3.1279,-3.1288,-3.0742,-3.0526,-3.0435,-2.9939,-2.959,-2.9286,-2.8704,-2.7813,-2.6872,-2.7042,-2.6581,-2.5879,-2.577,-2.5619,-2.5454,-2.533,-2.5211,-2.5061,-2.5061,-2.4717,-2.4343,-2.4343,-2.3969,-2.3595,-2.3595,-2.3595,-2.3595,-2.3595,-2.346,-2.334,-2.334,-2.2697,-2.1994,-2.1515,-2.1261,-2.0976,-2.0498,-2.0842,-2.0797,-1.9766,-1.9998,-2.0042,-1.9509,-1.9413,-1.9376,-1.9376,-1.9376,-1.9339,-1.9265,-1.879,-1.8506,-1.8448,-1.765,-1.72,-1.72,-1.6213,-1.5381,0.0,0.0,0.0,0.0,0.0,0.0,0.0,0.0,0.0,0.0,0.0,0.0,0.0,0.0,0.0,0.0,0.0,0.0,0.0,0.0,0.0,0.0,-2.1485,-2.2904,-2.2962,-2.4076,-2.5086,-2.5558,-2.5879,-2.6234,-2.6657,-2.6979,-2.7351,-2.7755,-2.8129,-2.8636,-2.9414,-2.9448,-2.9711,-3.0303,-3.0241,-3.049,-3.1058,-3.0974,-3.1338,-3.2067,-3.2067,-3.2282,-3.268,-3.2785,-3.2724,-3.2663,-3.2293,-3.211,-3.2034,-3.1603,-3.1421,-3.1371,0.0,0.0,0.0,0.0,-2.8896,-2.7953,-2.8093,-2.7705,-2.7072,-2.6836,-2.6497,-2.6208,-2.6129,-2.5886,-2.5615,-2.5615,-2.533,-2.4971,-2.4657,-2.4328,-2.3954,-2.367,-2.3595,-2.3595,-2.3595,-2.3595,-2.3595,-2.3595,-2.331,0.0,-2.2562,-2.2054,-2.156,-2.1186,-2.1455,-2.141,-2.0571,-2.0542,-2.0429,-1.9983,-1.9686,-1.9523,-1.9501,-1.9501,0.0,0.0,0.0,-1.8556,-1.8216,-1.7838,0.0,0.0,0.0,0.0,0.0,0.0,0.0,0.0,-1.419,-1.399,0.0,0.0,0.0,0.0,0.0,0.0,0.0,0.0,0.0,0.0,0.0,0.0,0.0,0.0,0.0,0.0,-2.3742,-2.5545,-2.5678,-2.5727,-2.5727,-2.5727,-2.6302,-2.6725,-2.681,-2.7435,-2.7857,-2.8026,-2.8721,-2.9448,-3.0192,-3.0226,0.0,0.0,0.0,-3.1258,-3.1735,-3.1692,-3.21,-3.2812,-3.2812,-3.2907,-3.2973,-3.3079,-3.3079,-3.2973,-3.2995,-3.2946,-3.284,-3.2713,-3.268,-3.2591,-3.113,-3.0701,-3.0808,-3.0258,-2.9657,-2.9148,-2.8873,0.0,0.0,-2.8137,-2.7546,-2.6916,-2.6916,-2.6399,-2.5839,-2.5839,-2.5779,-2.5585,-2.5001,-2.4746,-2.4522,-2.3879,-2.3714,-2.3684,-2.361,-2.3595,-2.3595,-2.3595,-2.3595,-2.3595,-2.3595,-2.2652,-2.1889,-2.1814,-2.1859,-2.1859,-2.1724,-2.1261,-2.0917,-2.0842,-2.0273,0.0,-1.973,-1.973,-1.9664,-1.9428,-1.9339,-1.9016,-1.8368,-1.8303,-1.8303,-1.8303,-1.8303,-1.8564,-1.9101,-1.8898,-1.8573,-1.7985,-1.5528,-1.5248,0.0,0.0,0.0,0.0,0.0,0.0,0.0,0.0,0.0,0.0,0.0,0.0,0.0,0.0,0.0,-2.3439,-2.4753,-2.573,-2.6404,-2.6488,-2.6488,-2.6488,-2.6607,-2.6928,-2.7554,-2.7705,-2.8332,-2.9567,-2.9803,-3.0209,-3.0954,-3.0987,-3.1246,-3.1783,-3.1775,-3.2026,-3.2481,-3.2481,-3.2845,-3.3574,-3.3574,0.0,-3.4625,-3.4672,-3.4672,-3.4575,-3.4022,-3.3772,-3.3677,-3.2973,-3.2768,-3.2746,-3.1457,-3.1112,-3.1176,-3.0076,-2.9451,-2.912,-2.9028,-2.8779,-2.8444,-2.8235,-2.7963,-2.7758,-2.7659,-2.7405,0.0,-2.7186,-2.6811,-2.6378,-2.6243,-2.5809,-2.5255,-2.4597,-2.4388,-2.4283,-2.3729,-2.3595,-2.3595,-2.3595,-2.3595,-2.3595,-2.3595,-2.34,-2.3056,-2.2562,-2.2906,-2.2862,-2.1829,-2.2054,-2.2099,-2.156,-2.138,-2.1096,-2.0535,-2.049,-2.0214,-1.9604,-1.9413,-1.9258,-1.909,-1.8964,-1.8927,-1.8927,-1.8927,-1.8985,-1.9101,-1.9064,-1.8991,-1.8861,-1.8172,-1.7762,0.0,0.0,0.0,0.0,0.0,0.0,0.0,0.0,0.0,0.0,0.0,-1.9866,-2.1366,0.0,-2.3658,-2.4801,-2.5611,-2.6252,-2.664,-2.6691,-2.6691,-2.6691,-2.6691,-2.6996,-2.774,-2.8163,-2.8873,-3.0023,-3.0446,-3.097,-3.1698,-3.1708,-3.1941,-3.2529,-3.2503,-3.2707,-3.3226,-3.3243,-3.3607,-3.4336,-3.4336,-3.4582,-3.5088,-3.5152,-3.5135,-3.5071,-3.4843,-3.4676,-3.4505,-3.4139,-3.408,-3.4102,-3.3095,-3.2128,-3.132,-3.1054,-3.0434,-2.9733,-2.9777,-2.9661,-2.9393,-2.909,-2.8764,-2.8414,-2.8286,-2.8008,-2.7675,-2.7625,-2.7335,-2.7006,-2.6677,-2.6348,-2.5929,-2.527,-2.5121,-2.4941,-2.4268,-2.4118,-2.4014,-2.367,-2.3595,-2.3595,-2.3595,-2.3595,-2.349,-2.3191,-2.34,-2.337,-2.2727,-2.2667,-2.2547,-2.2218,-2.1889,-2.156,-2.1231,-2.1201,-2.1028,-2.057,-2.0463,-2.0347,-2.0255,-2.0177,-2.0138,-2.0045,-2.0045,-2.0045,-2.0045,-2.0045,-2.0045,-2.0045,-1.9966,-1.9594,0.0,0.0,0.0,0.0,0.0,0.0,0.0,-1.9286,-1.9925,-2.0719,-2.1815,-2.2878,-2.368,-2.4797,-2.5659,-2.5795,-2.6302,-2.6691,-2.6691,-2.6691,-2.6691,-2.6691,-2.6691,-2.7046,-2.796,-2.8619,-2.9364,-3.026,-3.1004,-3.1664,-3.2297,-3.2302,-3.2614,-3.3299,-3.3184,-3.3383,-3.4005,-3.4005,-3.4303,-3.4899,-3.4899,-3.4994,-3.5152,-3.5245,-3.5245,-3.5198,-3.54,-3.5354,-3.5152,-3.5291,-3.5429,-3.5441,-3.4813,-3.3428,-3.1808,-3.2236,-3.17,-3.0764,-3.0678,-3.0721,-3.0721,-3.0259,-2.9621,-2.9046,-2.8936,-2.8394,-2.774,-2.7625,-2.7625,-2.7505,-2.6916,-2.6782,-2.6617,-2.5959,-2.5794,-2.5615,-2.4956,-2.4776,-2.4612,-2.3924,-2.3789,-2.3759,-2.3625,-2.3595,-2.3595,-2.3595,-2.3595,-2.3595,-2.3595,-2.3161,-2.2862,-2.2862,-2.2383,-2.2024,-2.1889,-2.1769,-2.1655,-2.156,-2.152,-2.144,-2.1263,-2.1263,-2.1167,-2.1044,-2.1044,-2.1044,-2.1003,-2.1003,-2.1003,-2.1003,-2.1003,-2.0741,-1.633,-1.6762,-1.7765,-1.9558,-1.9838,-2.0283,0.0,-2.3023,-2.3105,-2.3833,-2.412,-2.4458,-2.522,-2.549,-2.5812,-2.6471,-2.664,-2.6691,-2.6691,-2.6691,-2.6691,-2.6691,-2.6691,-2.7266,-2.8704,-2.896,-2.9567,-3.097,-3.1749,-3.2188,-3.2313,-3.2774,-3.3369,-3.4069,-3.3951,-3.4147,-3.4767,-3.4767,-3.4816,-3.4899,-3.4899,-3.5041,-3.5291,-3.5291,-3.5354,-3.5446,-3.5492,-3.54,-3.5291,-3.5503,-3.5549,-3.5492,-3.5448,-3.465,-3.347,-3.2851,-3.2552,-3.2309,-3.1437,-3.1437,-3.1765,-3.1214,-3.0415,-2.9703,-2.9654,-2.8698,-2.7625,-2.7625,-2.7625,-2.761,-2.7535,-2.7505,-2.7305,-2.6632,-2.6482,-2.6303,-2.5644,-2.5495,-2.53,-2.4642,-2.4462,-2.4313,-2.3699,-2.3595,-2.3595,-2.3595,-2.3595,-2.3595,-2.3595,-2.3535,-2.349,-2.349,-2.343,-2.3161,-2.2607,-2.2024,-2.1695,-2.1695,-2.156,-2.148,-2.148,-2.1385,-2.1304,-2.1167,-2.1167,-2.1126,-2.1003,-2.1003,-2.1003,-2.1003,-2.1003,-2.0959,-1.8893,-1.9684,-2.0718,-2.2261,-2.3038,-2.38,-2.5163,-2.5748,-2.6065,-2.637,-2.642,-2.6522,-2.6843,-2.6539,-2.6336,-2.664,-2.7063,-2.7351,-2.7351,-2.774,-2.7858,-2.7402,-2.7351,-2.7774,-2.8873,-2.9011,-2.977,-3.1681,-3.2144,-3.2645,-3.3423,-3.3717,-3.4124,-3.4731,-3.4655,-3.4742,-3.4899,-3.4899,-3.4899,-3.4899,-3.4994,-3.5105,-3.5291,-3.54,-3.5475,-3.5549,-3.5537,-3.5475,-3.5503,-3.5577,-3.5577,-3.5549,-3.5241,-3.504,-3.4779,-3.4024,-3.3278,-3.263,-3.2194,-3.2377,-3.2663,-3.182,-3.1326,-3.0847,-2.997,-2.91,-2.8288,-2.773,-2.7625,-2.7625,-2.7625,-2.7625,-2.755,-2.723,-2.7156,-2.6976,-2.6318,-2.6183,-2.5989,-2.533,-2.5196,-2.4986,-2.4313,-2.4193,-2.4059,-2.3655,-2.3595,-2.3595,-2.3595,-2.3595,-2.3595,-2.3595,-2.3595,-2.349,-2.3236,-2.2966,-2.2802,-2.2802,-2.276,-2.2718,-2.2649,-2.2649,-2.2522,-2.2308,-2.2322,-2.2221,-2.2135,-2.2135,-2.2135,-2.2135,-2.2135,-2.2323,-2.1009,-2.2092,-2.3227,-2.461,-2.5731,-2.6593,-2.7145,-2.7722,-2.8146,-2.8146,-2.7941,-2.7789,-2.7789,-2.7199,-2.6691,-2.6691,-2.7334,-2.7789,-2.7789,-2.8298,-2.845,-2.7892,-2.7603,-2.7892,-2.889,-2.9011,-2.9942,-3.2144,-3.2476,-3.3111,-3.4273,-3.4516,-3.4796,-3.5135,-3.5105,-3.5041,-3.4947,-3.4947,-3.4994,-3.4994,-3.5105,-3.5245,-3.5354,-3.5475,-3.5549,-3.5577,-3.5566,-3.5549,-3.5622,-3.5622,-3.5622,-3.5577,-3.5021,-3.5021,-3.5311,-3.4757,-3.413,-3.3484,-3.3259,-3.3456,-3.3634,-3.2688,-3.2208,-3.1758,-3.0665,-2.9693,-2.8783,-2.8132,-2.776,-2.7625,-2.776,-2.771,-2.761,-2.776,-2.771,-2.749,-2.6961,-2.6856,-2.6662,-2.6004,-2.5884,-2.5674,-2.5016,-2.4896,-2.4732,-2.4223,-2.4148,-2.4029,-2.3655,-2.3595,-2.3595,-2.3595,-2.3595,-2.3595,-2.3595,-2.3595,-2.3595,-2.3595,-2.3595,-2.3566,-2.3538,-2.3538,-2.3422,-2.3216,-2.3171,-2.3082,-2.2947,-2.2947,-2.2989,-2.3163,-2.3163,-2.3557,-2.2073,-2.3134,-2.4592,-2.6152,-2.7077,-2.7887,-2.8738,-2.896,-2.8941,-2.8941,-2.8349,-2.7789,-2.7789,-2.7199,-2.6691,-2.6691,-2.7334,-2.7789,-2.7789,-2.7806,-2.7806,-2.7789,-2.7182,-2.7317,-2.8839,-2.9011,-2.9942,-3.2144,-3.2949,-3.3694,-3.4455,-3.5082,-3.5412,-3.5291,-3.5152,-3.5088,-3.5088,-3.5088,-3.5152,-3.5291,-3.5291,-3.5337,-3.5492,-3.5549,-3.5577,-3.5622,-3.5577,-3.5577,-3.5622,-3.5622,-3.5622,-3.5577,-3.5021,-3.4833,-3.4816,-3.48,-3.5081,-3.5448,-3.4908,-3.475,-3.4655,-3.412,-3.3035,-3.1986,-3.1954,-3.0485,-2.877,-2.8755,-2.8222,-2.771,-2.8158,-2.7929,-2.771,-2.8158,-2.7929,-2.756,-2.7595,-2.7595,-2.735,-2.6692,-2.6557,-2.6363,-2.5689,-2.5585,-2.557,-2.5555,-2.5555,-2.5076,-2.3774,-2.3595,-2.3595,-2.3595,-2.3595,-2.3595,-2.3595,-2.3595,-2.3595,-2.3595,-2.3595,-2.3595,-2.361,-2.361,-2.3566,-2.3509,-2.3363,-2.3246,-2.3082,-2.2947,-2.3207,-2.3862,-2.3862,-2.4225,-2.3553,-2.5107,-2.6825,-2.7924,-2.8752,-2.9495,-3.0277,-3.0446,-3.0311,-2.9837,-2.8721,-2.7672,-2.7165,-2.6471,-2.5981,-2.5981,-2.7452,-2.8602,-2.8602,-2.9448,-2.9702,-2.8704,-2.8805,-2.8975,-2.9011,-2.8938,-2.9977,-3.2689,-3.2631,-3.3227,-3.4959,-3.4869,-3.488,-3.5182,-3.5198,-3.5198,-3.5088,-3.5088,-3.5152,-3.5291,-3.54,-3.5475,-3.5549,-3.5577,-3.5622,-3.5622,-3.5622,-3.5622,-3.5622,-3.5622,-3.5622,-3.5515,-3.4625,-3.4721,-3.5224,-3.4529,-3.4816,-3.5515,-3.4975,-3.4769,-3.4673,-3.3767,-3.3129,-3.2599,-3.1612,-3.054,-2.9485,-2.8854,-2.8374,-2.8027,-2.7894,-2.7929,-2.8027,-2.7894,-2.771,-2.7625,-2.7625,-2.7625,-2.75,-2.729,-2.7245,-2.7036,-2.6378,-2.6258,-2.6108,-2.5674,-2.5615,-2.5285,-2.4403,-2.4283,-2.4103,-2.3655,-2.3595,-2.3595,-2.3595,-2.3595,-2.3595,-2.3595,-2.3595,-2.3804,-2.4268,-2.4283,-2.4403,-2.4743,-2.4697,-2.4619,-2.4447,-2.44,-2.4422,-2.4559,-2.453,-2.4863,-2.5067,-2.6691,-2.8345,-2.9194,-2.9939,-3.0615,-3.1089,-3.1004,-3.0598,-2.9854,-2.8484,-2.7182,-2.6437,-2.5693,-2.5287,-2.5558,-2.7266,-2.867,-2.8941,-3.004,-3.0463,-2.9499,-2.9583,-2.9617,-2.9343,-2.945,-3.0532,-3.2992,-3.2505,-3.2959,-3.4818,-3.4617,-3.4566,-3.481,-3.514,-3.5245,-3.5198,-3.5198,-3.5245,-3.5412,-3.5503,-3.5549,-3.5622,-3.5622,-3.5622,-3.5622,-3.5622,-3.5622,-3.5622,-3.5622,-3.5622,-3.5515,-3.4625,-3.4721,-3.5224,-3.4529,-3.4721,-3.527,-3.5131,-3.4975,-3.4673,-3.402,-3.3614,-3.324,-3.209,-3.1167,-3.0433,-2.9863,-2.9159,-2.8624,-2.8541,-2.8406,-2.8207,-2.7929,-2.771,-2.7625,-2.7625,-2.7625,-2.7625,-2.7625,-2.7625,-2.749,-2.7021,-2.6946,-2.6797,-2.6378,-2.6303,-2.5989,-2.5091,-2.4986,-2.4807,-2.4358,-2.4313,-2.4313,-2.4313,-2.4313,-2.4313,-2.4313,-2.4313,-2.4522,-2.4956,-2.4986,-2.5088,-2.5396,-2.5396,-2.5316,-2.5125,-2.5091,-2.5175,-2.5311,-2.5183,-2.5531,-2.6623,-2.7926,-2.9262,-2.9989,-3.0683,-3.119,-3.114,-3.0581,-2.982,-2.8975,-2.7588,-2.6285,-2.5524,-2.4847,-2.4661,-2.5372,-2.681,-2.8095,-2.8873,-2.9634,-3.0125,-3.0159,-2.9567,-2.936,-2.9888,-3.0493,-3.1515,-3.3009,-3.2596,-3.2849,-3.4229,-3.4368,-3.4428,-3.4364,-3.4952,-3.5291,-3.5291,-3.5291,-3.5429,-3.5622,-3.5622,-3.5622,-3.5622,-3.5622,-3.5622,-3.5622,-3.5622,-3.5622,-3.5622,-3.5622,-3.5622,-3.5577,-3.5021,-3.4833,-3.4833,-3.4816,-3.4833,-3.4927,-3.5424,-3.5224,-3.4769,-3.4769,-3.4399,-3.3781,-3.3214,-3.2357,-3.1632,-3.1632,-3.0536,-2.95,-3.0085,-2.9296,-2.8384,-2.8352,-2.7978,-2.761,-2.7675,-2.766,-2.7625,-2.7625,-2.7625,-2.7625,-2.7625,-2.7625,-2.7625,-2.7625,-2.7625,-2.7111,-2.5824,-2.5659,-2.5644,-2.5615,-2.5615,-2.5615,-2.5615,-2.5615,-2.5615,-2.5615,-2.5615,-2.563,-2.5659,-2.5659,-2.5627,-2.55,-2.55,-2.5453,-2.5295,-2.5228,-2.5502,-2.6052,-2.5937,-2.6184,-2.8197,-2.9482,-3.0666,-3.0869,-3.1055,-3.1055,-3.0514,-2.9803,-2.8738,-2.686,-2.527,-2.3849,-2.2547,-2.3054,-2.3731,-2.3934,-2.6133,-2.8095,-2.8873,-2.9634,-3.0311,-3.0852,-3.1224,-3.1252,-3.0763,-3.1443,-3.2049,-3.227,-3.1992,-3.2467,-3.413,-3.3634,-3.3896,-3.5155,-3.5191,-3.5198,-3.5291,-3.54,-3.552,-3.5622,-3.5622,-3.5622,-3.5622,-3.5622,-3.5622,-3.5622,-3.5622,-3.5622,-3.5622,-3.5622,-3.5622,-3.5577,-3.5021,-3.5021,-3.5333,-3.4927,-3.5068,-3.5424,-3.556,-3.5224,-3.4769,-3.4769,-3.4448,-3.3885,-3.3547,-3.295,-3.2292,-3.2104,-3.1323,-3.0447,-3.0275,-2.9828,-2.9332,-2.8982,-2.8496,-2.8207,-2.8654,-2.84,-2.811,-2.811,-2.7845,-2.7625,-2.7625,-2.7625,-2.7625,-2.7625,-2.7625,-2.7275,-2.6437,-2.6348,-2.6153,-2.5659,-2.5615,-2.5615,-2.5615,-2.5615,-2.5615,-2.5615,-2.5615,-2.5824,-2.6318,-2.6348,-2.6572,-2.7051,-2.6932,-2.6831,-2.668,-2.668,-2.6616,-2.6585,-2.6637,-2.6724,-2.9262,-3.0311,-3.1123,-3.0801,-3.0717,-3.0429,-2.9347,-2.8281,-2.6962,-2.5033,-2.346,-2.2057,-2.0889,-2.1634,-2.2632,-2.3291,-2.5609,-2.7723,-2.8822,-2.9905,-3.0852,-3.1596,-3.1749,-3.1725,-3.1479,-3.189,-3.195,-3.1383,-3.1692,-3.2419,-3.3617,-3.3627,-3.4007,-3.4897,-3.5078,-3.5198,-3.5198,-3.5354,-3.5475,-3.5549,-3.5577,-3.5622,-3.5622,-3.5622,-3.5622,-3.5622,-3.5622,-3.5622,-3.5622,-3.5622,-3.5622,-3.5577,-3.527,-3.5333,-3.556,-3.527,-3.5316,-3.5622,-3.5622,-3.5424,-3.5178,-3.5178,-3.4944,-3.4561,-3.4119,-3.3629,-3.3272,-3.3088,-3.2241,-3.1302,-3.1068,-3.0406,-2.9617,-2.8919,-2.8685,-2.8685,-2.8732,-2.8685,-2.8638,-2.8638,-2.8463,-2.8286,-2.8286,-2.8286,-2.8082,-2.7549,-2.7455,-2.7285,-2.6681,-2.6841,-2.6767,-2.6108,-2.6303,-2.6243,-2.5659,-2.6138,-2.6348,-2.6063,-2.6318,-2.6632,-2.7006,-2.7021,-2.7066,-2.7056,-2.7303,-2.7202,-2.6754,-2.6997,-2.7041,-2.6899,-2.6899,-2.6899,-3.0023,-3.0717,-3.1021,-3.0294,-3.004,-2.9567,-2.8027,-2.637,-2.4746,-2.3257,-2.1769,-2.05,-1.9697,-2.0467,-2.1634,-2.3021,-2.5101,-2.708,-2.8619,-3.0023,-3.1241,-3.2171,-3.1732,-3.155,-3.2102,-3.2085,-3.1575,-3.0618,-3.1607,-3.247,-3.2954,-3.3826,-3.428,-3.4308,-3.4927,-3.5198,-3.5088,-3.5245,-3.5354,-3.5492,-3.5549,-3.5622,-3.5622,-3.5622,-3.5622,-3.5622,-3.5622,-3.5622,-3.5622,-3.5622,-3.5622,-3.5622,-3.5622,-3.5622,-3.5622,-3.5622,-3.5622,-3.5622,-3.5622,-3.5622,-3.5622,-3.5622,-3.5549,-3.5383,-3.4738,-3.448,-3.435,-3.4234,-3.3145,-3.2024,-3.2087,-3.1014,-2.9645,-2.881,-2.8919,-2.9074,-2.867,-2.8919,-2.9166,-2.9166,-2.912,-2.9058,-2.8963,-2.9027,-2.8668,-2.7411,-2.7319,-2.7179,-2.6597,-2.701,-2.7126,-2.6632,-2.7021,-2.6841,-2.5704,-2.6662,-2.7066,-2.6497,-2.6991,-2.7305,-2.7305,-2.7305,-2.7046,-2.6436,-2.6985,-2.698,-2.6341,-2.6828,-2.7003,-2.6951,-2.6899,-2.6832,-3.0632,-3.1106,-3.1021,-3.0294,-2.9634,-2.8772,-2.7232,-2.4814,-2.2446,-2.0897,-1.9435,-1.8166,-1.7405,-1.9425,-2.1465,-2.2361,-2.4357,-2.6319,-2.7807,-2.8789,-3.0129,-3.2053,-3.2171,-3.2309,-3.2856,-3.2396,-3.1683,-3.0758,-3.1516,-3.2294,-3.2884,-3.299,-3.3578,-3.4714,-3.5038,-3.5135,-3.5088,-3.5245,-3.5354,-3.5492,-3.5549,-3.5622,-3.5622,-3.5622,-3.5622,-3.5622,-3.5622,-3.5622,-3.5622,-3.5622,-3.5622,-3.5622,-3.5622,-3.5622,-3.5622,-3.5622,-3.5622,-3.5622,-3.5622,-3.5622,-3.5622,-3.5622,-3.5577,-3.5549,-3.5367,-3.5274,-3.5245,-3.4994,-3.3868,-3.268,-3.259,-3.1473,-3.0326,-3.0156,-2.9881,-2.975,-3.0054,-2.9881,-2.9661,-2.9661,-2.9348,-2.89,-2.8316,-2.8695,-2.8602,-2.7165,-2.7491,-2.7498,-2.6382,-2.6089,-2.6108,-2.6542,-2.6213,-2.5854,-2.563,-2.5809,-2.5899,-2.5779,-2.5884,-2.5959,-2.5959,-2.5959,-2.6153,-2.6538,-2.6574,-2.6692,-2.7004,-2.7122,-2.7026,-2.6846,-2.6899,-2.6899,-3.0328,-3.0345,-2.9956,-2.9617,-2.8653,-2.73,-2.5406,-2.297,-2.0677,-1.9157,-1.7693,-1.6661,-1.6699,-1.8206,-1.9925,-2.1481,-2.3257,-2.5101,-2.6979,-2.8247,-2.9841,-3.2059,-3.2313,-3.2647,-3.3577,-3.2714,-3.1809,-3.1207,-3.1199,-3.1707,-3.284,-3.3516,-3.4217,-3.4977,-3.4994,-3.4994,-3.4994,-3.5198,-3.5337,-3.54,-3.5549,-3.5622,-3.5622,-3.5622,-3.5622,-3.5622,-3.5622,-3.5622,-3.5622,-3.5622,-3.5622,-3.5622,-3.5622,-3.5622,-3.5622,-3.5622,-3.5622,-3.5622,-3.5622,-3.5622,-3.5622,-3.5622,-3.5622,-3.5577,-3.5537,-3.5492,-3.5446,-3.5245,-3.413,-3.2977,-3.2829,-3.1705,-3.051,-3.0199,-2.9984,-2.9941,-3.0384,-3.0342,-3.0156,-3.0156,-2.9984,-2.961,-2.8854,-2.9016,-2.8656,-2.699,-2.6862,-2.6659,-2.5854,-2.5032,-2.4822,-2.5495,-2.56,-2.533,-2.4627,-2.5211,-2.5465,-2.5121,-2.542,-2.5615,-2.5615,-2.5615,-2.5749,-2.6078,-2.6228,-2.6421,-2.668,-2.6865,-2.6937,-2.6779,-2.6899,-2.6846,-2.9617,-2.9431,-2.8941,-2.8772,-2.7588,-2.593,-2.3866,-2.1397,-1.9157,-1.7845,-1.639,-1.5595,-1.6343,-1.7202,-1.8555,-2.0848,-2.2293,-2.3934,-2.615,-2.7774,-2.9499,-3.1562,-3.2087,-3.2731,-3.3862,-3.2763,-3.1892,-3.162,-3.1222,-3.1464,-3.258,-3.3769,-3.4549,-3.4808,-3.4714,-3.4733,-3.4899,-3.5152,-3.5245,-3.5245,-3.5458,-3.5594,-3.5594,-3.5577,-3.5622,-3.5622,-3.5622,-3.5622,-3.5622,-3.5622,-3.5622,-3.5622,-3.5622,-3.5622,-3.5622,-3.5622,-3.5622,-3.5622,-3.5622,-3.5622,-3.5622,-3.5622,-3.5622,-3.5577,-3.552,-3.5537,-3.5492,-3.54,-3.4399,-3.3299,-3.3028,-3.195,-3.0767,-3.0103,-2.9941,-3.007,-3.0426,-3.0526,-3.0526,-3.0526,-3.0526,-3.0228,-2.935,-2.9317,-2.8735,-2.6814,-2.6294,-2.5898,-2.5315,-2.4356,-2.3891,-2.4343,-2.4866,-2.4747,-2.3684,-2.4567,-2.4956,-2.4433,-2.4896,-2.5181,-2.5181,-2.5181,-2.5315,-2.56,-2.5931,-2.6184,-2.6415,-2.674,-2.6832,-2.6779,-2.6779,-2.6779,-2.8687,-2.9025,-2.8805,-2.8112,-2.681,-2.5304,-2.3748,-2.0602,-1.7777,-1.6987,-1.5629,-1.4834,-1.5561,-1.6847,-1.8555,-2.0848,0.0,-2.3173,-2.5406,-2.6996,-2.8518,-3.0125,-3.1478,-3.2529,-3.3115,-3.2462,-3.1892,-3.162,-3.2166,-3.2266,-3.1752,-3.2464,-3.3193,-3.3918,-3.3889,-3.422,-3.4883,-3.5041,-3.5105,-3.5105,-3.5383,-3.5492,-3.5492,-3.5594,-3.5622,-3.5622,-3.5622,-3.5622,-3.5622,-3.5622,-3.5622,-3.5622,-3.5622,-3.5622,-3.5622,-3.5622,-3.5622,-3.5622,-3.5622,-3.5622,-3.5622,-3.5622,-3.5622,-3.5622,-3.5577,-3.5577,-3.5594,-3.5475,-3.4903,-3.4112,-3.3265,-3.2393,-3.1482,-3.0634,-3.0426,-3.0443,-3.0468,-3.0526,-3.0526,-3.0526,-3.0526,-3.0079,-2.8704,-2.9003,-2.8665,-2.6545,-2.639,-2.6149,-2.5076,-2.4523,-2.4109,-2.3728,-2.3744,-2.3729,-2.361,-2.3714,-2.3759,-2.3699,-2.3744,-2.3789,-2.3789,-2.3789,-2.4358,-2.5585,-2.5627,-2.6143,-2.7093,-2.7152,-2.7026,-2.6779,-2.6779,-2.6779,-2.7317,-2.7604,-2.7638,-2.7791,-2.637,-2.4543,-2.3071,-2.0196,-1.7473,-1.6272,-1.4851,-1.4191,-1.5375,-1.5731,-1.6695,0.0,0.0,0.0,-2.2632,-2.4222,-2.6048,-2.845,-3.0446,-3.2208,-3.3617,-3.35,-3.3028,-3.2299,-3.2531,-3.2564,-3.2282,-3.3375,-3.3955,-3.3789,-3.422,-3.4386,-3.4237,-3.4825,-3.5088,-3.5088,-3.5383,-3.5492,-3.5492,-3.5594,-3.5622,-3.5622,-3.5622,-3.5622,-3.5622,-3.5622,-3.5622,-3.5622,-3.5622,-3.5622,-3.5622,-3.5622,-3.5622,-3.5622,-3.5622,-3.5622,-3.5622,-3.5622,-3.5622,-3.5622,-3.5622,-3.5622,-3.5577,-3.5549,-3.5009,-3.4267,-3.3429,-3.2168,-3.1058,-3.0717,-3.0568,-3.0526,-3.0526,-3.0526,-3.0526,-3.0526,-3.0162,-2.9533,-2.8555,-2.8014,-2.7283,-2.5954,-2.547,-2.5154,-2.495,-2.4533,-2.4219,-2.4036,-2.3782,-2.3759,-2.4178,-2.4223,-2.4223,-2.4223,-2.4223,-2.4223,-2.4223,-2.4223,-2.4837,-2.6183,-2.6117,-2.648,-2.7335,-2.7144,-2.7041,-2.6899,-2.6846,-2.6779,-2.5778,-2.6048,-2.6167,-2.6691,-2.549,-2.3782,-2.231,-1.9824,-1.7388,-1.59,-1.4429,-1.3786,-1.5037,-1.5037,-1.5663,0.0,0.0,-1.8879,-2.1184,-2.2772,-2.463,-2.7112,-2.9407,-3.1544,-3.3322,-3.3846,-3.3772,-3.3106,-3.3011,-3.311,-3.3326,-3.4336,-3.4551,-3.3806,-3.4286,-3.4419,-3.4121,-3.4728,-3.5041,-3.5041,-3.5291,-3.5446,-3.5446,-3.5549,-3.5622,-3.5622,-3.5622,-3.5622,-3.5622,-3.5622,-3.5487,-3.5318,-3.5537,-3.5487,-3.5318,-3.5537,-3.5622,-3.5622,-3.5622,-3.547,-3.5318,-3.5537,-3.547,-3.5334,-3.5554,-3.5622,-3.5622,-3.5622,-3.4928,-3.4066,-3.3465,-3.2035,-3.0773,-3.0692,-3.0609,-3.0568,-3.0526,-3.0526,-3.0526,-3.0526,-3.0096,-2.945,-2.8539,-2.7679,-2.6798,-2.5852,-2.5098,-2.4759,-2.5059,-2.4719,-2.4492,-2.4492,-2.4246,-2.422,-2.4582,-2.4761,-2.4881,-2.4881,-2.4881,-2.4881,-2.4881,-2.4881,-2.545,-2.6572,-2.6504,-2.6783,-2.7401,-2.7196,-2.7143,-2.7267,-2.7161,-2.7312,-2.4103,-2.4523,-2.4523,-2.454,-2.3951,-2.3021,-2.1559,-1.9435,-1.7388,-1.59,-1.4429,-1.3633,-1.4359,-1.5105,-1.6086,-1.7574,0.0,0.0,-2.1877,-2.3472,-2.4923,-2.6352,-2.8538,-3.0432,-3.1691,-3.3051,-3.3789,-3.3773,-3.3773,-3.4104,-3.4833,-3.4883,-3.4551,-3.3806,-3.3806,-3.4154,-3.4883,-3.4899,-3.4899,-3.4899,-3.5198,-3.5291,-3.5291,-3.5503,-3.5622,-3.5622,-3.5622,-3.5622,-3.5622,-3.5622,-3.5182,-3.4573,-3.5318,-3.5165,-3.459,-3.5351,-3.5622,-3.5622,-3.5622,-3.5131,-3.4624,-3.5368,-3.5115,-3.4641,-3.5402,-3.5622,-3.5622,-3.5622,-3.4556,-3.3381,-3.333,-3.216,-3.0935,-3.0733,-3.0692,-3.0651,-3.0526,-3.0526,-3.0526,-3.0526,-3.0468,-3.0046,-2.8622,-2.8373,-2.7876,-2.6419,-2.5775,-2.5503,-2.5503,-2.5121,-2.4902,-2.4902,-2.5139,-2.5085,-2.4627,-2.5226,-2.56,-2.56,-2.56,-2.56,-2.56,-2.56,-2.5914,-2.6572,-2.6587,-2.6882,-2.7401,-2.7401,-2.7558,-2.7896,-2.7896,-2.8473,-2.1312,-2.182,-2.2254,-2.2254,-2.1651,-2.0812,-1.9849,-1.8255,-1.6564,-1.5025,-1.3933,-1.3479,-1.4217,-1.4151,-1.4961,-1.8059,0.0,0.0,-2.1059,-2.261,-2.4041,-2.5497,-2.941,-3.2527,-3.3906,-3.4379,-3.4551,-3.4551,-3.4551,-3.4698,-3.5024,-3.5041,-3.4662,-3.3822,-3.4286,-3.4419,-3.4137,-3.4651,-3.4899,-3.4899,-3.5198,-3.5291,-3.5291,-3.5503,-3.5622,-3.5588,-3.5081,-3.4844,-3.481,-3.4303,-3.3964,-3.3778,-3.4015,-3.3964,-3.3778,-3.4015,-3.4117,-3.4117,-3.4117,-3.3947,-3.388,-3.4607,-3.4692,-3.4641,-3.5402,-3.5622,-3.5622,-3.5622,-3.4912,-3.4032,-3.3499,-3.2538,-3.1597,-3.1053,-3.0855,-3.079,-3.0651,-3.0651,-3.0609,-3.0526,-3.0112,-2.9466,-2.8539,-2.7734,-2.6853,-2.5868,-2.5368,-2.5198,-2.5465,-2.5389,-2.5313,-2.5313,-2.627,-2.6556,-2.5741,-2.6072,-2.6273,-2.6273,-2.6273,-2.6482,-2.6931,-2.6946,-2.7485,-2.8607,-2.8188,-2.8293,-2.8898,-2.833,-2.8275,-2.8569,-2.8473,-2.8868,-1.8913,-1.9529,-1.99,-1.99,-1.9529,-1.8923,-1.8198,-1.7064,-1.5832,-1.4548,-1.3711,-1.3344,-1.3795,-1.3962,-1.4802,-1.7199,-1.7803,-1.8676,-2.0642,-2.2391,-2.4229,-2.6282,-2.9985,-3.2768,-3.3665,-3.4466,-3.4899,-3.4899,-3.4899,-3.4947,-3.5088,-3.5088,-3.4872,-3.4376,-3.4808,-3.4825,-3.4313,-3.4761,-3.4947,-3.4899,-3.5198,-3.5157,-3.4889,-3.5082,-3.5047,-3.4776,-3.4573,-3.4336,0.0,-3.3897,-3.3491,-3.3,-3.3288,-3.3237,-3.3017,-3.3305,-3.3406,-3.3406,-3.3406,-3.3406,-3.3525,-3.4252,-3.4692,-3.5013,-3.547,-3.5622,-3.5622,-3.5622,-3.5081,-3.432,-3.3592,-3.279,-3.1965,-3.12,-3.0975,-3.0912,-3.079,-3.079,-3.0733,-3.0651,-3.0011,-2.9224,-2.8566,-2.7575,-2.6591,-2.5873,-2.5551,-2.546,-2.5738,-2.5758,-2.5758,-2.5758,-2.661,-2.6981,-2.6523,-2.6916,-2.7191,-2.701,-2.6961,-2.7141,-2.761,-2.7814,-2.8353,-2.919,-2.9056,-2.9175,-2.9579,-2.9253,-2.9153,-2.9369,-2.9391,-2.961,0.0,-1.7468,-1.7479,-1.7541,-1.7502,-1.7272,-1.6579,-1.5912,0.0,-1.4381,-1.3678,-1.3226,-1.3326,-1.4429,-1.5432,-1.575,-1.7459,-1.9284,-2.0822,-2.2934,-2.5379,-2.8222,-3.0369,-3.1626,-3.1725,-3.3624,-3.4833,-3.4899,-3.4899,-3.4994,-3.5105,-3.5152,-3.5198,-3.5337,-3.5287,-3.5195,-3.5088,-3.5038,-3.4911,-3.4816,-3.5065,-3.4789,-3.4136,-3.4351,-3.4049,-3.344,-3.4066,-3.3947,-3.3372,-3.3998,-3.344,-3.2273,-3.2983,-3.2814,-3.229,-3.2983,-3.3254,-3.3254,-3.3254,-3.3288,-3.3457,-3.4235,-3.5013,-3.5622,-3.5622,-3.5622,-3.5622,-3.5622,-3.5115,-3.4404,-3.3677,-3.2933,-3.2171,-3.1308,-3.1049,-3.0975,-3.0912,-3.0912,-3.0895,-3.0845,-3.0139,-2.9343,-2.8577,-2.7802,-2.7068,-2.6319,-2.622,-2.622,-2.622,-2.622,-2.622,-2.622,-2.639,-2.6639,-2.6835,-2.769,-2.8064,-2.7625,-2.7625,-2.764,-2.7685,-2.8263,-2.8622,-2.8667,-2.931,-2.9639,-2.9639,-3.0033,-3.0188,-3.0203,-3.0484,-3.0628,-1.4126,0.0,-1.5104,-1.5121,-1.5104,-1.5051,0.0,-1.4713,-1.436,-1.3536,-1.3254,-1.3469,-1.4602,-1.4632,-1.5616,-1.9052,-1.9924,-2.0943,-2.3017,-2.5178,-2.7201,-2.8992,-3.0626,-3.205,-3.3176,-3.3848,-3.4442,-3.5008,-3.5152,-3.5245,-3.54,-3.54,-3.5429,-3.5549,-3.4975,-3.4824,-3.5088,-3.4429,-3.4101,-3.4038,-3.3734,-3.3533,-3.3366,-3.3549,-3.3558,-3.3389,-3.2983,-3.2696,-3.251,-3.2121,-3.1765,-3.1461,-3.1647,-3.1613,-3.1461,-3.1647,-3.1715,-3.1715,-3.1715,-3.2087,-3.2763,-3.4066,-3.5013,-3.5622,-3.5622,-3.5622,-3.5622,-3.5622,-3.5504,-3.5182,-3.4438,-3.3694,-3.2949,-3.2165,-3.1556,-3.1112,-3.0975,-3.0992,-3.0767,-3.0101,-2.9772,-2.9176,-2.7894,-2.7454,-2.7068,-2.6319,-2.622,-2.622,-2.622,-2.622,-2.622,-2.622,-2.6739,-2.6973,-2.6607,-2.7139,-2.7511,-2.758,-2.7625,-2.7814,-2.8338,-2.8517,-2.8831,-2.934,-2.9968,-3.0283,-3.0283,-3.08,-3.0954,-3.0852,-3.0822,-3.0702,-1.2639,-1.3671,-1.4758,-1.4761,-1.4758,-1.4774,-1.4771,0.0,0.0,0.0,0.0,-1.3847,-1.4642,-1.5288,-1.6619,-1.9358,-2.0611,-2.2225,-2.5162,-2.6853,-2.8323,-2.9748,-3.0924,-3.1891,-3.2713,-3.32,-3.3656,-3.4056,-3.4514,-3.4834,-3.4936,-3.529,-3.552,-3.5577,-3.5188,-3.4886,-3.4681,-3.3901,-3.3445,-3.3276,-3.3073,-3.2871,-3.2596,-3.2732,-3.2655,-3.2391,-3.2307,-3.2087,-3.1782,-3.1715,-3.1495,-3.119,-3.119,-3.119,-3.119,-3.119,-3.119,-3.1241,-3.1579,-3.2391,-3.3491,-3.4641,-3.5284,-3.5622,-3.5622,-3.5622,-3.5622,-3.5622,-3.5622,-3.5368,-3.4269,-3.3694,-3.3136,-3.2036,-3.1478,-3.1106,-3.069,-3.0566,-3.0347,-2.9551,-2.9055,-2.8477,-2.769,-2.7164,-2.6706,-2.6324,-2.6239,-2.622,-2.622,-2.622,-2.622,-2.622,-2.6551,-2.6714,-2.6509,-2.7037,-2.7378,-2.741,-2.7728,-2.7976,-2.8113,-2.8427,-2.9041,-2.9983,-3.0328,-3.0657,-3.0971,-3.1172,-3.1234,-3.1087,-3.0895,-3.0702,-1.214,-1.3754,-1.535,-1.5163,-1.5296,-1.5442,-1.5325,0.0,0.0,0.0,0.0,0.0,-1.4804,-1.6481,-1.812,-1.9031,-2.0936,-2.3454,-2.6836,-2.7947,-2.887,-3.0195,-3.0964,-3.1504,-3.162,-3.233,-3.279,-3.295,-3.364,-3.4108,-3.4189,-3.4829,-3.5228,-3.5239,-3.511,-3.4622,-3.3896,-3.3349,-3.2884,-3.2531,-3.2503,-3.2181,-3.1683,-3.1717,-3.1465,-3.1089,-3.1753,-3.1708,-3.1241,-3.185,-3.1749,-3.119,-3.119,-3.119,-3.119,-3.119,-3.119,-3.1309,-3.2154,-3.3339,-3.4624,-3.5368,-3.5622,-3.5622,-3.5622,-3.5622,-3.5622,-3.5622,-3.5622,-3.5334,-3.4066,-3.3575,-3.3085,-3.1833,-3.1275,-3.0886,-3.0378,-3.0091,-2.9753,-2.911,-2.8294,-2.7649,-2.7549,-2.6853,-2.633,-2.6295,-2.6258,-2.6203,-2.622,-2.622,-2.622,-2.622,-2.622,-2.6253,-2.6448,-2.7129,-2.7496,-2.7287,-2.792,-2.8076,-2.7625,-2.8128,-2.8996,-3.0193,-3.0208,-3.0597,-3.1375,-3.1245,-3.113,-3.1087,-3.0955,-3.0762,-1.2808,-1.4431,-1.5502,-1.4598,-1.5325,-1.6072,-1.5442,0.0,0.0,0.0,0.0,0.0,0.0,-1.8625,-1.9915,-2.1897,-2.3553,-2.5226,-2.7052,-2.7947,-2.8671,-2.9483,-3.0228,-3.094,-3.1698,-3.1992,-3.2412,-3.31,-3.338,-3.3533,-3.3533,-3.3651,-3.3719,-3.3744,-3.3136,-3.2639,-3.2328,-3.2727,-3.253,-3.1785,-3.0865,-3.0391,-3.032,-3.0071,-3.0179,-3.0435,-3.0676,-3.0938,-3.1207,-3.1309,-3.1292,-3.119,-3.119,-3.119,-3.119,-3.119,-3.119,-3.1376,-3.2763,-3.3778,-3.4624,-3.5368,-3.5622,-3.5622,-3.5622,-3.5622,-3.5622,-3.5622,-3.5622,-3.5571,-3.5334,-3.4353,-3.3355,-3.3119,-3.163,-3.0412,-3.092,-3.004,-2.9127,-2.9045,-2.8294,-2.7498,-2.6892,-2.6587,-2.6434,-2.633,-2.6295,-2.6277,-2.6203,-2.622,-2.622,-2.622,-2.622,-2.6217,-2.6244,-2.6904,-2.7404,-2.7547,-2.8014,-2.8076,-2.7625,-2.773,-2.8098,-2.8876,-2.8891,-2.9475,-3.0657,-3.06,-3.08,-3.1087,-3.1087,-3.0895,-1.1476,-1.3202,-1.47,-1.4851,-1.6378,-1.7771,-1.7428,0.0,0.0,0.0,0.0,0.0,0.0,-1.9624,-2.1516,-2.3735,-2.4994,-2.6203,-2.7715,-2.8196,-2.8826,-2.9962,-3.0393,-3.0784,-3.1258,-3.1415,-3.159,-3.1967,-3.2478,-3.2797,-3.2797,-3.3186,-3.3364,-3.3355,-3.3018,-3.2563,-3.1909,-3.2183,-3.1881,-3.0981,-3.0234,-2.9941,-3.0011,-2.9908,-3.0038,-3.0293,-3.0699,-3.1015,-3.119,-3.119,-3.119,-3.119,-3.119,-3.119,-3.1241,-3.163,-3.2036,-3.2544,-3.3626,-3.4489,-3.5165,-3.5504,-3.5622,-3.5622,-3.5622,-3.5622,-3.5622,-3.5622,-3.5622,-3.552,-3.5115,-3.4218,-3.3305,-3.2899,-3.1715,-3.0565,-3.0108,-2.9465,-2.8738,-2.7909,-2.7418,-2.7045,-2.6708,-2.6606,-2.652,-2.6434,-2.6347,-2.6277,-2.6203,-2.622,-2.622,-2.622,-2.622,-2.6096,-2.5848,-2.6503,-2.7271,-2.8158,-2.8534,-2.8496,-2.7978,-2.7978,-2.8162,-2.8592,-2.8607,-2.9071,-2.9998,-3.0342,-3.0559,-3.0672,-3.0969,-3.0955,-1.0626,-1.2109,-1.3662,-1.5193,0.0,-1.8672,-1.9113,-1.8524,0.0,0.0,0.0,0.0,-1.9214,-2.1039,-2.3172,-2.506,-2.5839,-2.6687,-2.7964,-2.8184,-2.8771,-3.0299,-3.0466,-3.059,-3.0878,-3.0975,-3.1015,-3.1055,-3.1675,-3.2019,-3.2019,-3.2577,-3.2857,-3.2749,-3.2765,-3.2353,-3.1558,-3.1541,-3.1174,-3.0468,-3.0027,-2.9793,-2.9793,-2.9881,-2.9951,-3.0064,-3.0699,-3.1055,-3.1151,-3.119,-3.119,-3.119,-3.119,-3.1309,-3.1546,-3.2273,-3.3017,-3.3744,-3.4303,-3.4979,-3.5622,-3.5622,-3.5622,-3.5622,-3.5622,-3.5622,-3.5622,-3.5622,-3.5622,-3.5487,-3.4912,-3.4083,-3.3271,-3.2679,-3.1596,-3.0412,-2.9448,-2.8822,-2.8146,-2.7148,-2.6826,-2.6691,-2.6691,-2.6657,-2.6606,-2.652,-2.6399,-2.6312,-2.6203,-2.622,-2.6168,-2.6043,-2.6043,-2.5864,-2.5389,-2.6138,-2.7106,-2.8217,-2.8584,-2.8621,-2.8403,-2.8507,-2.8581,-2.8592,-2.8607,-2.8921,-2.9579,-3.0058,-3.0261,-3.0285,-3.0836,-3.0955,-1.1843,-1.2386,-1.2711,-1.5161,-1.6332,0.0,-1.9137,-1.9295,0.0,-2.0724,0.0,0.0,-2.2651,-2.3867,-2.5143,-2.5988,-2.6225,-2.6578,-2.7378,-2.7514,-2.8122,-2.9594,-2.9761,-3.0084,-3.0908,-3.0975,-3.1055,-3.119,-3.1241,-3.1275,-3.1275,-3.1326,-3.132,-3.1183,-3.1183,-3.1029,-3.0775,-3.0775,-3.07,-3.0468,-3.0027,-2.9572,-2.9166,-2.9289,-2.9348,-2.9329,-3.0064,-3.0617,-3.1015,-3.1151,-3.119,-3.119,-3.119,-3.1613,-3.229,-3.3051,-3.3795,-3.4421,-3.4472,-3.4979,-3.5622,-3.5622,-3.5622,-3.5622,-3.5622,-3.5622,-3.5622,-3.5622,-3.5622,-3.5605,-3.5554,-3.4489,-3.3389,-3.3339,-3.119,-2.9313,-2.9905,-2.8366,-2.7029,-2.7621,-2.7182,-2.6691,-2.6691,-2.6691,-2.664,-2.652,-2.6485,-2.6415,-2.6203,-2.622,-2.6026,-2.5594,-2.554,-2.5389,-2.4981,-2.6062,-2.6871,-2.7121,-2.7501,-2.7961,-2.8539,-2.9169,-2.9214,-2.8607,-2.8607,-2.8921,-2.9579,-2.9624,-2.9803,-3.0129,-3.0778,-3.0955,-1.0451,-1.1427,-1.2501,-1.5124,-1.6258,0.0,0.0,-2.0321,-2.1135,-2.2459,-2.3047,0.0,-2.4231,-2.478,-2.5412,-2.6125,-2.6347,-2.6684,-2.7367,-2.7504,-2.7908,-2.9022,-2.9139,-2.9295,-2.9711,-2.9783,-2.9783,-2.982,-2.982,-3.0023,-3.0497,-3.0531,-3.0656,-3.0935,-3.0952,-3.0692,-3.0156,-3.0156,-2.9984,-2.9617,-2.9438,-2.9438,-2.9528,-2.9332,-2.9406,-2.975,-3.0898,-3.1508,-3.1722,-3.2334,-3.2577,-3.2577,-3.2577,-3.2747,-3.3068,-3.3812,-3.4252,-3.4556,-3.503,-3.5385,-3.5622,-3.5622,-3.5622,-3.5537,-3.5064,-3.4912,-3.4912,-3.4912,-3.4912,-3.503,-3.5504,-3.4523,-3.3406,-3.3406,-3.1495,-2.9634,-2.9448,-2.8349,-2.7334,-2.7165,-2.6894,-2.6691,-2.6691,-2.6691,-2.664,-2.652,-2.6485,-2.6415,-2.622,-2.622,-2.6043,-2.554,-2.5137,-2.4863,-2.4902,-2.4854,-2.4825,-2.4882,-2.8021,-2.9623,-2.9042,-2.927,-2.9327,-2.9205,-2.8382,-2.8293,-2.8966,-2.9262,-2.9481,-2.9622,-3.0514,-3.0821,-1.0129,-1.1281,-1.2643,0.0,0.0,0.0,-1.9657,-2.102,-2.2234,-2.3665,-2.4228,-2.4693,-2.5446,-2.558,-2.5747,-2.6264,-2.6468,-2.6687,-2.7173,-2.7224,-2.7563,-2.841,-2.8494,-2.8631,-2.8958,-2.9011,-2.9011,-2.9011,-2.9011,-2.9211,-2.9736,-2.9753,-2.9897,-3.0208,-3.0224,-2.9912,-2.9358,-2.9442,-2.9323,-2.9029,-2.8979,-2.9166,-2.9572,-2.9691,-2.9923,-3.0359,-3.1791,-3.2437,-3.2471,-3.3119,-3.3406,-3.3423,-3.366,-3.3744,-3.3846,-3.4573,-3.4756,-3.469,-3.5194,-3.5333,-3.5328,-3.5093,-3.5116,-3.5131,-3.4387,-3.432,-3.4438,-3.4218,-3.432,-3.4556,-3.4844,-3.4336,-3.3744,-3.3744,-3.1884,-2.9973,-2.9448,-2.8349,-2.73,-2.6793,-2.6691,-2.6691,-2.6691,-2.6691,-2.6674,-2.6554,-2.652,-2.645,-2.6258,-2.6239,-2.6026,-2.5406,-2.4664,-2.4271,-2.4461,-2.3921,-2.3595,-2.3595,-2.6885,-2.9046,-2.9565,-2.9459,-2.9258,-2.8989,-2.8263,-2.8023,-2.8278,-2.8985,-2.9277,-2.9252,-3.0338,-3.0762,-1.1446,-1.2269,-1.313,0.0,0.0,0.0,-2.003,-2.1385,-2.2599,-2.4423,-2.571,-2.6485,-2.6485,-2.6382,-2.6347,-2.6485,-2.6554,-2.6572,-2.6606,-2.664,-2.6979,-2.7688,-2.7772,-2.8112,-2.889,-2.8958,-2.8958,-2.8958,-2.8958,-2.8958,-2.9011,-2.9011,-2.8901,-2.8716,-2.8716,-2.8603,-2.8412,-2.8592,-2.8767,-2.8884,-2.8635,-2.8701,-2.9152,-3.0357,-3.0862,-3.1001,-3.2442,-3.3098,-3.3098,-3.3339,-3.3423,-3.3491,-3.4218,-3.4506,-3.459,-3.5351,-3.527,-3.4769,-3.4816,-3.4769,-3.4653,-3.3955,-3.4041,-3.4353,-3.3609,-3.3897,-3.432,-3.3609,-3.3914,-3.4303,-3.3592,-3.3947,-3.4472,-3.4472,-3.2239,-3.0091,-3.0091,-2.8298,-2.6691,-2.6691,-2.6691,-2.6691,-2.6691,-2.6691,-2.6674,-2.6606,-2.6606,-2.6537,-2.633,-2.6347,-2.601,-2.502,-2.4131,-2.3595,-2.3595,-2.3595,-2.3595,-2.3595,-2.3595,-2.557,-3.0013,-2.9774,-2.8936,-2.7655,-2.8233,-2.8248,-2.7625,-2.8747,-2.9222,-2.9127,-3.028,-3.0702,-1.0354,-1.1954,0.0,-1.5184,0.0,0.0,0.0,-2.1636,0.0,0.0,-2.5389,-2.5885,-2.5775,-2.5937,-2.6082,-2.6134,-2.5957,-2.5997,-2.6607,-2.6436,-2.6468,-2.6962,-2.7029,-2.7114,-2.7351,-2.7368,-2.7368,-2.7368,-2.7368,-2.7604,-2.8146,-2.8163,-2.8345,-2.8774,-2.8716,-2.8472,-2.7987,-2.8062,-2.7772,-2.7174,-2.745,-2.8391,-2.987,-2.9814,-3.0178,-3.0975,-3.1892,-3.2337,-3.2488,-3.3702,-3.4167,-3.4252,-3.4996,-3.5284,-3.5318,-3.5537,-3.527,-3.475,-3.4237,-3.3867,-3.3451,-3.3102,-3.3095,-3.3155,-3.2748,-3.2763,-3.2899,-3.2679,-3.2763,-3.3,-3.3322,-3.3558,-3.3592,-3.3068,-3.1089,-2.9313,-2.9313,-2.7926,-2.6691,-2.6691,-2.6691,-2.6691,-2.6691,-2.6691,-2.6657,-2.6556,-2.6521,-2.6469,-2.6258,-2.6239,-2.6151,-2.5844,-2.4502,-2.3595,-2.3595,-2.3595,-2.3595,-2.3595,-2.3595,-2.4747,-2.7335,-2.747,-2.75,-2.7625,-2.6856,-2.6856,-2.7625,-2.8165,-2.8655,-2.9127,-3.0148,-3.0642,-1.1236,-1.2987,0.0,-1.6548,-1.8477,-2.033,-2.1873,0.0,-2.3349,-2.4736,-2.5346,-2.5535,-2.5406,-2.561,-2.5775,-2.5811,-2.5631,-2.5689,-2.6175,-2.6175,-2.6175,-2.6436,-2.6624,-2.6691,-2.6691,-2.6691,-2.6691,-2.6691,-2.6691,-2.6894,-2.7351,-2.7368,-2.7535,-2.7919,-2.788,-2.7644,-2.7235,-2.732,-2.713,-2.6577,-2.7057,-2.8026,-2.942,-2.9275,-2.9809,-3.0922,-3.2001,-3.2522,-3.2697,-3.3651,-3.4066,-3.4117,-3.4556,-3.4928,-3.5121,-3.4925,-3.4359,-3.3609,-3.2994,-3.2237,-3.1451,-3.1176,-3.1269,-3.1416,-3.1426,-3.1613,-3.185,-3.185,-3.2053,-3.2256,-3.2138,-3.2104,-3.2121,-3.2256,-3.0818,-2.9347,-2.9042,-2.7774,-2.6691,-2.6691,-2.6691,-2.6691,-2.6691,-2.6691,-2.6657,-2.6573,-2.6573,-2.6521,-2.6417,-2.6274,-2.622,-2.622,-2.5269,-2.4338,-2.3681,-2.3595,-2.3595,-2.3595,-2.3595,-2.4088,-2.5166,-2.5854,-2.6303,-2.6576,-2.5749,-2.5824,-2.6797,-2.7706,-2.8518,-2.9127,-3.0221,-3.0642,-1.3082,-1.4633,-1.6188,-1.8119,-1.9431,-2.0746,-2.2832,-2.3863,-2.4558,-2.5163,-2.5329,-2.5346,-2.5307,-2.5329,-2.5368,-2.5427,-2.5427,-2.5427,-2.5503,-2.5799,-2.6016,-2.6052,-2.6367,-2.6624,-2.6657,-2.6607,-2.6624,-2.6657,-2.6607,-2.6573,-2.6573,-2.6573,-2.6556,-2.6572,-2.6485,-2.6399,-2.633,-2.6578,-2.6716,-2.6787,-2.717,-2.7582,-2.8136,-2.8673,-2.9543,-3.0721,-3.2185,-3.2875,-3.3017,-3.3152,-3.3169,-3.3119,-3.3254,-3.3677,-3.4141,-3.3623,-3.2738,-3.172,-3.115,-3.0101,-2.9021,-2.8683,-2.8936,-2.943,-2.9875,-3.0425,-3.0948,-3.0987,-3.1461,-3.1681,-3.0362,-3.0006,-3.0328,-3.1579,-3.0869,-2.9719,-2.9025,-2.7723,-2.6691,-2.6691,-2.6691,-2.6691,-2.6691,-2.6691,-2.6691,-2.6691,-2.6691,-2.6691,-2.6657,-2.6399,-2.622,-2.622,-2.622,-2.5567,-2.3964,-2.3681,-2.3681,-2.3852,-2.3681,-2.3595,-2.3595,-2.4777,-2.5241,-2.4897,-2.4972,-2.5242,-2.5674,-2.7437,-2.8586,-2.923,-3.0309,-3.0702,-1.1969,-1.3585,0.0,-1.7556,-1.9914,-2.2018,-2.3047,-2.3823,-2.4362,-2.4502,-2.4735,-2.4855,-2.4574,-2.4799,-2.502,-2.502,-2.4744,-2.4799,-2.5427,-2.5313,-2.5275,-2.5577,-2.5726,-2.5872,-2.621,-2.5944,-2.5872,-2.621,-2.5944,-2.5762,-2.5762,-2.5762,-2.5888,-2.6191,-2.6154,-2.6206,-2.6434,-2.6584,-2.6438,-2.6126,-2.659,-2.6764,-2.6617,-2.7789,-2.8638,-2.9261,-2.9711,-2.9939,-3.0023,-3.119,-3.1326,-3.092,-3.207,-3.2273,-3.1861,-3.1416,-3.0833,-3.0138,-2.9188,-2.8582,-2.8218,-2.7991,-2.8013,-2.8216,-2.9026,-2.9127,-2.9092,-2.9374,-2.9604,-2.9617,-2.9313,-2.9228,-2.9144,-2.8856,-2.8552,-2.8264,-2.8112,-2.7334,-2.6691,-2.6691,-2.6691,-2.6691,-2.6691,-2.6691,-2.6691,-2.6691,-2.6691,-2.6607,-2.6329,-2.6239,-2.622,-2.622,-2.622,-2.6059,-2.568,-2.4379,-2.4173,-2.5551,-2.4379,-2.3595,-2.3595,-2.3879,-2.3984,-2.3894,-2.4642,-2.5392,-2.6123,-2.7586,-2.8838,-2.9923,-3.0529,-3.0702,-1.2328,0.0,0.0,-1.8709,0.0,-2.1957,-2.3031,-2.3579,-2.3917,-2.4241,-2.4426,-2.4508,-2.4343,-2.4451,-2.4599,-2.4599,-2.4451,-2.4451,-2.4863,-2.4902,-2.4981,-2.5198,-2.5389,-2.5577,-2.5799,-2.5615,-2.5577,-2.5799,-2.5615,-2.5577,-2.5799,-2.5799,-2.598,-2.635,-2.633,-2.6364,-2.6554,-2.6572,-2.6468,-2.6258,-2.6538,-2.6573,-2.6435,-2.7464,-2.7981,-2.8052,-2.8531,-2.8699,-2.8749,-2.952,-2.9736,-2.9651,-3.0185,-3.0432,-3.0296,-2.9632,-2.9022,-2.8485,-2.783,-2.7001,-2.626,-2.6567,-2.6652,-2.6834,-2.7844,-2.8146,-2.823,-2.8837,-2.9011,-2.889,-2.8518,-2.8518,-2.8383,-2.7486,-2.7554,-2.7688,-2.7351,-2.6962,-2.6691,-2.6691,-2.6691,-2.6691,-2.6691,-2.6691,-2.6691,-2.6691,-2.6572,-2.6399,-2.6203,-2.622,-2.622,-2.622,-2.622,-2.622,-2.622,-2.5362,-2.523,-2.6132,-2.4583,-2.3595,-2.3595,-2.3595,-2.348,-2.3275,-2.3852,-2.4878,-2.6228,-2.7291,-2.8547,-2.9985,-3.0529,-3.0702,-1.2643,0.0,-1.6744,-1.9899,-2.0883,-2.1452,-2.2686,-2.304,-2.3317,-2.3994,-2.4225,-2.4302,-2.4302,-2.4302,-2.4302,-2.4302,-2.4302,-2.4302,-2.4302,-2.4614,-2.4799,-2.4799,-2.5082,-2.5313,-2.5389,-2.5313,-2.5313,-2.5389,-2.5389,-2.554,-2.5872,-2.5908,-2.6104,-2.6573,-2.6469,-2.6452,-2.6606,-2.6606,-2.6606,-2.6606,-2.6674,-2.6691,-2.6708,-2.7334,-2.7394,-2.7048,-2.7715,-2.7942,-2.7904,-2.813,-2.8265,-2.8387,-2.8244,-2.8439,-2.8695,-2.7838,-2.7232,-2.6783,-2.6587,-2.5581,-2.4533,-2.5275,-2.5503,-2.5691,-2.6796,-2.7286,-2.7651,-2.8399,-2.8586,-2.8433,-2.7791,-2.7774,-2.774,-2.6894,-2.7182,-2.7452,-2.6826,-2.6691,-2.6691,-2.6691,-2.6691,-2.6691,-2.6691,-2.6691,-2.6691,-2.664,-2.6399,-2.622,-2.622,-2.622,-2.622,-2.622,-2.622,-2.622,-2.622,-2.5917,-2.577,-2.577,-2.442,-2.3595,-2.3595,-2.3595,-2.3392,-2.2978,-2.3333,-2.4486,-2.6385,-2.6916,-2.8057,-2.9666,-3.0338,-3.0601,-1.0817,0.0,-1.7166,0.0,-2.0218,-2.1191,-2.1501,-2.2009,-2.2609,-2.3302,-2.3902,-2.4302,-2.4302,-2.4302,-2.4302,-2.4302,-2.4302,-2.4302,-2.4302,-2.4343,-2.4385,-2.4385,-2.4426,-2.4599,-2.4942,-2.4679,-2.4599,-2.4942,-2.4981,-2.5005,-2.5059,-2.5059,-2.5389,-2.6175,-2.5835,-2.5941,-2.6572,-2.6657,-2.6657,-2.6606,-2.6674,-2.6691,-2.6691,-2.6793,-2.6621,-2.6253,-2.6352,-2.6204,-2.5956,-2.6932,-2.6817,-2.6048,-2.6986,-2.6829,-2.5978,-2.5512,-2.5266,-2.5147,-2.4772,-2.4729,-2.4902,-2.5351,-2.5503,-2.5668,-2.6519,-2.6535,-2.6412,-2.6894,-2.6996,-2.6979,-2.686,-2.686,-2.686,-2.6725,-2.6776,-2.6826,-2.6708,-2.6691,-2.6691,-2.6691,-2.6691,-2.6691,-2.6691,-2.6691,-2.6607,-2.6293,-2.6239,-2.622,-2.622,-2.622,-2.622,-2.622,-2.622,-2.622,-2.622,-2.4823,-2.3964,-2.3964,-2.3724,-2.3595,-2.3595,-2.3595,-2.348,-2.3231,-2.4103,-2.5313,-2.6997,-2.7137,-2.7836,-2.9063,-2.968,-2.9929,-1.19,-1.4202,-1.6407,0.0,-1.9584,-2.0297,-2.1116,-2.1553,-2.1916,-2.2594,-2.2963,-2.3409,-2.4164,-2.4302,-2.4302,-2.4302,-2.4302,-2.4302,-2.4302,-2.4302,-2.4302,-2.4302,-2.4302,-2.4385,-2.4533,-2.441,-2.4385,-2.4574,-2.4558,-2.4639,-2.4902,-2.5121,-2.5503,-2.6087,-2.6139,-2.6332,-2.6657,-2.6708,-2.6708,-2.664,-2.647,-2.635,-2.6367,-2.6123,-2.6052,-2.6104,-2.6104,-2.5872,-2.5535,-2.6031,-2.5945,-2.5535,-2.5805,-2.5587,-2.5137,-2.4719,-2.4558,-2.4558,-2.4599,-2.4599,-2.4679,-2.5313,-2.5351,-2.5275,-2.5835,-2.6052,-2.6139,-2.6315,-2.6539,-2.6691,-2.6691,-2.6691,-2.6691,-2.6691,-2.6691,-2.6691,-2.6691,-2.6691,-2.6691,-2.6691,-2.6691,-2.6691,-2.6691,-2.6538,-2.6364,-2.6203,-2.622,-2.622,-2.622,-2.622,-2.622,-2.622,-2.5307,-2.4744,-2.4744,-2.4048,-2.3595,-2.3595,-2.3595,-2.3595,-2.3595,-2.3595,-2.3523,-2.3319,-2.3658,-2.4493,-2.5827,-2.5906,-2.6703,-2.8254,-2.8545,-2.9013,0.0,0.0,-1.4934,-1.7456,-1.8544,-1.93,-2.0535,-2.0936,-2.126,-2.1901,-2.204,-2.2394,-2.3579,-2.3933,-2.4102,-2.4271,-2.4302,-2.4302,-2.4302,-2.4302,-2.4302,-2.4302,-2.4302,-2.4302,-2.4302,-2.4302,-2.4302,-2.4302,-2.4385,-2.4558,-2.4863,-2.5275,-2.5689,-2.6104,-2.6385,-2.659,-2.6691,-2.6691,-2.6657,-2.6539,-2.6245,-2.6104,-2.6104,-2.5689,-2.5652,-2.5944,-2.5835,-2.5577,-2.5198,-2.5313,-2.5275,-2.5176,-2.4981,-2.4823,-2.4719,-2.441,-2.4302,-2.4343,-2.4639,-2.4574,-2.4426,-2.5121,-2.5121,-2.4981,-2.5389,-2.5762,-2.6068,-2.6068,-2.635,-2.6691,-2.6691,-2.6691,-2.6691,-2.6691,-2.6691,-2.6691,-2.6691,-2.6691,-2.6691,-2.6691,-2.664,-2.6572,-2.6572,-2.6364,-2.622,-2.622,-2.622,-2.622,-2.622,-2.622,-2.622,-2.622,-2.4664,-2.3595,-2.3595,-2.3595,-2.3595,-2.3595,-2.3595,-2.3595,-2.3595,-2.3595,-2.348,-2.3275,-2.326,-2.3668,-2.4588,-2.4617,-2.5444,-2.6944,-2.7331,-2.7998,0.0,-1.1196,0.0,-1.4847,-1.6795,-1.8374,-1.9192,-1.9903,-2.0551,-2.1229,-2.1368,-2.1584,-2.2255,-2.2917,-2.3563,-2.421,-2.4302,-2.4302,-2.4302,-2.4302,-2.4302,-2.4302,-2.4302,-2.4302,-2.4302,-2.4302,-2.4302,-2.4302,-2.4639,-2.4863,-2.4902,-2.5275,-2.5689,-2.6104,-2.6139,-2.6315,-2.6691,-2.6691,-2.6505,-2.6123,-2.6087,-2.6104,-2.6104,-2.5689,-2.5503,-2.5503,-2.5137,-2.4719,-2.4385,-2.4744,-2.4719,-2.4385,-2.4759,-2.4679,-2.4343,-2.4302,-2.4302,-2.4302,-2.4302,-2.4302,-2.4385,-2.4784,-2.4902,-2.4981,-2.5389,-2.5689,-2.5908,-2.5908,-2.628,-2.6691,-2.6691,-2.6691,-2.6691,-2.6691,-2.6691,-2.6691,-2.6691,-2.6691,-2.6691,-2.6691,-2.6452,-2.6256,-2.6256,-2.6203,-2.622,-2.622,-2.622,-2.622,-2.622,-2.622,-2.622,-2.622,-2.4664,-2.3595,-2.3595,-2.3595,-2.3595,-2.3595,-2.3595,-2.3595,-2.3595,-2.3595,-2.3494,-2.3216,-2.3246,-2.3524,-2.3949,-2.3949,-2.4312,-2.4959,-2.6257,-2.6866,-0.9481,0.0,0.0,-1.3785,-1.5316,-1.6519,-1.7699,-1.8823,-1.9734,-1.9965,-2.0366,-2.0875,-2.1516,-2.2194,-2.2871,-2.3548,-2.3656,-2.381,-2.4241,-2.4302,-2.4302,-2.4302,-2.4302,-2.4302,-2.4302,-2.4302,-2.4302,-2.4302,-2.441,-2.4533,-2.4533,-2.4902,-2.5313,-2.5689,-2.598,-2.628,-2.6691,-2.6419,-2.6245,-2.6087,-2.5577,-2.5313,-2.5313,-2.4902,-2.4719,-2.4719,-2.4574,-2.4574,-2.4679,-2.4823,-2.4639,-2.4302,-2.4451,-2.4426,-2.4302,-2.4302,-2.4302,-2.4302,-2.4302,-2.4302,-2.4385,-2.4759,-2.4719,-2.4614,-2.5098,-2.5313,-2.5427,-2.5577,-2.6175,-2.6624,-2.628,-2.6436,-2.6691,-2.6691,-2.6691,-2.6691,-2.6691,-2.6607,-2.6555,-2.659,-2.6382,-2.622,-2.622,-2.622,-2.622,-2.622,-2.622,-2.622,-2.622,-2.622,-2.622,-2.622,-2.4664,-2.3595,-2.3595,-2.3595,-2.3595,-2.3595,-2.3595,-2.3595,-2.3595,-2.3595,-2.348,-2.3231,-2.329,-2.3304,-2.3235,-2.3235,-2.3601,-2.4254,-2.5125,-2.5981,-0.8829,0.0,0.0,-1.2712,-1.3925,-1.5006,-1.6793,-1.793,-1.8747,-1.9194,-1.9641,-2.0181,-2.0844,-2.1337,-2.1901,-2.2809,-2.2963,-2.3117,-2.3563,-2.3625,-2.3625,-2.3625,-2.3825,-2.3963,-2.3963,-2.4179,-2.4302,-2.4302,-2.4302,-2.4343,-2.4492,-2.4863,-2.5351,-2.5872,-2.6016,-2.6158,-2.628,-2.6016,-2.5835,-2.5689,-2.5176,-2.4902,-2.4902,-2.4492,-2.4302,-2.4302,-2.4302,-2.4451,-2.4719,-2.4719,-2.4533,-2.4302,-2.4302,-2.4302,-2.4302,-2.4302,-2.4302,-2.4302,-2.4302,-2.4302,-2.4343,-2.4599,-2.4533,-2.4385,-2.4719,-2.4823,-2.4942,-2.5389,-2.5689,-2.5799,-2.5465,-2.6016,-2.6691,-2.6691,-2.6691,-2.6691,-2.6674,-2.6623,-2.6572,-2.6504,-2.64,-2.6329,-2.6203,-2.622,-2.622,-2.622,-2.622,-2.622,-2.622,-2.622,-2.622,-2.622,-2.4664,-2.3595,-2.3595,-2.3595,-2.3595,-2.3595,-2.3595,-2.3595,-2.3595,-2.3595,-2.348,-2.326,-2.329,-2.3187,-2.2888,-2.2888,-2.3105,-2.3586,-2.4457,-2.5691,0.0,0.0,0.0,-1.155,-1.2605,-1.379,-1.644,-1.7085,-1.75,-1.8917,-1.921,-1.9441,-2.0119,-2.0273,-2.0705,-2.1993,-2.224,-2.227,-2.2286,-2.2286,-2.2286,-2.2286,-2.2871,-2.3271,-2.3271,-2.3871,-2.4241,-2.4241,-2.4241,-2.4405,-2.4831,-2.5259,-2.5872,-2.6657,-2.628,-2.5908,-2.554,-2.5503,-2.5275,-2.4902,-2.4902,-2.4863,-2.4863,-2.4492,-2.4302,-2.4302,-2.4302,-2.4302,-2.4302,-2.4302,-2.4302,-2.4302,-2.4302,-2.4302,-2.4302,-2.4302,-2.4302,-2.4302,-2.4302,-2.4302,-2.4302,-2.4302,-2.4302,-2.4302,-2.4302,-2.4302,-2.4451,-2.5275,-2.4942,-2.4385,-2.4385,-2.554,-2.6691,-2.6691,-2.6691,-2.6674,-2.6572,-2.6607,-2.664,-2.6452,-2.6538,-2.6572,-2.6239,-2.622,-2.622,-2.622,-2.622,-2.622,-2.622,-2.622,-2.622,-2.622,-2.4664,-2.3595,-2.3595,-2.3595,-2.3595,-2.3595,-2.3595,-2.3595,-2.3595,-2.3595,-2.3523,-2.3319,-2.3319,-2.3142,-2.2888,-2.2888,-2.2888,-2.2931,-2.4268,-2.5952,-0.7455,0.0,0.0,0.0,0.0,0.0,-1.2978,-1.4231,-1.5422,-1.6791,-1.7453,-1.8007,-1.8653,-1.9208,-1.9703,-2.0073,-2.0952,-2.1732,-2.2224,-2.2286,-2.2286,-2.2286,-2.2455,-2.2563,-2.2563,-2.2732,-2.284,-2.284,-2.284,-2.3095,-2.3692,-2.485,-2.5615,-2.5835,-2.6016,-2.6068,-2.5944,-2.5351,-2.502,-2.4902,-2.4614,-2.4451,-2.4451,-2.4343,-2.4302,-2.4302,-2.4302,-2.4302,-2.4302,-2.4302,-2.4302,-2.4302,-2.4302,-2.4302,-2.4302,-2.4302,-2.4302,-2.4302,-2.4302,-2.4302,-2.4302,-2.4302,-2.4302,-2.4302,-2.4302,-2.4302,-2.4451,-2.5275,-2.5762,-2.6033,-2.6033,-2.6175,-2.635,-2.6624,-2.6691,-2.6505,-2.5762,-2.6175,-2.6624,-2.6365,-2.6312,-2.6293,-2.622,-2.622,-2.622,-2.622,-2.622,-2.622,-2.622,-2.622,-2.622,-2.622,-2.4664,-2.3595,-2.3595,-2.3595,-2.3595,-2.3595,-2.3595,-2.3595,-2.3595,-2.3566,-2.3494,-2.3363,-2.3246,-2.3068,-2.2888,-2.2888,-2.2888,-2.2917,-2.3934,-2.4863,-0.8085,0.0,0.0,-0.9509,0.0,0.0,-1.2261,-1.3039,-1.3821,-1.5441,-1.6087,-1.6655,-1.7608,-1.8146,-1.8639,-1.9194,-1.9965,-2.0705,-2.1347,-2.1491,-2.1491,-2.1491,-2.1701,-2.187,-2.187,-2.2132,-2.2286,-2.2286,-2.2437,-2.2817,-2.3454,-2.462,-2.5265,-2.5265,-2.5468,-2.5615,-2.5615,-2.4981,-2.4639,-2.4639,-2.441,-2.4302,-2.4302,-2.4302,-2.4302,-2.4302,-2.4302,-2.4302,-2.4302,-2.4302,-2.4302,-2.4302,-2.4302,-2.4302,-2.4302,-2.4302,-2.4302,-2.4302,-2.4302,-2.4302,-2.4302,-2.4302,-2.4302,-2.4302,-2.4302,-2.4302,-2.4385,-2.4863,-2.5577,-2.6245,-2.635,-2.6104,-2.5944,-2.628,-2.6539,-2.6505,-2.5888,-2.6137,-2.6486,-2.6382,-2.6293,-2.622,-2.622,-2.5605,-2.5362,-2.6096,-2.622,-2.622,-2.622,-2.622,-2.5917,-2.5192,-2.4214,-2.3595,-2.3595,-2.3595,-2.3595,-2.3595,-2.3595,-2.3595,-2.3595,-2.3538,-2.3422,-2.3334,-2.3171,-2.3037,-2.2888,-2.2888,-2.2888,-2.2902,-2.3395,-2.4384,0.0,0.0,0.0,-1.0843,-1.0521,0.0,-1.2775,-1.2712,-1.2676,-1.4473,-1.4904,-1.5349,-1.6624,-1.6932,-1.7407,-1.8639,-1.8978,-1.9364,-2.0181,-2.0304,-2.0304,-2.0304,-2.0844,-2.1198,-2.1198,-2.1716,-2.207,-2.207,-2.2415,-2.2881,-2.3488,-2.4259,-2.4687,-2.4687,-2.4734,-2.4792,-2.4792,-2.4446,-2.4302,-2.4302,-2.4302,-2.4302,-2.4302,-2.4302,-2.4302,-2.4302,-2.4302,-2.4302,-2.4302,-2.4302,-2.4302,-2.4302,-2.4302,-2.4302,-2.4302,-2.4302,-2.4302,-2.4302,-2.4302,-2.4302,-2.4302,-2.4302,-2.4302,-2.4302,-2.4302,-2.4302,-2.4302,-2.4302,-2.4823,-2.5503,-2.5762,-2.5689,-2.5577,-2.5799,-2.628,-2.659,-2.626,-2.6026,-2.6043,-2.638,-2.631,-2.622,-2.622,-2.4744,-2.4131,-2.568,-2.5917,-2.5917,-2.5917,-2.5917,-2.5307,-2.3767,-2.3595,-2.3595,-2.3595,-2.3595,-2.3595,-2.3595,-2.3595,-2.3595,-2.3595,-2.3538,-2.3378,-2.3186,-2.3127,-2.3037,-2.2888,-2.2888,-2.2888,-2.2888,-2.2888,-2.4167,-0.922,-0.9655,-1.0235,-0.9563,-1.0086,0.0,-1.0277,-1.1013,-1.1931,-1.2448,-1.3099,-1.3836,-1.4652,-1.5237,-1.5672,-1.596,-1.6914,-1.8238,-2.0058,-2.0304,-2.0304,-2.0304,-2.0428,-2.0505,-2.0505,-2.0613,-2.0705,-2.0705,-2.1234,-2.1652,-2.178,-2.273,-2.3291,-2.3291,-2.3814,-2.4119,-2.4119,-2.4213,-2.4302,-2.4302,-2.4302,-2.4302,-2.4302,-2.4302,-2.4302,-2.4302,-2.4302,-2.4302,-2.4302,-2.4302,-2.4302,-2.4302,-2.4302,-2.4302,-2.4302,-2.4302,-2.4302,-2.4302,-2.4302,-2.4302,-2.4302,-2.4302,-2.4302,-2.4302,-2.4302,-2.4302,-2.4302,-2.4302,-2.4639,-2.5044,-2.5198,-2.554,-2.5762,-2.5411,-2.6052,-2.6229,-2.4536,-2.4116,-2.4527,-2.599,-2.622,-2.622,-2.622,-2.4744,-2.3724,-2.4048,-2.409,-2.409,-2.409,-2.409,-2.3964,-2.3638,-2.3595,-2.3595,-2.3595,-2.3595,-2.3595,-2.3595,-2.3595,-2.3595,-2.3595,-2.3436,-2.3231,-2.2947,-2.2947,-2.2947,-2.2888,-2.2888,-2.2888,-2.2888,-2.2888,-2.3163,-1.0044,-1.0234,-1.0637,-1.0315,-1.0409,0.0,0.0,-1.1023,-1.1448,-1.2149,-1.2514,-1.2945,-1.3797,-1.4093,-1.4421,-1.5098,-1.6041,-1.7055,-1.8115,-1.8823,-1.9254,-1.9254,-1.9595,-1.9795,-1.9795,-2.0104,-2.0373,-2.0543,-2.0821,-2.1077,-2.1232,-2.1929,-2.2307,-2.2307,-2.2823,-2.328,-2.3585,-2.3745,-2.3979,-2.4302,-2.4302,-2.4302,-2.4302,-2.4302,-2.4302,-2.4302,-2.4302,-2.4302,-2.4302,-2.4302,-2.4302,-2.4302,-2.4302,-2.4302,-2.4302,-2.4302,-2.4302,-2.4302,-2.4302,-2.4302,-2.4302,-2.4302,-2.4302,-2.4302,-2.4302,-2.4302,-2.4343,-2.4533,-2.4599,-2.4679,-2.502,-2.5082,-2.5044,-2.4823,-2.495,-2.4879,-2.3822,-2.3595,-2.3837,-2.4744,-2.4902,-2.4902,-2.4902,-2.4173,-2.3595,-2.3595,-2.3595,-2.3595,-2.3595,-2.3595,-2.3595,-2.3595,-2.3595,-2.3595,-2.3595,-2.3595,-2.3595,-2.3595,-2.3595,-2.3595,-2.3595,-2.3363,-2.3112,-2.2888,-2.2888,-2.2888,-2.2888,-2.2888,-2.2888,-2.2888,-2.2888,-2.2888,-1.122,-1.1139,-1.1288,-1.1532,-1.1168,-1.0922,0.0,0.0,0.0,-1.2043,-1.2155,-1.2368,-1.3181,-1.316,-1.3359,-1.4452,-1.5165,-1.561,-1.561,-1.6671,-1.7531,-1.7792,-1.8577,-1.904,-1.8917,-1.9395,-1.9865,-2.0253,-2.0252,-2.0397,-2.0799,-2.1201,-2.142,-2.142,-2.1858,-2.2363,-2.2902,-2.3163,-2.3579,-2.4117,-2.4241,-2.4302,-2.4302,-2.4302,-2.4302,-2.4302,-2.4302,-2.4302,-2.4302,-2.4302,-2.4302,-2.4302,-2.4302,-2.4302,-2.4302,-2.4302,-2.4302,-2.4302,-2.4302,-2.4302,-2.4302,-2.4302,-2.4302,-2.4302,-2.4302,-2.4302,-2.4385,-2.4679,-2.4533,-2.4385,-2.4799,-2.4614,-2.4219,-2.4219,-2.3909,-2.3595,-2.3595,-2.3595,-2.3595,-2.3595,-2.3595,-2.3595,-2.3595,-2.3595,-2.3595,-2.3595,-2.3595,-2.3595,-2.3595,-2.3595,-2.3595,-2.3595,-2.3595,-2.3595,-2.3595,-2.3595,-2.3595,-2.3595,-2.3595,-2.3595,-2.3595,-2.329,-2.3082,-2.2888,-2.2888,-2.2888,-2.2888,-2.2888,-2.2888,-2.2888,-2.2888,-2.2888,-1.2454,-1.267,-1.2862,-1.1844,-1.2306,-1.251,-1.0521,0.0,-1.1593,-1.0668,0.0,-1.1871,-1.1984,0.0,0.0,-1.2534,-1.3098,-1.3529,-1.3529,-1.419,-1.5114,-1.6286,-1.7546,-1.8084,-1.75,-1.75,-1.7823,-1.8454,-1.85,-1.8794,-1.9462,-2.0125,-2.0447,-2.0447,-2.1075,-2.146,-2.1553,-2.2701,-2.3332,-2.3425,-2.4025,-2.4302,-2.4302,-2.4302,-2.4302,-2.4302,-2.4302,-2.4302,-2.4302,-2.4302,-2.4302,-2.4302,-2.4302,-2.4302,-2.4302,-2.4302,-2.4302,-2.4302,-2.4302,-2.4302,-2.4302,-2.4302,-2.4302,-2.4302,-2.4302,-2.4302,-2.4302,-2.4343,-2.4276,-2.4223,-2.4291,-2.4151,-2.4024,-2.4024,-2.3824,-2.3595,-2.3595,-2.3595,-2.3595,-2.3595,-2.3595,-2.3595,-2.3595,-2.3595,-2.3595,-2.3595,-2.3595,-2.3595,-2.3595,-2.3595,-2.3595,-2.3595,-2.3595,-2.3595,-2.3595,-2.3595,-2.3595,-2.3595,-2.3595,-2.3595,-2.3595,-2.3187,-2.2947,-2.2888,-2.2888,-2.2888,-2.2888,-2.2888,-2.2888,-2.2888,-2.2888,-2.2888,-1.2657,-1.267,-1.2752,-1.2265,-1.2251,-1.2116,-1.1283,-1.128,-1.1422,-1.1268,0.0,0.0,0.0,0.0,0.0,0.0,-1.253,-1.2742,-1.2077,-1.2928,-1.3975,-1.4944,-1.5872,-1.664,-1.7147,-1.7208,-1.7316,-1.7608,-1.7623,-1.7915,-1.8638,-1.9315,-1.9903,-2.0289,-2.0582,-2.0921,-2.1322,-2.184,-2.2517,-2.3302,-2.3594,-2.3933,-2.4302,-2.4302,-2.4302,-2.4302,-2.4302,-2.4302,-2.4302,-2.4302,-2.4302,-2.4302,-2.4302,-2.4302,-2.4302,-2.4302,-2.4302,-2.4302,-2.4302,-2.4302,-2.4302,-2.4302,-2.4302,-2.4302,-2.4302,-2.4276,-2.425,-2.425,-2.4166,-2.4082,-2.4055,-2.397,-2.3912,-2.3797,-2.3696,-2.3595,-2.3595,-2.3595,-2.3595,-2.3595,-2.3595,-2.3595,-2.3595,-2.3595,-2.3595,-2.3595,-2.3595,-2.3595,-2.3595,-2.3595,-2.3595,-2.3595,-2.3595,-2.3595,-2.3595,-2.3595,-2.3595,-2.3595,-2.3595,-2.348,-2.3187,-2.3023,-2.2888,-2.2888,-2.2888,-2.2888,-2.2888,-2.2888,-2.2888,-2.2888,-2.2888,-2.2888,-1.3104,-1.2982,-1.2901,-1.2576,-1.2156,-1.1816,-1.1679,-1.1552,-1.1552,-1.1816,-1.1989,0.0,0.0,0.0,-1.1887,-1.1933,0.0,-1.2328,-1.1323,-1.1972,-1.2739,-1.3298,-1.4129,-1.5129,-1.6256,-1.621,-1.6163,-1.6348,-1.6379,-1.6747,-1.7608,-1.8515,-1.9317,-1.9996,-2.0212,-2.0535,-2.1029,-2.1229,-2.1778,-2.2748,-2.2932,-2.3271,-2.3763,-2.3948,-2.4025,-2.404,-2.4225,-2.4302,-2.4302,-2.4302,-2.4302,-2.4302,-2.4302,-2.4302,-2.4302,-2.4302,-2.4302,-2.4302,-2.4302,-2.4302,-2.4302,-2.4302,-2.4302,-2.4317,-2.4276,-2.4234,-2.4208,-2.4166,-2.4082,-2.3982,-2.387,-2.3842,-2.3769,-2.3653,-2.3595,-2.3595,-2.3595,-2.3595,-2.3595,-2.3595,-2.3595,-2.3595,-2.3595,-2.3595,-2.3595,-2.3595,-2.3595,-2.3595,-2.3595,-2.3595,-2.3595,-2.3595,-2.348,-2.3392,-2.3392,-2.3392,-2.3392,-2.3392,-2.3392,-2.3275,-2.2888,-2.2888,-2.2888,-2.2888,-2.2888,-2.2888,-2.2888,-2.2888,-2.2888,-2.2888,-2.2888,-2.2888,-1.4246,-1.4232,-1.3961,-1.2779,-1.2481,-1.2156,-1.1003,-1.1627,-1.2306,-1.1749,-1.2733,-1.3542,-1.2997,-1.3006,-1.2948,0.0,-1.2303,0.0,0.0,-1.1091,-1.0972,-1.1166,-1.242,-1.3529,-1.4236,-1.3713,-1.359,-1.4252,-1.4298,-1.4883,-1.6179,-1.7516,-1.8592,-1.9302,-1.9965,-2.032,-2.0335,-2.0998,-2.1301,-2.1347,-2.2009,-2.2332,-2.2378,-2.304,-2.3332,-2.3363,-2.4025,-2.4302,-2.4302,-2.4302,-2.4302,-2.4302,-2.4302,-2.4302,-2.4302,-2.4302,-2.4302,-2.4302,-2.4302,-2.4302,-2.4302,-2.4302,-2.4302,-2.4317,-2.4208,-2.425,-2.4276,-2.4067,-2.3982,-2.3982,-2.3839,-2.3696,-2.3595,-2.3595,-2.3595,-2.3595,-2.3595,-2.3595,-2.3595,-2.3595,-2.3595,-2.3595,-2.3595,-2.3595,-2.3595,-2.3595,-2.3595,-2.3595,-2.3595,-2.3595,-2.3595,-2.3595,-2.3187,-2.2933,-2.2933,-2.2933,-2.2933,-2.2933,-2.2933,-2.2947,-2.2888,-2.2888,-2.2888,-2.2888,-2.2888,-2.2888,-2.2888,-2.2888,-2.2888,-2.2888,-2.2888,-2.2888,-1.43,-1.43,-1.411,-1.331,-1.2792,-1.2278,-1.1478,-1.1939,-1.221,-1.122,-1.2348,-1.3224,-1.2224,-1.243,0.0,0.0,0.0,-1.1637,0.0,-1.0195,-1.0267,-1.0415,-1.1682,-1.2642,-1.2836,-1.3067,-1.3098,-1.2882,-1.3698,-1.459,-1.5472,-1.6809,-1.8084,-1.9256,-1.9518,-1.9857,-2.0304,-2.0535,-2.0875,-2.1322,-2.1553,-2.1855,-2.2301,-2.2517,-2.2624,-2.2671,-2.3348,-2.364,-2.3671,-2.4117,-2.4302,-2.4302,-2.4302,-2.4302,-2.4302,-2.4302,-2.4302,-2.4302,-2.4302,-2.4302,-2.4302,-2.4302,-2.4276,-2.425,-2.4223,-2.4109,-2.3967,-2.3882,-2.3797,-2.3739,-2.3696,-2.3638,-2.3595,-2.3595,-2.3595,-2.3595,-2.3595,-2.3595,-2.3595,-2.3595,-2.3595,-2.3595,-2.3595,-2.3595,-2.3595,-2.3595,-2.3595,-2.3595,-2.3595,-2.3595,-2.3595,-2.3595,-2.3187,-2.2888,-2.2888,-2.2888,-2.2888,-2.2888,-2.2888,-2.2888,-2.2888,-2.2888,-2.2888,-2.2888,-2.2888,-2.2888,-2.2888,-2.2888,-2.2888,-2.2888,-2.2888,-2.2888,-1.4369,-1.4369,-1.4201,-1.3554,-1.3149,-1.2675,-1.1817,-1.2238,-1.2535,-1.1533,-1.2455,-1.3228,-1.2658,-1.2536,-1.2429,0.0,0.0,-1.1364,0.0,-0.9865,-1.0076,-1.0321,-1.1442,-1.221,-1.221,-1.2128,-1.2128,-1.2195,-1.2528,-1.3251,-1.4437,-1.5749,-1.713,-1.85,-1.904,-1.9626,-2.0289,-2.0304,-2.052,-2.0952,-2.0952,-2.1183,-2.1578,-2.1824,-2.1932,-2.1963,-2.264,-2.3071,-2.3332,-2.3763,-2.4087,-2.4302,-2.4302,-2.4302,-2.4302,-2.4302,-2.4302,-2.4302,-2.4302,-2.4261,-2.4276,-2.4276,-2.4193,-2.4124,-2.4082,-2.3982,-2.3839,-2.3739,-2.3696,-2.3653,-2.3595,-2.3595,-2.3595,-2.3595,-2.3595,-2.3595,-2.3595,-2.3595,-2.3595,-2.3595,-2.3595,-2.3595,-2.3595,-2.3595,-2.3595,-2.3595,-2.3566,-2.348,-2.348,-2.3392,-2.3348,-2.3348,-2.3068,-2.2888,-2.2888,-2.2888,-2.2888,-2.2888,-2.2888,-2.2888,-2.2888,-2.2888,-2.2888,-2.2888,-2.2888,-2.2888,-2.2888,-2.2888,-2.2888,-2.2888,-2.2888,-2.2888]}]]